<?xml version="1.0" encoding="UTF-8" standalone="no" ?>
<gpx xmlns="http://www.topografix.com/GPX/1/1" xmlns:xsi="http://www.w3.org/2001/XMLSchema-instance" xsi:schemaLocation="http://www.topografix.com/GPX/1/1 http://www.topografix.com/GPX/1/1/gpx.xsd" version="1.1" creator="VisuGPX - https://www.visugpx.com">
  <metadata>
    <name>Combe du Merlet</name>
    <desc><![CDATA[

]]></desc>
  </metadata>
  <trk>
    <name><![CDATA[Combe du Merlet]]></name>
    <extensions>
      <line xmlns="http://www.topografix.com/GPX/gpx_style/0/2">
        <color>0000FF</color>
        <width>4</width>
      </line>
    </extensions>
    <trkseg>
      <trkpt lat="45.31143" lon="6.24881">
        <ele>1157.4959716797</ele>
        <time>2017-02-25T08:29:01Z</time>
      </trkpt>
      <trkpt lat="45.31139" lon="6.24874">
        <ele>1151.4959716797</ele>
        <time>2017-02-25T08:29:03Z</time>
      </trkpt>
      <trkpt lat="45.31135" lon="6.24869">
        <ele>1152.4959716797</ele>
        <time>2017-02-25T08:29:08Z</time>
      </trkpt>
      <trkpt lat="45.3114" lon="6.2487">
        <ele>1150.4959716797</ele>
        <time>2017-02-25T08:29:36Z</time>
      </trkpt>
      <trkpt lat="45.31145" lon="6.2487">
        <ele>1149.4959716797</ele>
        <time>2017-02-25T08:29:39Z</time>
      </trkpt>
      <trkpt lat="45.31151" lon="6.2487">
        <ele>1149.4959716797</ele>
        <time>2017-02-25T08:29:43Z</time>
      </trkpt>
      <trkpt lat="45.31155" lon="6.24873">
        <ele>1149.4959716797</ele>
        <time>2017-02-25T08:29:46Z</time>
      </trkpt>
      <trkpt lat="45.31161" lon="6.24875">
        <ele>1150.4959716797</ele>
        <time>2017-02-25T08:29:52Z</time>
      </trkpt>
      <trkpt lat="45.31165" lon="6.24877">
        <ele>1151.4959716797</ele>
        <time>2017-02-25T08:29:57Z</time>
      </trkpt>
      <trkpt lat="45.31169" lon="6.24881">
        <ele>1150.4959716797</ele>
        <time>2017-02-25T08:30:02Z</time>
      </trkpt>
      <trkpt lat="45.31173" lon="6.24885">
        <ele>1148.4959716797</ele>
        <time>2017-02-25T08:30:06Z</time>
      </trkpt>
      <trkpt lat="45.31178" lon="6.24887">
        <ele>1147.4959716797</ele>
        <time>2017-02-25T08:30:09Z</time>
      </trkpt>
      <trkpt lat="45.31182" lon="6.2489">
        <ele>1148.4959716797</ele>
        <time>2017-02-25T08:30:13Z</time>
      </trkpt>
      <trkpt lat="45.31186" lon="6.24894">
        <ele>1150.4959716797</ele>
        <time>2017-02-25T08:30:17Z</time>
      </trkpt>
      <trkpt lat="45.31191" lon="6.24895">
        <ele>1150.4959716797</ele>
        <time>2017-02-25T08:30:20Z</time>
      </trkpt>
      <trkpt lat="45.31195" lon="6.24899">
        <ele>1150.4959716797</ele>
        <time>2017-02-25T08:30:24Z</time>
      </trkpt>
      <trkpt lat="45.312" lon="6.24898">
        <ele>1150.4959716797</ele>
        <time>2017-02-25T08:30:27Z</time>
      </trkpt>
      <trkpt lat="45.31205" lon="6.249">
        <ele>1149.4959716797</ele>
        <time>2017-02-25T08:30:30Z</time>
      </trkpt>
      <trkpt lat="45.3121" lon="6.24902">
        <ele>1147.4959716797</ele>
        <time>2017-02-25T08:30:34Z</time>
      </trkpt>
      <trkpt lat="45.31214" lon="6.24906">
        <ele>1150.4959716797</ele>
        <time>2017-02-25T08:30:40Z</time>
      </trkpt>
      <trkpt lat="45.31218" lon="6.24909">
        <ele>1150.4959716797</ele>
        <time>2017-02-25T08:30:45Z</time>
      </trkpt>
      <trkpt lat="45.31223" lon="6.24913">
        <ele>1151.4959716797</ele>
        <time>2017-02-25T08:30:51Z</time>
      </trkpt>
      <trkpt lat="45.31227" lon="6.24916">
        <ele>1150.4959716797</ele>
        <time>2017-02-25T08:30:55Z</time>
      </trkpt>
      <trkpt lat="45.31232" lon="6.24916">
        <ele>1149.4959716797</ele>
        <time>2017-02-25T08:30:58Z</time>
      </trkpt>
      <trkpt lat="45.31237" lon="6.24918">
        <ele>1151.4959716797</ele>
        <time>2017-02-25T08:31:03Z</time>
      </trkpt>
      <trkpt lat="45.31243" lon="6.24915">
        <ele>1151.4959716797</ele>
        <time>2017-02-25T08:31:06Z</time>
      </trkpt>
      <trkpt lat="45.31247" lon="6.24912">
        <ele>1149.4959716797</ele>
        <time>2017-02-25T08:31:10Z</time>
      </trkpt>
      <trkpt lat="45.31252" lon="6.24911">
        <ele>1152.4959716797</ele>
        <time>2017-02-25T08:31:17Z</time>
      </trkpt>
      <trkpt lat="45.31257" lon="6.24911">
        <ele>1154.4959716797</ele>
        <time>2017-02-25T08:31:23Z</time>
      </trkpt>
      <trkpt lat="45.31262" lon="6.24908">
        <ele>1152.4959716797</ele>
        <time>2017-02-25T08:31:30Z</time>
      </trkpt>
      <trkpt lat="45.31266" lon="6.24906">
        <ele>1152.4959716797</ele>
        <time>2017-02-25T08:31:40Z</time>
      </trkpt>
      <trkpt lat="45.31272" lon="6.24904">
        <ele>1154.4959716797</ele>
        <time>2017-02-25T08:31:44Z</time>
      </trkpt>
      <trkpt lat="45.31276" lon="6.249">
        <ele>1152.4959716797</ele>
        <time>2017-02-25T08:31:48Z</time>
      </trkpt>
      <trkpt lat="45.31281" lon="6.24897">
        <ele>1154.4959716797</ele>
        <time>2017-02-25T08:31:50Z</time>
      </trkpt>
      <trkpt lat="45.31285" lon="6.24901">
        <ele>1158.4959716797</ele>
        <time>2017-02-25T08:31:55Z</time>
      </trkpt>
      <trkpt lat="45.31291" lon="6.249">
        <ele>1160.4959716797</ele>
        <time>2017-02-25T08:32:00Z</time>
      </trkpt>
      <trkpt lat="45.31298" lon="6.24896">
        <ele>1159.4959716797</ele>
        <time>2017-02-25T08:32:05Z</time>
      </trkpt>
      <trkpt lat="45.31303" lon="6.24897">
        <ele>1159.4959716797</ele>
        <time>2017-02-25T08:32:10Z</time>
      </trkpt>
      <trkpt lat="45.31309" lon="6.24898">
        <ele>1158.4959716797</ele>
        <time>2017-02-25T08:32:16Z</time>
      </trkpt>
      <trkpt lat="45.31314" lon="6.24896">
        <ele>1157.4959716797</ele>
        <time>2017-02-25T08:32:19Z</time>
      </trkpt>
      <trkpt lat="45.3132" lon="6.24899">
        <ele>1161.4959716797</ele>
        <time>2017-02-25T08:32:23Z</time>
      </trkpt>
      <trkpt lat="45.31324" lon="6.24898">
        <ele>1159.4959716797</ele>
        <time>2017-02-25T08:32:28Z</time>
      </trkpt>
      <trkpt lat="45.31329" lon="6.24896">
        <ele>1159.4959716797</ele>
        <time>2017-02-25T08:32:32Z</time>
      </trkpt>
      <trkpt lat="45.31333" lon="6.24892">
        <ele>1158.4959716797</ele>
        <time>2017-02-25T08:32:37Z</time>
      </trkpt>
      <trkpt lat="45.31337" lon="6.2489">
        <ele>1159.4959716797</ele>
        <time>2017-02-25T08:32:41Z</time>
      </trkpt>
      <trkpt lat="45.31342" lon="6.24886">
        <ele>1160.4959716797</ele>
        <time>2017-02-25T08:32:46Z</time>
      </trkpt>
      <trkpt lat="45.31347" lon="6.24886">
        <ele>1163.4959716797</ele>
        <time>2017-02-25T08:32:52Z</time>
      </trkpt>
      <trkpt lat="45.31351" lon="6.24882">
        <ele>1165.4959716797</ele>
        <time>2017-02-25T08:32:57Z</time>
      </trkpt>
      <trkpt lat="45.31356" lon="6.24877">
        <ele>1167.4959716797</ele>
        <time>2017-02-25T08:33:13Z</time>
      </trkpt>
      <trkpt lat="45.3136" lon="6.24874">
        <ele>1167.4959716797</ele>
        <time>2017-02-25T08:33:20Z</time>
      </trkpt>
      <trkpt lat="45.31364" lon="6.2487">
        <ele>1166.4959716797</ele>
        <time>2017-02-25T08:33:26Z</time>
      </trkpt>
      <trkpt lat="45.31369" lon="6.24867">
        <ele>1167.4959716797</ele>
        <time>2017-02-25T08:33:40Z</time>
      </trkpt>
      <trkpt lat="45.31373" lon="6.24863">
        <ele>1170.4959716797</ele>
        <time>2017-02-25T08:33:44Z</time>
      </trkpt>
      <trkpt lat="45.31377" lon="6.24858">
        <ele>1170.4959716797</ele>
        <time>2017-02-25T08:33:49Z</time>
      </trkpt>
      <trkpt lat="45.31381" lon="6.24853">
        <ele>1170.4959716797</ele>
        <time>2017-02-25T08:33:52Z</time>
      </trkpt>
      <trkpt lat="45.31381" lon="6.24846">
        <ele>1167.4959716797</ele>
        <time>2017-02-25T08:33:56Z</time>
      </trkpt>
      <trkpt lat="45.31386" lon="6.24839">
        <ele>1171.4959716797</ele>
        <time>2017-02-25T08:34:01Z</time>
      </trkpt>
      <trkpt lat="45.31386" lon="6.24832">
        <ele>1172.4959716797</ele>
        <time>2017-02-25T08:34:04Z</time>
      </trkpt>
      <trkpt lat="45.31387" lon="6.24825">
        <ele>1173.4959716797</ele>
        <time>2017-02-25T08:34:08Z</time>
      </trkpt>
      <trkpt lat="45.3139" lon="6.24816">
        <ele>1173.4959716797</ele>
        <time>2017-02-25T08:34:13Z</time>
      </trkpt>
      <trkpt lat="45.3139" lon="6.2481">
        <ele>1174.4959716797</ele>
        <time>2017-02-25T08:34:21Z</time>
      </trkpt>
      <trkpt lat="45.31391" lon="6.24802">
        <ele>1173.4959716797</ele>
        <time>2017-02-25T08:34:25Z</time>
      </trkpt>
      <trkpt lat="45.31392" lon="6.24796">
        <ele>1174.4959716797</ele>
        <time>2017-02-25T08:34:28Z</time>
      </trkpt>
      <trkpt lat="45.31395" lon="6.2479">
        <ele>1173.4959716797</ele>
        <time>2017-02-25T08:34:32Z</time>
      </trkpt>
      <trkpt lat="45.31396" lon="6.24783">
        <ele>1173.4959716797</ele>
        <time>2017-02-25T08:34:35Z</time>
      </trkpt>
      <trkpt lat="45.31396" lon="6.24776">
        <ele>1171.4959716797</ele>
        <time>2017-02-25T08:34:39Z</time>
      </trkpt>
      <trkpt lat="45.31397" lon="6.24769">
        <ele>1172.4959716797</ele>
        <time>2017-02-25T08:34:42Z</time>
      </trkpt>
      <trkpt lat="45.31396" lon="6.2476">
        <ele>1168.4959716797</ele>
        <time>2017-02-25T08:34:46Z</time>
      </trkpt>
      <trkpt lat="45.31393" lon="6.24755">
        <ele>1166.4959716797</ele>
        <time>2017-02-25T08:34:50Z</time>
      </trkpt>
      <trkpt lat="45.31392" lon="6.24746">
        <ele>1166.4959716797</ele>
        <time>2017-02-25T08:34:55Z</time>
      </trkpt>
      <trkpt lat="45.31391" lon="6.2474">
        <ele>1165.4959716797</ele>
        <time>2017-02-25T08:34:58Z</time>
      </trkpt>
      <trkpt lat="45.31389" lon="6.24732">
        <ele>1166.4959716797</ele>
        <time>2017-02-25T08:35:02Z</time>
      </trkpt>
      <trkpt lat="45.31388" lon="6.24726">
        <ele>1164.4959716797</ele>
        <time>2017-02-25T08:35:09Z</time>
      </trkpt>
      <trkpt lat="45.31388" lon="6.24717">
        <ele>1162.4959716797</ele>
        <time>2017-02-25T08:35:13Z</time>
      </trkpt>
      <trkpt lat="45.31387" lon="6.24708">
        <ele>1163.4959716797</ele>
        <time>2017-02-25T08:35:17Z</time>
      </trkpt>
      <trkpt lat="45.31385" lon="6.24702">
        <ele>1162.4959716797</ele>
        <time>2017-02-25T08:35:22Z</time>
      </trkpt>
      <trkpt lat="45.31384" lon="6.24695">
        <ele>1160.4959716797</ele>
        <time>2017-02-25T08:35:25Z</time>
      </trkpt>
      <trkpt lat="45.31384" lon="6.24689">
        <ele>1162.4959716797</ele>
        <time>2017-02-25T08:35:28Z</time>
      </trkpt>
      <trkpt lat="45.31383" lon="6.24682">
        <ele>1159.4959716797</ele>
        <time>2017-02-25T08:35:31Z</time>
      </trkpt>
      <trkpt lat="45.31384" lon="6.24676">
        <ele>1159.4959716797</ele>
        <time>2017-02-25T08:35:34Z</time>
      </trkpt>
      <trkpt lat="45.31384" lon="6.24667">
        <ele>1161.4959716797</ele>
        <time>2017-02-25T08:35:38Z</time>
      </trkpt>
      <trkpt lat="45.31384" lon="6.2466">
        <ele>1161.4959716797</ele>
        <time>2017-02-25T08:35:42Z</time>
      </trkpt>
      <trkpt lat="45.31382" lon="6.24653">
        <ele>1163.4959716797</ele>
        <time>2017-02-25T08:35:46Z</time>
      </trkpt>
      <trkpt lat="45.31382" lon="6.24645">
        <ele>1164.4959716797</ele>
        <time>2017-02-25T08:35:52Z</time>
      </trkpt>
      <trkpt lat="45.3138" lon="6.24638">
        <ele>1165.4959716797</ele>
        <time>2017-02-25T08:35:57Z</time>
      </trkpt>
      <trkpt lat="45.31376" lon="6.24634">
        <ele>1163.4959716797</ele>
        <time>2017-02-25T08:36:01Z</time>
      </trkpt>
      <trkpt lat="45.3138" lon="6.24629">
        <ele>1164.4959716797</ele>
        <time>2017-02-25T08:36:05Z</time>
      </trkpt>
      <trkpt lat="45.31382" lon="6.24622">
        <ele>1163.4959716797</ele>
        <time>2017-02-25T08:36:08Z</time>
      </trkpt>
      <trkpt lat="45.31385" lon="6.24616">
        <ele>1162.4959716797</ele>
        <time>2017-02-25T08:36:10Z</time>
      </trkpt>
      <trkpt lat="45.31389" lon="6.24609">
        <ele>1161.4959716797</ele>
        <time>2017-02-25T08:36:13Z</time>
      </trkpt>
      <trkpt lat="45.31394" lon="6.24602">
        <ele>1160.4959716797</ele>
        <time>2017-02-25T08:36:16Z</time>
      </trkpt>
      <trkpt lat="45.31394" lon="6.24595">
        <ele>1160.4959716797</ele>
        <time>2017-02-25T08:36:21Z</time>
      </trkpt>
      <trkpt lat="45.31393" lon="6.24588">
        <ele>1161.4959716797</ele>
        <time>2017-02-25T08:36:26Z</time>
      </trkpt>
      <trkpt lat="45.31395" lon="6.24582">
        <ele>1163.4959716797</ele>
        <time>2017-02-25T08:36:30Z</time>
      </trkpt>
      <trkpt lat="45.31399" lon="6.24576">
        <ele>1166.4959716797</ele>
        <time>2017-02-25T08:36:35Z</time>
      </trkpt>
      <trkpt lat="45.31401" lon="6.2457">
        <ele>1166.4959716797</ele>
        <time>2017-02-25T08:36:39Z</time>
      </trkpt>
      <trkpt lat="45.31401" lon="6.24564">
        <ele>1165.4959716797</ele>
        <time>2017-02-25T08:36:42Z</time>
      </trkpt>
      <trkpt lat="45.31403" lon="6.24558">
        <ele>1168.4959716797</ele>
        <time>2017-02-25T08:36:48Z</time>
      </trkpt>
      <trkpt lat="45.31406" lon="6.24552">
        <ele>1168.4959716797</ele>
        <time>2017-02-25T08:36:55Z</time>
      </trkpt>
      <trkpt lat="45.31409" lon="6.24548">
        <ele>1167.4959716797</ele>
        <time>2017-02-25T08:36:58Z</time>
      </trkpt>
      <trkpt lat="45.31414" lon="6.24542">
        <ele>1163.4959716797</ele>
        <time>2017-02-25T08:37:03Z</time>
      </trkpt>
      <trkpt lat="45.31418" lon="6.2454">
        <ele>1163.4959716797</ele>
        <time>2017-02-25T08:37:06Z</time>
      </trkpt>
      <trkpt lat="45.31423" lon="6.24539">
        <ele>1162.4959716797</ele>
        <time>2017-02-25T08:37:10Z</time>
      </trkpt>
      <trkpt lat="45.31427" lon="6.24536">
        <ele>1162.4959716797</ele>
        <time>2017-02-25T08:37:13Z</time>
      </trkpt>
      <trkpt lat="45.31432" lon="6.24535">
        <ele>1163.4959716797</ele>
        <time>2017-02-25T08:37:16Z</time>
      </trkpt>
      <trkpt lat="45.31436" lon="6.24533">
        <ele>1163.4959716797</ele>
        <time>2017-02-25T08:37:22Z</time>
      </trkpt>
      <trkpt lat="45.31441" lon="6.2453">
        <ele>1165.4959716797</ele>
        <time>2017-02-25T08:37:25Z</time>
      </trkpt>
      <trkpt lat="45.31446" lon="6.24528">
        <ele>1166.4959716797</ele>
        <time>2017-02-25T08:37:29Z</time>
      </trkpt>
      <trkpt lat="45.31451" lon="6.24521">
        <ele>1166.4959716797</ele>
        <time>2017-02-25T08:37:36Z</time>
      </trkpt>
      <trkpt lat="45.31454" lon="6.24516">
        <ele>1165.4959716797</ele>
        <time>2017-02-25T08:37:41Z</time>
      </trkpt>
      <trkpt lat="45.31456" lon="6.24509">
        <ele>1168.4959716797</ele>
        <time>2017-02-25T08:37:45Z</time>
      </trkpt>
      <trkpt lat="45.31458" lon="6.24502">
        <ele>1169.4959716797</ele>
        <time>2017-02-25T08:37:50Z</time>
      </trkpt>
      <trkpt lat="45.3146" lon="6.24495">
        <ele>1169.4959716797</ele>
        <time>2017-02-25T08:38:47Z</time>
      </trkpt>
      <trkpt lat="45.31463" lon="6.2449">
        <ele>1170.4959716797</ele>
        <time>2017-02-25T08:38:51Z</time>
      </trkpt>
      <trkpt lat="45.31466" lon="6.24484">
        <ele>1169.4959716797</ele>
        <time>2017-02-25T08:38:53Z</time>
      </trkpt>
      <trkpt lat="45.3147" lon="6.24481">
        <ele>1168.4959716797</ele>
        <time>2017-02-25T08:38:57Z</time>
      </trkpt>
      <trkpt lat="45.31476" lon="6.24482">
        <ele>1168.4959716797</ele>
        <time>2017-02-25T08:39:01Z</time>
      </trkpt>
      <trkpt lat="45.31479" lon="6.24489">
        <ele>1168.4959716797</ele>
        <time>2017-02-25T08:39:06Z</time>
      </trkpt>
      <trkpt lat="45.31479" lon="6.24495">
        <ele>1170.4959716797</ele>
        <time>2017-02-25T08:39:12Z</time>
      </trkpt>
      <trkpt lat="45.31483" lon="6.24502">
        <ele>1171.4959716797</ele>
        <time>2017-02-25T08:39:14Z</time>
      </trkpt>
      <trkpt lat="45.31486" lon="6.24507">
        <ele>1172.4959716797</ele>
        <time>2017-02-25T08:39:17Z</time>
      </trkpt>
      <trkpt lat="45.3149" lon="6.2451">
        <ele>1172.4959716797</ele>
        <time>2017-02-25T08:39:21Z</time>
      </trkpt>
      <trkpt lat="45.31495" lon="6.24509">
        <ele>1169.4959716797</ele>
        <time>2017-02-25T08:39:27Z</time>
      </trkpt>
      <trkpt lat="45.315" lon="6.24509">
        <ele>1168.4959716797</ele>
        <time>2017-02-25T08:39:30Z</time>
      </trkpt>
      <trkpt lat="45.31504" lon="6.24507">
        <ele>1168.4959716797</ele>
        <time>2017-02-25T08:39:35Z</time>
      </trkpt>
      <trkpt lat="45.31509" lon="6.24504">
        <ele>1168.4959716797</ele>
        <time>2017-02-25T08:39:39Z</time>
      </trkpt>
      <trkpt lat="45.31515" lon="6.24502">
        <ele>1169.4959716797</ele>
        <time>2017-02-25T08:39:42Z</time>
      </trkpt>
      <trkpt lat="45.3152" lon="6.24499">
        <ele>1170.4959716797</ele>
        <time>2017-02-25T08:39:45Z</time>
      </trkpt>
      <trkpt lat="45.31526" lon="6.24495">
        <ele>1172.4959716797</ele>
        <time>2017-02-25T08:39:51Z</time>
      </trkpt>
      <trkpt lat="45.3153" lon="6.24492">
        <ele>1171.4959716797</ele>
        <time>2017-02-25T08:39:54Z</time>
      </trkpt>
      <trkpt lat="45.31536" lon="6.2449">
        <ele>1169.4959716797</ele>
        <time>2017-02-25T08:39:57Z</time>
      </trkpt>
      <trkpt lat="45.31541" lon="6.24494">
        <ele>1170.4959716797</ele>
        <time>2017-02-25T08:40:00Z</time>
      </trkpt>
      <trkpt lat="45.31545" lon="6.245">
        <ele>1169.4959716797</ele>
        <time>2017-02-25T08:40:07Z</time>
      </trkpt>
      <trkpt lat="45.31547" lon="6.24506">
        <ele>1169.4959716797</ele>
        <time>2017-02-25T08:40:12Z</time>
      </trkpt>
      <trkpt lat="45.31552" lon="6.24509">
        <ele>1167.4959716797</ele>
        <time>2017-02-25T08:40:17Z</time>
      </trkpt>
      <trkpt lat="45.31556" lon="6.24514">
        <ele>1168.4959716797</ele>
        <time>2017-02-25T08:40:20Z</time>
      </trkpt>
      <trkpt lat="45.31562" lon="6.24516">
        <ele>1168.4959716797</ele>
        <time>2017-02-25T08:40:25Z</time>
      </trkpt>
      <trkpt lat="45.31564" lon="6.24524">
        <ele>1172.4959716797</ele>
        <time>2017-02-25T08:40:29Z</time>
      </trkpt>
      <trkpt lat="45.31569" lon="6.24522">
        <ele>1169.4959716797</ele>
        <time>2017-02-25T08:40:49Z</time>
      </trkpt>
      <trkpt lat="45.3157" lon="6.24529">
        <ele>1176.4959716797</ele>
        <time>2017-02-25T08:44:09Z</time>
      </trkpt>
      <trkpt lat="45.31574" lon="6.24532">
        <ele>1175.4959716797</ele>
        <time>2017-02-25T08:44:16Z</time>
      </trkpt>
      <trkpt lat="45.3158" lon="6.24529">
        <ele>1174.4959716797</ele>
        <time>2017-02-25T08:44:21Z</time>
      </trkpt>
      <trkpt lat="45.31585" lon="6.24525">
        <ele>1174.4959716797</ele>
        <time>2017-02-25T08:44:24Z</time>
      </trkpt>
      <trkpt lat="45.31589" lon="6.24522">
        <ele>1174.4959716797</ele>
        <time>2017-02-25T08:44:28Z</time>
      </trkpt>
      <trkpt lat="45.31592" lon="6.24516">
        <ele>1172.4959716797</ele>
        <time>2017-02-25T08:44:31Z</time>
      </trkpt>
      <trkpt lat="45.31593" lon="6.24509">
        <ele>1168.4959716797</ele>
        <time>2017-02-25T08:44:36Z</time>
      </trkpt>
      <trkpt lat="45.31594" lon="6.24501">
        <ele>1169.4959716797</ele>
        <time>2017-02-25T08:44:42Z</time>
      </trkpt>
      <trkpt lat="45.31595" lon="6.24494">
        <ele>1171.4959716797</ele>
        <time>2017-02-25T08:44:47Z</time>
      </trkpt>
      <trkpt lat="45.31599" lon="6.24491">
        <ele>1173.4959716797</ele>
        <time>2017-02-25T08:44:49Z</time>
      </trkpt>
      <trkpt lat="45.31599" lon="6.24484">
        <ele>1175.4959716797</ele>
        <time>2017-02-25T08:44:55Z</time>
      </trkpt>
      <trkpt lat="45.31605" lon="6.24479">
        <ele>1178.4959716797</ele>
        <time>2017-02-25T08:44:58Z</time>
      </trkpt>
      <trkpt lat="45.31607" lon="6.24472">
        <ele>1179.4959716797</ele>
        <time>2017-02-25T08:45:02Z</time>
      </trkpt>
      <trkpt lat="45.31609" lon="6.24465">
        <ele>1177.4959716797</ele>
        <time>2017-02-25T08:45:06Z</time>
      </trkpt>
      <trkpt lat="45.31609" lon="6.24458">
        <ele>1174.4959716797</ele>
        <time>2017-02-25T08:45:12Z</time>
      </trkpt>
      <trkpt lat="45.31614" lon="6.24451">
        <ele>1268.4959716797</ele>
        <time>2017-02-25T08:45:18Z</time>
      </trkpt>
      <trkpt lat="45.31616" lon="6.24444">
        <ele>1217.4959716797</ele>
        <time>2017-02-25T08:45:21Z</time>
      </trkpt>
      <trkpt lat="45.3162" lon="6.24441">
        <ele>1189.4959716797</ele>
        <time>2017-02-25T08:45:26Z</time>
      </trkpt>
      <trkpt lat="45.31622" lon="6.24434">
        <ele>1185.4959716797</ele>
        <time>2017-02-25T08:45:30Z</time>
      </trkpt>
      <trkpt lat="45.31627" lon="6.24432">
        <ele>1181.4959716797</ele>
        <time>2017-02-25T08:45:34Z</time>
      </trkpt>
      <trkpt lat="45.3163" lon="6.24426">
        <ele>1183.4959716797</ele>
        <time>2017-02-25T08:45:38Z</time>
      </trkpt>
      <trkpt lat="45.31634" lon="6.24424">
        <ele>1190.4959716797</ele>
        <time>2017-02-25T08:45:42Z</time>
      </trkpt>
      <trkpt lat="45.31636" lon="6.24418">
        <ele>1186.4959716797</ele>
        <time>2017-02-25T08:45:47Z</time>
      </trkpt>
      <trkpt lat="45.31637" lon="6.24412">
        <ele>1180.4959716797</ele>
        <time>2017-02-25T08:45:54Z</time>
      </trkpt>
      <trkpt lat="45.3164" lon="6.24405">
        <ele>1177.4959716797</ele>
        <time>2017-02-25T08:46:00Z</time>
      </trkpt>
      <trkpt lat="45.31643" lon="6.24399">
        <ele>1176.4959716797</ele>
        <time>2017-02-25T08:46:05Z</time>
      </trkpt>
      <trkpt lat="45.31648" lon="6.24397">
        <ele>1177.4959716797</ele>
        <time>2017-02-25T08:46:09Z</time>
      </trkpt>
      <trkpt lat="45.31652" lon="6.24391">
        <ele>1177.4959716797</ele>
        <time>2017-02-25T08:46:14Z</time>
      </trkpt>
      <trkpt lat="45.31655" lon="6.24387">
        <ele>1176.4959716797</ele>
        <time>2017-02-25T08:46:20Z</time>
      </trkpt>
      <trkpt lat="45.3166" lon="6.24384">
        <ele>1180.4959716797</ele>
        <time>2017-02-25T08:46:24Z</time>
      </trkpt>
      <trkpt lat="45.31664" lon="6.2438">
        <ele>1179.4959716797</ele>
        <time>2017-02-25T08:46:31Z</time>
      </trkpt>
      <trkpt lat="45.31668" lon="6.24375">
        <ele>1180.4959716797</ele>
        <time>2017-02-25T08:46:36Z</time>
      </trkpt>
      <trkpt lat="45.31671" lon="6.24371">
        <ele>1180.4959716797</ele>
        <time>2017-02-25T08:46:41Z</time>
      </trkpt>
      <trkpt lat="45.31674" lon="6.24364">
        <ele>1184.4959716797</ele>
        <time>2017-02-25T08:46:46Z</time>
      </trkpt>
      <trkpt lat="45.31677" lon="6.24358">
        <ele>1187.4959716797</ele>
        <time>2017-02-25T08:46:54Z</time>
      </trkpt>
      <trkpt lat="45.31679" lon="6.24352">
        <ele>1190.4959716797</ele>
        <time>2017-02-25T08:47:00Z</time>
      </trkpt>
      <trkpt lat="45.31681" lon="6.24345">
        <ele>1190.4959716797</ele>
        <time>2017-02-25T08:47:06Z</time>
      </trkpt>
      <trkpt lat="45.31684" lon="6.2434">
        <ele>1188.4959716797</ele>
        <time>2017-02-25T08:47:10Z</time>
      </trkpt>
      <trkpt lat="45.31687" lon="6.24336">
        <ele>1191.4959716797</ele>
        <time>2017-02-25T08:47:15Z</time>
      </trkpt>
      <trkpt lat="45.31693" lon="6.24332">
        <ele>1192.4959716797</ele>
        <time>2017-02-25T08:47:21Z</time>
      </trkpt>
      <trkpt lat="45.31697" lon="6.2433">
        <ele>1191.4959716797</ele>
        <time>2017-02-25T08:47:24Z</time>
      </trkpt>
      <trkpt lat="45.31701" lon="6.24326">
        <ele>1188.4959716797</ele>
        <time>2017-02-25T08:47:29Z</time>
      </trkpt>
      <trkpt lat="45.31704" lon="6.24321">
        <ele>1188.4959716797</ele>
        <time>2017-02-25T08:47:33Z</time>
      </trkpt>
      <trkpt lat="45.31709" lon="6.24318">
        <ele>1187.4959716797</ele>
        <time>2017-02-25T08:47:37Z</time>
      </trkpt>
      <trkpt lat="45.31713" lon="6.24314">
        <ele>1188.4959716797</ele>
        <time>2017-02-25T08:47:40Z</time>
      </trkpt>
      <trkpt lat="45.31717" lon="6.2431">
        <ele>1189.4959716797</ele>
        <time>2017-02-25T08:47:44Z</time>
      </trkpt>
      <trkpt lat="45.3172" lon="6.24304">
        <ele>1188.4959716797</ele>
        <time>2017-02-25T08:47:48Z</time>
      </trkpt>
      <trkpt lat="45.31721" lon="6.24298">
        <ele>1189.4959716797</ele>
        <time>2017-02-25T08:47:51Z</time>
      </trkpt>
      <trkpt lat="45.31723" lon="6.24291">
        <ele>1190.4959716797</ele>
        <time>2017-02-25T08:47:57Z</time>
      </trkpt>
      <trkpt lat="45.31727" lon="6.24285">
        <ele>1191.4959716797</ele>
        <time>2017-02-25T08:48:02Z</time>
      </trkpt>
      <trkpt lat="45.31732" lon="6.24281">
        <ele>1192.4959716797</ele>
        <time>2017-02-25T08:48:07Z</time>
      </trkpt>
      <trkpt lat="45.31735" lon="6.24276">
        <ele>1192.4959716797</ele>
        <time>2017-02-25T08:48:12Z</time>
      </trkpt>
      <trkpt lat="45.3174" lon="6.24274">
        <ele>1193.4959716797</ele>
        <time>2017-02-25T08:48:17Z</time>
      </trkpt>
      <trkpt lat="45.31745" lon="6.24271">
        <ele>1193.4959716797</ele>
        <time>2017-02-25T08:48:21Z</time>
      </trkpt>
      <trkpt lat="45.31748" lon="6.24267">
        <ele>1194.4959716797</ele>
        <time>2017-02-25T08:48:26Z</time>
      </trkpt>
      <trkpt lat="45.31753" lon="6.24264">
        <ele>1194.4959716797</ele>
        <time>2017-02-25T08:48:30Z</time>
      </trkpt>
      <trkpt lat="45.31759" lon="6.24262">
        <ele>1194.4959716797</ele>
        <time>2017-02-25T08:48:37Z</time>
      </trkpt>
      <trkpt lat="45.31763" lon="6.24266">
        <ele>1195.4959716797</ele>
        <time>2017-02-25T08:48:45Z</time>
      </trkpt>
      <trkpt lat="45.31768" lon="6.24268">
        <ele>1195.4959716797</ele>
        <time>2017-02-25T08:48:49Z</time>
      </trkpt>
      <trkpt lat="45.31773" lon="6.24268">
        <ele>1196.4959716797</ele>
        <time>2017-02-25T08:48:53Z</time>
      </trkpt>
      <trkpt lat="45.31778" lon="6.24268">
        <ele>1197.4959716797</ele>
        <time>2017-02-25T08:48:57Z</time>
      </trkpt>
      <trkpt lat="45.31783" lon="6.24269">
        <ele>1197.4959716797</ele>
        <time>2017-02-25T08:49:02Z</time>
      </trkpt>
      <trkpt lat="45.31788" lon="6.24271">
        <ele>1198.4959716797</ele>
        <time>2017-02-25T08:49:07Z</time>
      </trkpt>
      <trkpt lat="45.31792" lon="6.24274">
        <ele>1200.4959716797</ele>
        <time>2017-02-25T08:49:13Z</time>
      </trkpt>
      <trkpt lat="45.31797" lon="6.24273">
        <ele>1199.4959716797</ele>
        <time>2017-02-25T08:49:16Z</time>
      </trkpt>
      <trkpt lat="45.31802" lon="6.24276">
        <ele>1201.4959716797</ele>
        <time>2017-02-25T08:49:23Z</time>
      </trkpt>
      <trkpt lat="45.31806" lon="6.24279">
        <ele>1201.4959716797</ele>
        <time>2017-02-25T08:49:27Z</time>
      </trkpt>
      <trkpt lat="45.31812" lon="6.24278">
        <ele>1202.4959716797</ele>
        <time>2017-02-25T08:49:32Z</time>
      </trkpt>
      <trkpt lat="45.31816" lon="6.24279">
        <ele>1201.4959716797</ele>
        <time>2017-02-25T08:49:37Z</time>
      </trkpt>
      <trkpt lat="45.3182" lon="6.24284">
        <ele>1204.4959716797</ele>
        <time>2017-02-25T08:49:43Z</time>
      </trkpt>
      <trkpt lat="45.31825" lon="6.24285">
        <ele>1206.4959716797</ele>
        <time>2017-02-25T08:49:47Z</time>
      </trkpt>
      <trkpt lat="45.3183" lon="6.24286">
        <ele>1207.4959716797</ele>
        <time>2017-02-25T08:49:52Z</time>
      </trkpt>
      <trkpt lat="45.31835" lon="6.2429">
        <ele>1207.4959716797</ele>
        <time>2017-02-25T08:49:57Z</time>
      </trkpt>
      <trkpt lat="45.3184" lon="6.24286">
        <ele>1207.4959716797</ele>
        <time>2017-02-25T08:49:59Z</time>
      </trkpt>
      <trkpt lat="45.31841" lon="6.24292">
        <ele>1207.4959716797</ele>
        <time>2017-02-25T08:50:04Z</time>
      </trkpt>
      <trkpt lat="45.31846" lon="6.24291">
        <ele>1208.4959716797</ele>
        <time>2017-02-25T08:50:08Z</time>
      </trkpt>
      <trkpt lat="45.31851" lon="6.24293">
        <ele>1208.4959716797</ele>
        <time>2017-02-25T08:50:14Z</time>
      </trkpt>
      <trkpt lat="45.31856" lon="6.24291">
        <ele>1207.4959716797</ele>
        <time>2017-02-25T08:50:18Z</time>
      </trkpt>
      <trkpt lat="45.31861" lon="6.24289">
        <ele>1209.4959716797</ele>
        <time>2017-02-25T08:50:24Z</time>
      </trkpt>
      <trkpt lat="45.31866" lon="6.24288">
        <ele>1208.4959716797</ele>
        <time>2017-02-25T08:50:28Z</time>
      </trkpt>
      <trkpt lat="45.31872" lon="6.24286">
        <ele>1211.4959716797</ele>
        <time>2017-02-25T08:50:34Z</time>
      </trkpt>
      <trkpt lat="45.31876" lon="6.24285">
        <ele>1212.4959716797</ele>
        <time>2017-02-25T08:50:40Z</time>
      </trkpt>
      <trkpt lat="45.31881" lon="6.24284">
        <ele>1213.4959716797</ele>
        <time>2017-02-25T08:50:44Z</time>
      </trkpt>
      <trkpt lat="45.31886" lon="6.24282">
        <ele>1214.4959716797</ele>
        <time>2017-02-25T08:50:51Z</time>
      </trkpt>
      <trkpt lat="45.31891" lon="6.24282">
        <ele>1215.4959716797</ele>
        <time>2017-02-25T08:50:56Z</time>
      </trkpt>
      <trkpt lat="45.31895" lon="6.24279">
        <ele>1213.4959716797</ele>
        <time>2017-02-25T08:51:01Z</time>
      </trkpt>
      <trkpt lat="45.319" lon="6.24275">
        <ele>1213.4959716797</ele>
        <time>2017-02-25T08:51:06Z</time>
      </trkpt>
      <trkpt lat="45.31905" lon="6.24272">
        <ele>1215.4959716797</ele>
        <time>2017-02-25T08:53:58Z</time>
      </trkpt>
      <trkpt lat="45.31908" lon="6.24267">
        <ele>1211.4959716797</ele>
        <time>2017-02-25T08:54:03Z</time>
      </trkpt>
      <trkpt lat="45.31915" lon="6.24265">
        <ele>1219.4959716797</ele>
        <time>2017-02-25T08:54:09Z</time>
      </trkpt>
      <trkpt lat="45.31917" lon="6.24258">
        <ele>1218.4959716797</ele>
        <time>2017-02-25T08:54:15Z</time>
      </trkpt>
      <trkpt lat="45.31919" lon="6.24252">
        <ele>1219.4959716797</ele>
        <time>2017-02-25T08:54:21Z</time>
      </trkpt>
      <trkpt lat="45.31921" lon="6.24245">
        <ele>1218.4959716797</ele>
        <time>2017-02-25T08:54:28Z</time>
      </trkpt>
      <trkpt lat="45.31925" lon="6.2424">
        <ele>1220.4959716797</ele>
        <time>2017-02-25T08:54:35Z</time>
      </trkpt>
      <trkpt lat="45.3193" lon="6.24236">
        <ele>1222.4959716797</ele>
        <time>2017-02-25T08:54:43Z</time>
      </trkpt>
      <trkpt lat="45.31933" lon="6.2423">
        <ele>1223.4959716797</ele>
        <time>2017-02-25T08:54:46Z</time>
      </trkpt>
      <trkpt lat="45.31937" lon="6.24226">
        <ele>1229.4959716797</ele>
        <time>2017-02-25T08:54:55Z</time>
      </trkpt>
      <trkpt lat="45.31941" lon="6.24221">
        <ele>1229.4959716797</ele>
        <time>2017-02-25T08:55:03Z</time>
      </trkpt>
      <trkpt lat="45.31943" lon="6.24213">
        <ele>1232.4959716797</ele>
        <time>2017-02-25T08:55:10Z</time>
      </trkpt>
      <trkpt lat="45.31944" lon="6.24206">
        <ele>1228.4959716797</ele>
        <time>2017-02-25T08:55:15Z</time>
      </trkpt>
      <trkpt lat="45.31948" lon="6.24201">
        <ele>1228.4959716797</ele>
        <time>2017-02-25T08:55:22Z</time>
      </trkpt>
      <trkpt lat="45.31951" lon="6.24196">
        <ele>1228.4959716797</ele>
        <time>2017-02-25T08:55:28Z</time>
      </trkpt>
      <trkpt lat="45.31953" lon="6.24189">
        <ele>1228.4959716797</ele>
        <time>2017-02-25T08:55:53Z</time>
      </trkpt>
      <trkpt lat="45.31955" lon="6.24182">
        <ele>1231.4959716797</ele>
        <time>2017-02-25T08:55:58Z</time>
      </trkpt>
      <trkpt lat="45.31957" lon="6.24176">
        <ele>1231.4959716797</ele>
        <time>2017-02-25T08:56:01Z</time>
      </trkpt>
      <trkpt lat="45.31958" lon="6.24169">
        <ele>1235.4959716797</ele>
        <time>2017-02-25T08:56:08Z</time>
      </trkpt>
      <trkpt lat="45.31961" lon="6.24164">
        <ele>1234.4959716797</ele>
        <time>2017-02-25T08:56:11Z</time>
      </trkpt>
      <trkpt lat="45.31963" lon="6.24158">
        <ele>1233.4959716797</ele>
        <time>2017-02-25T08:56:16Z</time>
      </trkpt>
      <trkpt lat="45.31966" lon="6.24153">
        <ele>1235.4959716797</ele>
        <time>2017-02-25T08:56:20Z</time>
      </trkpt>
      <trkpt lat="45.31969" lon="6.24148">
        <ele>1237.4959716797</ele>
        <time>2017-02-25T08:56:23Z</time>
      </trkpt>
      <trkpt lat="45.31971" lon="6.24142">
        <ele>1236.4959716797</ele>
        <time>2017-02-25T08:56:26Z</time>
      </trkpt>
      <trkpt lat="45.31974" lon="6.24136">
        <ele>1235.4959716797</ele>
        <time>2017-02-25T08:56:32Z</time>
      </trkpt>
      <trkpt lat="45.31975" lon="6.2413">
        <ele>1237.4959716797</ele>
        <time>2017-02-25T08:56:36Z</time>
      </trkpt>
      <trkpt lat="45.31973" lon="6.24121">
        <ele>1237.4959716797</ele>
        <time>2017-02-25T08:56:41Z</time>
      </trkpt>
      <trkpt lat="45.31978" lon="6.24117">
        <ele>1233.4959716797</ele>
        <time>2017-02-25T08:56:47Z</time>
      </trkpt>
      <trkpt lat="45.31983" lon="6.24113">
        <ele>1243.4959716797</ele>
        <time>2017-02-25T08:57:01Z</time>
      </trkpt>
      <trkpt lat="45.31986" lon="6.24108">
        <ele>1245.4959716797</ele>
        <time>2017-02-25T08:57:13Z</time>
      </trkpt>
      <trkpt lat="45.3199" lon="6.24105">
        <ele>1245.4959716797</ele>
        <time>2017-02-25T08:57:44Z</time>
      </trkpt>
      <trkpt lat="45.31991" lon="6.24098">
        <ele>1247.4959716797</ele>
        <time>2017-02-25T08:58:08Z</time>
      </trkpt>
      <trkpt lat="45.31994" lon="6.24092">
        <ele>1248.4959716797</ele>
        <time>2017-02-25T08:58:13Z</time>
      </trkpt>
      <trkpt lat="45.31999" lon="6.24088">
        <ele>1249.4959716797</ele>
        <time>2017-02-25T08:58:38Z</time>
      </trkpt>
      <trkpt lat="45.32004" lon="6.24084">
        <ele>1254.4959716797</ele>
        <time>2017-02-25T08:58:43Z</time>
      </trkpt>
      <trkpt lat="45.32008" lon="6.24081">
        <ele>1257.4959716797</ele>
        <time>2017-02-25T08:58:50Z</time>
      </trkpt>
      <trkpt lat="45.32012" lon="6.24076">
        <ele>1257.4959716797</ele>
        <time>2017-02-25T08:58:56Z</time>
      </trkpt>
      <trkpt lat="45.32016" lon="6.24073">
        <ele>1257.4959716797</ele>
        <time>2017-02-25T08:58:59Z</time>
      </trkpt>
      <trkpt lat="45.32021" lon="6.24071">
        <ele>1257.4959716797</ele>
        <time>2017-02-25T08:59:04Z</time>
      </trkpt>
      <trkpt lat="45.32026" lon="6.24068">
        <ele>1260.4959716797</ele>
        <time>2017-02-25T08:59:08Z</time>
      </trkpt>
      <trkpt lat="45.3203" lon="6.24064">
        <ele>1262.4959716797</ele>
        <time>2017-02-25T08:59:13Z</time>
      </trkpt>
      <trkpt lat="45.32035" lon="6.24061">
        <ele>1264.4959716797</ele>
        <time>2017-02-25T08:59:20Z</time>
      </trkpt>
      <trkpt lat="45.32039" lon="6.24058">
        <ele>1264.4959716797</ele>
        <time>2017-02-25T08:59:27Z</time>
      </trkpt>
      <trkpt lat="45.32044" lon="6.24055">
        <ele>1266.4959716797</ele>
        <time>2017-02-25T08:59:32Z</time>
      </trkpt>
      <trkpt lat="45.32048" lon="6.2405">
        <ele>1265.4959716797</ele>
        <time>2017-02-25T08:59:36Z</time>
      </trkpt>
      <trkpt lat="45.32052" lon="6.24047">
        <ele>1265.4959716797</ele>
        <time>2017-02-25T08:59:39Z</time>
      </trkpt>
      <trkpt lat="45.32057" lon="6.24043">
        <ele>1267.4959716797</ele>
        <time>2017-02-25T08:59:44Z</time>
      </trkpt>
      <trkpt lat="45.32062" lon="6.2404">
        <ele>1269.4959716797</ele>
        <time>2017-02-25T08:59:48Z</time>
      </trkpt>
      <trkpt lat="45.32066" lon="6.24037">
        <ele>1268.4959716797</ele>
        <time>2017-02-25T08:59:52Z</time>
      </trkpt>
      <trkpt lat="45.32071" lon="6.24035">
        <ele>1271.4959716797</ele>
        <time>2017-02-25T09:00:07Z</time>
      </trkpt>
      <trkpt lat="45.32075" lon="6.2403">
        <ele>1271.4959716797</ele>
        <time>2017-02-25T09:00:11Z</time>
      </trkpt>
      <trkpt lat="45.3208" lon="6.24028">
        <ele>1272.4959716797</ele>
        <time>2017-02-25T09:00:22Z</time>
      </trkpt>
      <trkpt lat="45.32085" lon="6.24029">
        <ele>1278.4959716797</ele>
        <time>2017-02-25T09:00:27Z</time>
      </trkpt>
      <trkpt lat="45.3209" lon="6.24026">
        <ele>1278.4959716797</ele>
        <time>2017-02-25T09:00:34Z</time>
      </trkpt>
      <trkpt lat="45.32097" lon="6.24016">
        <ele>1274.4959716797</ele>
        <time>2017-02-25T09:00:39Z</time>
      </trkpt>
      <trkpt lat="45.32101" lon="6.24011">
        <ele>1273.4959716797</ele>
        <time>2017-02-25T09:00:53Z</time>
      </trkpt>
      <trkpt lat="45.32106" lon="6.24007">
        <ele>1274.4959716797</ele>
        <time>2017-02-25T09:01:01Z</time>
      </trkpt>
      <trkpt lat="45.32112" lon="6.23994">
        <ele>1266.4959716797</ele>
        <time>2017-02-25T09:01:05Z</time>
      </trkpt>
      <trkpt lat="45.32117" lon="6.23996">
        <ele>1274.4959716797</ele>
        <time>2017-02-25T09:01:10Z</time>
      </trkpt>
      <trkpt lat="45.32121" lon="6.23993">
        <ele>1279.4959716797</ele>
        <time>2017-02-25T09:01:25Z</time>
      </trkpt>
      <trkpt lat="45.32125" lon="6.23988">
        <ele>1278.4959716797</ele>
        <time>2017-02-25T09:01:28Z</time>
      </trkpt>
      <trkpt lat="45.32131" lon="6.23984">
        <ele>1277.4959716797</ele>
        <time>2017-02-25T09:01:32Z</time>
      </trkpt>
      <trkpt lat="45.32135" lon="6.23979">
        <ele>1283.4959716797</ele>
        <time>2017-02-25T09:01:44Z</time>
      </trkpt>
      <trkpt lat="45.32131" lon="6.23976">
        <ele>1280.4959716797</ele>
        <time>2017-02-25T09:01:47Z</time>
      </trkpt>
      <trkpt lat="45.32127" lon="6.23972">
        <ele>1278.4959716797</ele>
        <time>2017-02-25T09:01:52Z</time>
      </trkpt>
      <trkpt lat="45.32123" lon="6.23968">
        <ele>1277.4959716797</ele>
        <time>2017-02-25T09:01:59Z</time>
      </trkpt>
      <trkpt lat="45.32128" lon="6.23962">
        <ele>1278.4959716797</ele>
        <time>2017-02-25T09:02:10Z</time>
      </trkpt>
      <trkpt lat="45.32132" lon="6.23959">
        <ele>1281.4959716797</ele>
        <time>2017-02-25T09:02:16Z</time>
      </trkpt>
      <trkpt lat="45.32136" lon="6.23956">
        <ele>1282.4959716797</ele>
        <time>2017-02-25T09:02:29Z</time>
      </trkpt>
      <trkpt lat="45.3214" lon="6.23951">
        <ele>1286.4959716797</ele>
        <time>2017-02-25T09:02:41Z</time>
      </trkpt>
      <trkpt lat="45.32144" lon="6.23948">
        <ele>1286.4959716797</ele>
        <time>2017-02-25T09:02:44Z</time>
      </trkpt>
      <trkpt lat="45.32149" lon="6.23947">
        <ele>1286.4959716797</ele>
        <time>2017-02-25T09:02:52Z</time>
      </trkpt>
      <trkpt lat="45.32152" lon="6.23941">
        <ele>1292.4959716797</ele>
        <time>2017-02-25T09:03:02Z</time>
      </trkpt>
      <trkpt lat="45.32155" lon="6.23935">
        <ele>1292.4959716797</ele>
        <time>2017-02-25T09:03:09Z</time>
      </trkpt>
      <trkpt lat="45.32159" lon="6.23932">
        <ele>1296.4959716797</ele>
        <time>2017-02-25T09:03:16Z</time>
      </trkpt>
      <trkpt lat="45.32162" lon="6.23926">
        <ele>1300.4959716797</ele>
        <time>2017-02-25T09:03:26Z</time>
      </trkpt>
      <trkpt lat="45.32166" lon="6.23923">
        <ele>1302.4959716797</ele>
        <time>2017-02-25T09:03:32Z</time>
      </trkpt>
      <trkpt lat="45.32169" lon="6.23917">
        <ele>1303.4959716797</ele>
        <time>2017-02-25T09:03:40Z</time>
      </trkpt>
      <trkpt lat="45.32172" lon="6.23912">
        <ele>1304.4959716797</ele>
        <time>2017-02-25T09:03:46Z</time>
      </trkpt>
      <trkpt lat="45.32174" lon="6.23906">
        <ele>1303.4959716797</ele>
        <time>2017-02-25T09:03:50Z</time>
      </trkpt>
      <trkpt lat="45.32178" lon="6.23903">
        <ele>1302.4959716797</ele>
        <time>2017-02-25T09:03:59Z</time>
      </trkpt>
      <trkpt lat="45.32178" lon="6.23896">
        <ele>1303.4959716797</ele>
        <time>2017-02-25T09:04:04Z</time>
      </trkpt>
      <trkpt lat="45.32182" lon="6.23894">
        <ele>1302.4959716797</ele>
        <time>2017-02-25T09:04:21Z</time>
      </trkpt>
      <trkpt lat="45.3218" lon="6.23887">
        <ele>1306.4959716797</ele>
        <time>2017-02-25T09:04:32Z</time>
      </trkpt>
      <trkpt lat="45.32177" lon="6.23882">
        <ele>1309.4959716797</ele>
        <time>2017-02-25T09:04:46Z</time>
      </trkpt>
      <trkpt lat="45.32177" lon="6.23875">
        <ele>1313.4959716797</ele>
        <time>2017-02-25T09:05:07Z</time>
      </trkpt>
      <trkpt lat="45.32173" lon="6.23871">
        <ele>1312.4959716797</ele>
        <time>2017-02-25T09:05:12Z</time>
      </trkpt>
      <trkpt lat="45.32175" lon="6.23864">
        <ele>1317.4959716797</ele>
        <time>2017-02-25T09:05:41Z</time>
      </trkpt>
      <trkpt lat="45.32179" lon="6.23858">
        <ele>1317.4959716797</ele>
        <time>2017-02-25T09:05:56Z</time>
      </trkpt>
      <trkpt lat="45.32183" lon="6.23854">
        <ele>1317.4959716797</ele>
        <time>2017-02-25T09:06:01Z</time>
      </trkpt>
      <trkpt lat="45.32189" lon="6.23854">
        <ele>1319.4959716797</ele>
        <time>2017-02-25T09:06:09Z</time>
      </trkpt>
      <trkpt lat="45.32193" lon="6.2385">
        <ele>1318.4959716797</ele>
        <time>2017-02-25T09:06:19Z</time>
      </trkpt>
      <trkpt lat="45.32197" lon="6.23854">
        <ele>1323.4959716797</ele>
        <time>2017-02-25T09:06:35Z</time>
      </trkpt>
      <trkpt lat="45.32201" lon="6.23851">
        <ele>1323.4959716797</ele>
        <time>2017-02-25T09:06:46Z</time>
      </trkpt>
      <trkpt lat="45.32205" lon="6.23846">
        <ele>1321.4959716797</ele>
        <time>2017-02-25T09:06:53Z</time>
      </trkpt>
      <trkpt lat="45.3221" lon="6.23845">
        <ele>1324.4959716797</ele>
        <time>2017-02-25T09:07:04Z</time>
      </trkpt>
      <trkpt lat="45.32214" lon="6.23846">
        <ele>1324.4959716797</ele>
        <time>2017-02-25T09:07:12Z</time>
      </trkpt>
      <trkpt lat="45.32217" lon="6.2384">
        <ele>1323.4959716797</ele>
        <time>2017-02-25T09:07:18Z</time>
      </trkpt>
      <trkpt lat="45.32221" lon="6.23835">
        <ele>1323.4959716797</ele>
        <time>2017-02-25T09:07:20Z</time>
      </trkpt>
      <trkpt lat="45.32226" lon="6.23833">
        <ele>1327.4959716797</ele>
        <time>2017-02-25T09:07:27Z</time>
      </trkpt>
      <trkpt lat="45.32232" lon="6.23831">
        <ele>1328.4959716797</ele>
        <time>2017-02-25T09:07:34Z</time>
      </trkpt>
      <trkpt lat="45.32237" lon="6.23828">
        <ele>1328.4959716797</ele>
        <time>2017-02-25T09:07:39Z</time>
      </trkpt>
      <trkpt lat="45.32241" lon="6.23822">
        <ele>1329.4959716797</ele>
        <time>2017-02-25T09:07:42Z</time>
      </trkpt>
      <trkpt lat="45.32245" lon="6.23816">
        <ele>1330.4959716797</ele>
        <time>2017-02-25T09:07:50Z</time>
      </trkpt>
      <trkpt lat="45.3225" lon="6.23816">
        <ele>1335.4959716797</ele>
        <time>2017-02-25T09:08:06Z</time>
      </trkpt>
      <trkpt lat="45.32253" lon="6.23811">
        <ele>1333.4959716797</ele>
        <time>2017-02-25T09:08:13Z</time>
      </trkpt>
      <trkpt lat="45.32258" lon="6.23808">
        <ele>1333.4959716797</ele>
        <time>2017-02-25T09:08:22Z</time>
      </trkpt>
      <trkpt lat="45.32263" lon="6.23804">
        <ele>1334.4959716797</ele>
        <time>2017-02-25T09:08:30Z</time>
      </trkpt>
      <trkpt lat="45.32268" lon="6.23799">
        <ele>1335.4959716797</ele>
        <time>2017-02-25T09:08:35Z</time>
      </trkpt>
      <trkpt lat="45.32272" lon="6.23797">
        <ele>1339.4959716797</ele>
        <time>2017-02-25T09:08:50Z</time>
      </trkpt>
      <trkpt lat="45.32276" lon="6.23794">
        <ele>1339.4959716797</ele>
        <time>2017-02-25T09:08:54Z</time>
      </trkpt>
      <trkpt lat="45.32283" lon="6.23791">
        <ele>1342.4959716797</ele>
        <time>2017-02-25T09:08:59Z</time>
      </trkpt>
      <trkpt lat="45.32288" lon="6.23792">
        <ele>1343.4959716797</ele>
        <time>2017-02-25T09:09:05Z</time>
      </trkpt>
      <trkpt lat="45.32292" lon="6.23788">
        <ele>1339.4959716797</ele>
        <time>2017-02-25T09:09:07Z</time>
      </trkpt>
      <trkpt lat="45.32297" lon="6.2379">
        <ele>1337.4959716797</ele>
        <time>2017-02-25T09:09:19Z</time>
      </trkpt>
      <trkpt lat="45.32301" lon="6.23785">
        <ele>1342.4959716797</ele>
        <time>2017-02-25T09:09:31Z</time>
      </trkpt>
      <trkpt lat="45.32307" lon="6.23781">
        <ele>1340.4959716797</ele>
        <time>2017-02-25T09:09:35Z</time>
      </trkpt>
      <trkpt lat="45.32312" lon="6.23781">
        <ele>1340.4959716797</ele>
        <time>2017-02-25T09:09:44Z</time>
      </trkpt>
      <trkpt lat="45.32316" lon="6.23778">
        <ele>1343.4959716797</ele>
        <time>2017-02-25T09:10:02Z</time>
      </trkpt>
      <trkpt lat="45.32319" lon="6.23773">
        <ele>1347.4959716797</ele>
        <time>2017-02-25T09:10:14Z</time>
      </trkpt>
      <trkpt lat="45.32323" lon="6.23767">
        <ele>1343.4959716797</ele>
        <time>2017-02-25T09:10:17Z</time>
      </trkpt>
      <trkpt lat="45.32326" lon="6.23763">
        <ele>1345.4959716797</ele>
        <time>2017-02-25T09:10:25Z</time>
      </trkpt>
      <trkpt lat="45.32329" lon="6.23758">
        <ele>1347.4959716797</ele>
        <time>2017-02-25T09:10:39Z</time>
      </trkpt>
      <trkpt lat="45.32328" lon="6.23751">
        <ele>1349.4959716797</ele>
        <time>2017-02-25T09:10:42Z</time>
      </trkpt>
      <trkpt lat="45.32324" lon="6.23752">
        <ele>1351.4959716797</ele>
        <time>2017-02-25T09:10:49Z</time>
      </trkpt>
      <trkpt lat="45.32319" lon="6.23749">
        <ele>1357.4959716797</ele>
        <time>2017-02-25T09:10:59Z</time>
      </trkpt>
      <trkpt lat="45.32319" lon="6.23742">
        <ele>1356.4959716797</ele>
        <time>2017-02-25T09:11:12Z</time>
      </trkpt>
      <trkpt lat="45.32321" lon="6.23736">
        <ele>1357.4959716797</ele>
        <time>2017-02-25T09:11:22Z</time>
      </trkpt>
      <trkpt lat="45.32324" lon="6.23731">
        <ele>1360.4959716797</ele>
        <time>2017-02-25T09:11:33Z</time>
      </trkpt>
      <trkpt lat="45.32327" lon="6.23726">
        <ele>1360.4959716797</ele>
        <time>2017-02-25T09:11:37Z</time>
      </trkpt>
      <trkpt lat="45.32332" lon="6.23722">
        <ele>1359.4959716797</ele>
        <time>2017-02-25T09:11:42Z</time>
      </trkpt>
      <trkpt lat="45.32333" lon="6.23715">
        <ele>1358.4959716797</ele>
        <time>2017-02-25T09:11:58Z</time>
      </trkpt>
      <trkpt lat="45.32336" lon="6.23709">
        <ele>1360.4959716797</ele>
        <time>2017-02-25T09:12:04Z</time>
      </trkpt>
      <trkpt lat="45.32335" lon="6.23702">
        <ele>1363.4959716797</ele>
        <time>2017-02-25T09:12:13Z</time>
      </trkpt>
      <trkpt lat="45.32332" lon="6.23708">
        <ele>1359.4959716797</ele>
        <time>2017-02-25T09:12:16Z</time>
      </trkpt>
      <trkpt lat="45.32327" lon="6.23708">
        <ele>1361.4959716797</ele>
        <time>2017-02-25T09:12:21Z</time>
      </trkpt>
      <trkpt lat="45.32329" lon="6.23697">
        <ele>1362.4959716797</ele>
        <time>2017-02-25T09:12:41Z</time>
      </trkpt>
      <trkpt lat="45.32332" lon="6.23691">
        <ele>1367.4959716797</ele>
        <time>2017-02-25T09:12:45Z</time>
      </trkpt>
      <trkpt lat="45.32335" lon="6.23686">
        <ele>1371.4959716797</ele>
        <time>2017-02-25T09:12:56Z</time>
      </trkpt>
      <trkpt lat="45.32342" lon="6.23681">
        <ele>1373.4959716797</ele>
        <time>2017-02-25T09:13:06Z</time>
      </trkpt>
      <trkpt lat="45.32346" lon="6.23677">
        <ele>1376.4959716797</ele>
        <time>2017-02-25T09:13:09Z</time>
      </trkpt>
      <trkpt lat="45.3235" lon="6.23681">
        <ele>1381.4959716797</ele>
        <time>2017-02-25T09:13:21Z</time>
      </trkpt>
      <trkpt lat="45.32354" lon="6.23673">
        <ele>1382.4959716797</ele>
        <time>2017-02-25T09:13:24Z</time>
      </trkpt>
      <trkpt lat="45.32357" lon="6.23668">
        <ele>1387.4959716797</ele>
        <time>2017-02-25T09:13:30Z</time>
      </trkpt>
      <trkpt lat="45.32362" lon="6.23661">
        <ele>1387.4959716797</ele>
        <time>2017-02-25T09:13:41Z</time>
      </trkpt>
      <trkpt lat="45.32366" lon="6.23654">
        <ele>1383.4959716797</ele>
        <time>2017-02-25T09:13:43Z</time>
      </trkpt>
      <trkpt lat="45.3237" lon="6.23651">
        <ele>1392.4959716797</ele>
        <time>2017-02-25T09:14:18Z</time>
      </trkpt>
      <trkpt lat="45.32374" lon="6.23644">
        <ele>1395.4959716797</ele>
        <time>2017-02-25T09:14:41Z</time>
      </trkpt>
      <trkpt lat="45.32379" lon="6.23641">
        <ele>1396.4959716797</ele>
        <time>2017-02-25T09:14:44Z</time>
      </trkpt>
      <trkpt lat="45.32381" lon="6.23635">
        <ele>1393.4959716797</ele>
        <time>2017-02-25T09:14:46Z</time>
      </trkpt>
      <trkpt lat="45.32384" lon="6.2363">
        <ele>1392.4959716797</ele>
        <time>2017-02-25T09:14:52Z</time>
      </trkpt>
      <trkpt lat="45.3239" lon="6.23622">
        <ele>1396.4959716797</ele>
        <time>2017-02-25T09:15:22Z</time>
      </trkpt>
      <trkpt lat="45.32393" lon="6.23616">
        <ele>1397.4959716797</ele>
        <time>2017-02-25T09:15:24Z</time>
      </trkpt>
      <trkpt lat="45.32398" lon="6.23607">
        <ele>1399.4959716797</ele>
        <time>2017-02-25T09:15:28Z</time>
      </trkpt>
      <trkpt lat="45.32403" lon="6.23608">
        <ele>1404.4959716797</ele>
        <time>2017-02-25T09:15:37Z</time>
      </trkpt>
      <trkpt lat="45.32408" lon="6.23608">
        <ele>1405.4959716797</ele>
        <time>2017-02-25T09:15:43Z</time>
      </trkpt>
      <trkpt lat="45.32411" lon="6.23602">
        <ele>1406.4959716797</ele>
        <time>2017-02-25T09:15:48Z</time>
      </trkpt>
      <trkpt lat="45.32415" lon="6.23597">
        <ele>1408.4959716797</ele>
        <time>2017-02-25T09:16:04Z</time>
      </trkpt>
      <trkpt lat="45.32418" lon="6.23591">
        <ele>1410.4959716797</ele>
        <time>2017-02-25T09:16:20Z</time>
      </trkpt>
      <trkpt lat="45.3242" lon="6.23585">
        <ele>1409.4959716797</ele>
        <time>2017-02-25T09:16:28Z</time>
      </trkpt>
      <trkpt lat="45.32418" lon="6.23579">
        <ele>1410.4959716797</ele>
        <time>2017-02-25T09:16:36Z</time>
      </trkpt>
      <trkpt lat="45.32422" lon="6.23574">
        <ele>1414.4959716797</ele>
        <time>2017-02-25T09:17:05Z</time>
      </trkpt>
      <trkpt lat="45.32426" lon="6.2357">
        <ele>1415.4959716797</ele>
        <time>2017-02-25T09:17:14Z</time>
      </trkpt>
      <trkpt lat="45.3243" lon="6.23564">
        <ele>1419.4959716797</ele>
        <time>2017-02-25T09:17:20Z</time>
      </trkpt>
      <trkpt lat="45.32433" lon="6.23556">
        <ele>1423.4959716797</ele>
        <time>2017-02-25T09:17:33Z</time>
      </trkpt>
      <trkpt lat="45.32437" lon="6.23552">
        <ele>1425.4959716797</ele>
        <time>2017-02-25T09:17:47Z</time>
      </trkpt>
      <trkpt lat="45.3244" lon="6.23546">
        <ele>1423.4959716797</ele>
        <time>2017-02-25T09:17:56Z</time>
      </trkpt>
      <trkpt lat="45.32441" lon="6.2354">
        <ele>1422.4959716797</ele>
        <time>2017-02-25T09:18:07Z</time>
      </trkpt>
      <trkpt lat="45.32444" lon="6.23534">
        <ele>1424.4959716797</ele>
        <time>2017-02-25T09:18:11Z</time>
      </trkpt>
      <trkpt lat="45.32446" lon="6.23527">
        <ele>1424.4959716797</ele>
        <time>2017-02-25T09:18:19Z</time>
      </trkpt>
      <trkpt lat="45.32449" lon="6.23521">
        <ele>1427.4959716797</ele>
        <time>2017-02-25T09:18:29Z</time>
      </trkpt>
      <trkpt lat="45.32454" lon="6.23519">
        <ele>1425.4959716797</ele>
        <time>2017-02-25T09:18:39Z</time>
      </trkpt>
      <trkpt lat="45.32457" lon="6.23514">
        <ele>1425.4959716797</ele>
        <time>2017-02-25T09:18:46Z</time>
      </trkpt>
      <trkpt lat="45.3246" lon="6.23509">
        <ele>1422.4959716797</ele>
        <time>2017-02-25T09:18:57Z</time>
      </trkpt>
      <trkpt lat="45.32465" lon="6.23505">
        <ele>1426.4959716797</ele>
        <time>2017-02-25T09:19:02Z</time>
      </trkpt>
      <trkpt lat="45.32462" lon="6.23499">
        <ele>1427.4959716797</ele>
        <time>2017-02-25T09:19:08Z</time>
      </trkpt>
      <trkpt lat="45.32465" lon="6.23495">
        <ele>1429.4959716797</ele>
        <time>2017-02-25T09:19:19Z</time>
      </trkpt>
      <trkpt lat="45.32463" lon="6.23489">
        <ele>1429.4959716797</ele>
        <time>2017-02-25T09:19:24Z</time>
      </trkpt>
      <trkpt lat="45.32462" lon="6.23482">
        <ele>1431.4959716797</ele>
        <time>2017-02-25T09:19:33Z</time>
      </trkpt>
      <trkpt lat="45.32465" lon="6.23476">
        <ele>1432.4959716797</ele>
        <time>2017-02-25T09:19:42Z</time>
      </trkpt>
      <trkpt lat="45.32468" lon="6.2347">
        <ele>1432.4959716797</ele>
        <time>2017-02-25T09:20:26Z</time>
      </trkpt>
      <trkpt lat="45.32474" lon="6.23468">
        <ele>1434.4959716797</ele>
        <time>2017-02-25T09:20:34Z</time>
      </trkpt>
      <trkpt lat="45.32477" lon="6.23465">
        <ele>1438.4959716797</ele>
        <time>2017-02-25T09:20:44Z</time>
      </trkpt>
      <trkpt lat="45.32473" lon="6.23462">
        <ele>1436.4959716797</ele>
        <time>2017-02-25T09:21:50Z</time>
      </trkpt>
      <trkpt lat="45.32477" lon="6.23459">
        <ele>1438.4959716797</ele>
        <time>2017-02-25T09:21:58Z</time>
      </trkpt>
      <trkpt lat="45.32481" lon="6.23453">
        <ele>1436.4959716797</ele>
        <time>2017-02-25T09:22:06Z</time>
      </trkpt>
      <trkpt lat="45.3248" lon="6.23446">
        <ele>1440.4959716797</ele>
        <time>2017-02-25T09:22:11Z</time>
      </trkpt>
      <trkpt lat="45.3248" lon="6.2344">
        <ele>1439.4959716797</ele>
        <time>2017-02-25T09:22:18Z</time>
      </trkpt>
      <trkpt lat="45.32479" lon="6.23433">
        <ele>1440.4959716797</ele>
        <time>2017-02-25T09:22:23Z</time>
      </trkpt>
      <trkpt lat="45.32478" lon="6.23426">
        <ele>1440.4959716797</ele>
        <time>2017-02-25T09:22:32Z</time>
      </trkpt>
      <trkpt lat="45.32475" lon="6.2342">
        <ele>1441.4959716797</ele>
        <time>2017-02-25T09:22:44Z</time>
      </trkpt>
      <trkpt lat="45.32477" lon="6.23413">
        <ele>1444.4959716797</ele>
        <time>2017-02-25T09:22:59Z</time>
      </trkpt>
      <trkpt lat="45.32481" lon="6.23409">
        <ele>1448.4959716797</ele>
        <time>2017-02-25T09:23:04Z</time>
      </trkpt>
      <trkpt lat="45.32484" lon="6.23404">
        <ele>1450.4959716797</ele>
        <time>2017-02-25T09:23:10Z</time>
      </trkpt>
      <trkpt lat="45.32484" lon="6.23397">
        <ele>1451.4959716797</ele>
        <time>2017-02-25T09:23:22Z</time>
      </trkpt>
      <trkpt lat="45.32484" lon="6.2339">
        <ele>1454.4959716797</ele>
        <time>2017-02-25T09:23:30Z</time>
      </trkpt>
      <trkpt lat="45.32489" lon="6.23387">
        <ele>1458.4959716797</ele>
        <time>2017-02-25T09:23:37Z</time>
      </trkpt>
      <trkpt lat="45.32493" lon="6.23385">
        <ele>1457.4959716797</ele>
        <time>2017-02-25T09:23:46Z</time>
      </trkpt>
      <trkpt lat="45.32495" lon="6.23378">
        <ele>1456.4959716797</ele>
        <time>2017-02-25T09:23:59Z</time>
      </trkpt>
      <trkpt lat="45.32493" lon="6.23371">
        <ele>1459.4959716797</ele>
        <time>2017-02-25T09:24:03Z</time>
      </trkpt>
      <trkpt lat="45.32493" lon="6.23364">
        <ele>1461.4959716797</ele>
        <time>2017-02-25T09:24:09Z</time>
      </trkpt>
      <trkpt lat="45.32496" lon="6.23359">
        <ele>1460.4959716797</ele>
        <time>2017-02-25T09:24:29Z</time>
      </trkpt>
      <trkpt lat="45.325" lon="6.23354">
        <ele>1461.4959716797</ele>
        <time>2017-02-25T09:24:36Z</time>
      </trkpt>
      <trkpt lat="45.32504" lon="6.23347">
        <ele>1462.4959716797</ele>
        <time>2017-02-25T09:24:43Z</time>
      </trkpt>
      <trkpt lat="45.32508" lon="6.23345">
        <ele>1464.4959716797</ele>
        <time>2017-02-25T09:24:49Z</time>
      </trkpt>
      <trkpt lat="45.32506" lon="6.23339">
        <ele>1466.4959716797</ele>
        <time>2017-02-25T09:25:05Z</time>
      </trkpt>
      <trkpt lat="45.32502" lon="6.23335">
        <ele>1468.4959716797</ele>
        <time>2017-02-25T09:25:12Z</time>
      </trkpt>
      <trkpt lat="45.32497" lon="6.23336">
        <ele>1471.4959716797</ele>
        <time>2017-02-25T09:25:27Z</time>
      </trkpt>
      <trkpt lat="45.32499" lon="6.23328">
        <ele>1471.4959716797</ele>
        <time>2017-02-25T09:25:32Z</time>
      </trkpt>
      <trkpt lat="45.32503" lon="6.23324">
        <ele>1473.4959716797</ele>
        <time>2017-02-25T09:25:47Z</time>
      </trkpt>
      <trkpt lat="45.32507" lon="6.23321">
        <ele>1477.4959716797</ele>
        <time>2017-02-25T09:25:57Z</time>
      </trkpt>
      <trkpt lat="45.32512" lon="6.23319">
        <ele>1479.4959716797</ele>
        <time>2017-02-25T09:26:02Z</time>
      </trkpt>
      <trkpt lat="45.32516" lon="6.23316">
        <ele>1479.4959716797</ele>
        <time>2017-02-25T09:26:07Z</time>
      </trkpt>
      <trkpt lat="45.3252" lon="6.23312">
        <ele>1480.4959716797</ele>
        <time>2017-02-25T09:26:19Z</time>
      </trkpt>
      <trkpt lat="45.32516" lon="6.23306">
        <ele>1480.4959716797</ele>
        <time>2017-02-25T09:26:32Z</time>
      </trkpt>
      <trkpt lat="45.3252" lon="6.23302">
        <ele>1487.4959716797</ele>
        <time>2017-02-25T09:27:00Z</time>
      </trkpt>
      <trkpt lat="45.32523" lon="6.23296">
        <ele>1485.4959716797</ele>
        <time>2017-02-25T09:27:11Z</time>
      </trkpt>
      <trkpt lat="45.32526" lon="6.2329">
        <ele>1486.4959716797</ele>
        <time>2017-02-25T09:27:19Z</time>
      </trkpt>
      <trkpt lat="45.32527" lon="6.23284">
        <ele>1487.4959716797</ele>
        <time>2017-02-25T09:27:34Z</time>
      </trkpt>
      <trkpt lat="45.32524" lon="6.2328">
        <ele>1486.4959716797</ele>
        <time>2017-02-25T09:27:38Z</time>
      </trkpt>
      <trkpt lat="45.32522" lon="6.23274">
        <ele>1486.4959716797</ele>
        <time>2017-02-25T09:27:44Z</time>
      </trkpt>
      <trkpt lat="45.32522" lon="6.23268">
        <ele>1491.4959716797</ele>
        <time>2017-02-25T09:27:50Z</time>
      </trkpt>
      <trkpt lat="45.32522" lon="6.2326">
        <ele>1492.4959716797</ele>
        <time>2017-02-25T09:28:02Z</time>
      </trkpt>
      <trkpt lat="45.3252" lon="6.23253">
        <ele>1496.4959716797</ele>
        <time>2017-02-25T09:28:10Z</time>
      </trkpt>
      <trkpt lat="45.32515" lon="6.23253">
        <ele>1497.4959716797</ele>
        <time>2017-02-25T09:28:30Z</time>
      </trkpt>
      <trkpt lat="45.32511" lon="6.23254">
        <ele>1498.4959716797</ele>
        <time>2017-02-25T09:28:39Z</time>
      </trkpt>
      <trkpt lat="45.32513" lon="6.23248">
        <ele>1501.4959716797</ele>
        <time>2017-02-25T09:28:52Z</time>
      </trkpt>
      <trkpt lat="45.32516" lon="6.23243">
        <ele>1506.4959716797</ele>
        <time>2017-02-25T09:28:59Z</time>
      </trkpt>
      <trkpt lat="45.32517" lon="6.23237">
        <ele>1507.4959716797</ele>
        <time>2017-02-25T09:29:24Z</time>
      </trkpt>
      <trkpt lat="45.32512" lon="6.23235">
        <ele>1508.4959716797</ele>
        <time>2017-02-25T09:29:37Z</time>
      </trkpt>
      <trkpt lat="45.32508" lon="6.23234">
        <ele>1508.4959716797</ele>
        <time>2017-02-25T09:29:41Z</time>
      </trkpt>
      <trkpt lat="45.32503" lon="6.23234">
        <ele>1512.4959716797</ele>
        <time>2017-02-25T09:29:49Z</time>
      </trkpt>
      <trkpt lat="45.32498" lon="6.23236">
        <ele>1512.4959716797</ele>
        <time>2017-02-25T09:29:55Z</time>
      </trkpt>
      <trkpt lat="45.32494" lon="6.23239">
        <ele>1510.4959716797</ele>
        <time>2017-02-25T09:30:00Z</time>
      </trkpt>
      <trkpt lat="45.3249" lon="6.23234">
        <ele>1507.4959716797</ele>
        <time>2017-02-25T09:30:15Z</time>
      </trkpt>
      <trkpt lat="45.32491" lon="6.23228">
        <ele>1506.4959716797</ele>
        <time>2017-02-25T09:30:26Z</time>
      </trkpt>
      <trkpt lat="45.32494" lon="6.23222">
        <ele>1508.4959716797</ele>
        <time>2017-02-25T09:32:08Z</time>
      </trkpt>
      <trkpt lat="45.32497" lon="6.23217">
        <ele>1509.4959716797</ele>
        <time>2017-02-25T09:32:15Z</time>
      </trkpt>
      <trkpt lat="45.32501" lon="6.23211">
        <ele>1511.4959716797</ele>
        <time>2017-02-25T09:32:21Z</time>
      </trkpt>
      <trkpt lat="45.32503" lon="6.23205">
        <ele>1512.4959716797</ele>
        <time>2017-02-25T09:32:27Z</time>
      </trkpt>
      <trkpt lat="45.32503" lon="6.23196">
        <ele>1520.4959716797</ele>
        <time>2017-02-25T09:32:38Z</time>
      </trkpt>
      <trkpt lat="45.32504" lon="6.23189">
        <ele>1523.4959716797</ele>
        <time>2017-02-25T09:32:46Z</time>
      </trkpt>
      <trkpt lat="45.32501" lon="6.23184">
        <ele>1524.4959716797</ele>
        <time>2017-02-25T09:32:49Z</time>
      </trkpt>
      <trkpt lat="45.32502" lon="6.23178">
        <ele>1524.4959716797</ele>
        <time>2017-02-25T09:32:53Z</time>
      </trkpt>
      <trkpt lat="45.32502" lon="6.2317">
        <ele>1521.4959716797</ele>
        <time>2017-02-25T09:32:58Z</time>
      </trkpt>
      <trkpt lat="45.32504" lon="6.23163">
        <ele>1523.4959716797</ele>
        <time>2017-02-25T09:33:05Z</time>
      </trkpt>
      <trkpt lat="45.32506" lon="6.23156">
        <ele>1520.4959716797</ele>
        <time>2017-02-25T09:33:08Z</time>
      </trkpt>
      <trkpt lat="45.32503" lon="6.2315">
        <ele>1519.4959716797</ele>
        <time>2017-02-25T09:33:12Z</time>
      </trkpt>
      <trkpt lat="45.32501" lon="6.23143">
        <ele>1519.4959716797</ele>
        <time>2017-02-25T09:33:17Z</time>
      </trkpt>
      <trkpt lat="45.32498" lon="6.23137">
        <ele>1516.4959716797</ele>
        <time>2017-02-25T09:33:19Z</time>
      </trkpt>
      <trkpt lat="45.32499" lon="6.2313">
        <ele>1519.4959716797</ele>
        <time>2017-02-25T09:33:24Z</time>
      </trkpt>
      <trkpt lat="45.32499" lon="6.23124">
        <ele>1529.4959716797</ele>
        <time>2017-02-25T09:33:30Z</time>
      </trkpt>
      <trkpt lat="45.32498" lon="6.23117">
        <ele>1528.4959716797</ele>
        <time>2017-02-25T09:33:34Z</time>
      </trkpt>
      <trkpt lat="45.32497" lon="6.23111">
        <ele>1528.4959716797</ele>
        <time>2017-02-25T09:33:41Z</time>
      </trkpt>
      <trkpt lat="45.32498" lon="6.23104">
        <ele>1528.4959716797</ele>
        <time>2017-02-25T09:33:46Z</time>
      </trkpt>
      <trkpt lat="45.32499" lon="6.23097">
        <ele>1530.4959716797</ele>
        <time>2017-02-25T09:33:51Z</time>
      </trkpt>
      <trkpt lat="45.32497" lon="6.23091">
        <ele>1526.4959716797</ele>
        <time>2017-02-25T09:33:57Z</time>
      </trkpt>
      <trkpt lat="45.32496" lon="6.23084">
        <ele>1527.4959716797</ele>
        <time>2017-02-25T09:34:03Z</time>
      </trkpt>
      <trkpt lat="45.32494" lon="6.23076">
        <ele>1527.4959716797</ele>
        <time>2017-02-25T09:34:12Z</time>
      </trkpt>
      <trkpt lat="45.32492" lon="6.2307">
        <ele>1528.4959716797</ele>
        <time>2017-02-25T09:34:18Z</time>
      </trkpt>
      <trkpt lat="45.32488" lon="6.23066">
        <ele>1530.4959716797</ele>
        <time>2017-02-25T09:34:28Z</time>
      </trkpt>
      <trkpt lat="45.32486" lon="6.23059">
        <ele>1529.4959716797</ele>
        <time>2017-02-25T09:34:33Z</time>
      </trkpt>
      <trkpt lat="45.32486" lon="6.23052">
        <ele>1534.4959716797</ele>
        <time>2017-02-25T09:34:38Z</time>
      </trkpt>
      <trkpt lat="45.32487" lon="6.23045">
        <ele>1533.4959716797</ele>
        <time>2017-02-25T09:34:45Z</time>
      </trkpt>
      <trkpt lat="45.32486" lon="6.23037">
        <ele>1534.4959716797</ele>
        <time>2017-02-25T09:34:48Z</time>
      </trkpt>
      <trkpt lat="45.32483" lon="6.23031">
        <ele>1537.4959716797</ele>
        <time>2017-02-25T09:34:53Z</time>
      </trkpt>
      <trkpt lat="45.32482" lon="6.23024">
        <ele>1536.4959716797</ele>
        <time>2017-02-25T09:35:08Z</time>
      </trkpt>
      <trkpt lat="45.32481" lon="6.23017">
        <ele>1535.4959716797</ele>
        <time>2017-02-25T09:35:47Z</time>
      </trkpt>
      <trkpt lat="45.32483" lon="6.23009">
        <ele>1534.4959716797</ele>
        <time>2017-02-25T09:36:03Z</time>
      </trkpt>
      <trkpt lat="45.32485" lon="6.23003">
        <ele>1534.4959716797</ele>
        <time>2017-02-25T09:36:07Z</time>
      </trkpt>
      <trkpt lat="45.32483" lon="6.22994">
        <ele>1539.4959716797</ele>
        <time>2017-02-25T09:36:13Z</time>
      </trkpt>
      <trkpt lat="45.32485" lon="6.22988">
        <ele>1539.4959716797</ele>
        <time>2017-02-25T09:36:18Z</time>
      </trkpt>
      <trkpt lat="45.32482" lon="6.22982">
        <ele>1536.4959716797</ele>
        <time>2017-02-25T09:36:24Z</time>
      </trkpt>
      <trkpt lat="45.32482" lon="6.22974">
        <ele>1538.4959716797</ele>
        <time>2017-02-25T09:36:29Z</time>
      </trkpt>
      <trkpt lat="45.32478" lon="6.2297">
        <ele>1545.4959716797</ele>
        <time>2017-02-25T09:36:46Z</time>
      </trkpt>
      <trkpt lat="45.32473" lon="6.22969">
        <ele>1545.4959716797</ele>
        <time>2017-02-25T09:36:51Z</time>
      </trkpt>
      <trkpt lat="45.32469" lon="6.22965">
        <ele>1544.4959716797</ele>
        <time>2017-02-25T09:36:55Z</time>
      </trkpt>
      <trkpt lat="45.32465" lon="6.22969">
        <ele>1547.4959716797</ele>
        <time>2017-02-25T09:37:12Z</time>
      </trkpt>
      <trkpt lat="45.32462" lon="6.22974">
        <ele>1548.4959716797</ele>
        <time>2017-02-25T09:37:20Z</time>
      </trkpt>
      <trkpt lat="45.32458" lon="6.22972">
        <ele>1551.4959716797</ele>
        <time>2017-02-25T09:37:30Z</time>
      </trkpt>
      <trkpt lat="45.32455" lon="6.22965">
        <ele>1551.4959716797</ele>
        <time>2017-02-25T09:37:33Z</time>
      </trkpt>
      <trkpt lat="45.32454" lon="6.22957">
        <ele>1550.4959716797</ele>
        <time>2017-02-25T09:37:37Z</time>
      </trkpt>
      <trkpt lat="45.32454" lon="6.2295">
        <ele>1550.4959716797</ele>
        <time>2017-02-25T09:37:43Z</time>
      </trkpt>
      <trkpt lat="45.32456" lon="6.22943">
        <ele>1550.4959716797</ele>
        <time>2017-02-25T09:37:47Z</time>
      </trkpt>
      <trkpt lat="45.32454" lon="6.22935">
        <ele>1553.4959716797</ele>
        <time>2017-02-25T09:37:53Z</time>
      </trkpt>
      <trkpt lat="45.32454" lon="6.22928">
        <ele>1551.4959716797</ele>
        <time>2017-02-25T09:38:00Z</time>
      </trkpt>
      <trkpt lat="45.32453" lon="6.2292">
        <ele>1551.4959716797</ele>
        <time>2017-02-25T09:38:04Z</time>
      </trkpt>
      <trkpt lat="45.3245" lon="6.22907">
        <ele>1554.4959716797</ele>
        <time>2017-02-25T09:38:13Z</time>
      </trkpt>
      <trkpt lat="45.32449" lon="6.229">
        <ele>1554.4959716797</ele>
        <time>2017-02-25T09:38:17Z</time>
      </trkpt>
      <trkpt lat="45.32451" lon="6.22894">
        <ele>1551.4959716797</ele>
        <time>2017-02-25T09:38:22Z</time>
      </trkpt>
      <trkpt lat="45.32451" lon="6.22886">
        <ele>1550.4959716797</ele>
        <time>2017-02-25T09:38:27Z</time>
      </trkpt>
      <trkpt lat="45.32452" lon="6.22877">
        <ele>1552.4959716797</ele>
        <time>2017-02-25T09:38:32Z</time>
      </trkpt>
      <trkpt lat="45.3245" lon="6.22871">
        <ele>1553.4949951172</ele>
        <time>2017-02-25T09:38:36Z</time>
      </trkpt>
      <trkpt lat="45.32452" lon="6.22865">
        <ele>1555.4949951172</ele>
        <time>2017-02-25T09:38:40Z</time>
      </trkpt>
      <trkpt lat="45.3245" lon="6.22858">
        <ele>1557.4949951172</ele>
        <time>2017-02-25T09:38:45Z</time>
      </trkpt>
      <trkpt lat="45.32448" lon="6.22851">
        <ele>1557.4949951172</ele>
        <time>2017-02-25T09:38:49Z</time>
      </trkpt>
      <trkpt lat="45.32447" lon="6.22844">
        <ele>1560.4949951172</ele>
        <time>2017-02-25T09:38:55Z</time>
      </trkpt>
      <trkpt lat="45.32444" lon="6.22838">
        <ele>1562.4949951172</ele>
        <time>2017-02-25T09:38:59Z</time>
      </trkpt>
      <trkpt lat="45.32443" lon="6.22831">
        <ele>1563.4949951172</ele>
        <time>2017-02-25T09:39:03Z</time>
      </trkpt>
      <trkpt lat="45.3244" lon="6.22824">
        <ele>1565.4949951172</ele>
        <time>2017-02-25T09:39:09Z</time>
      </trkpt>
      <trkpt lat="45.32438" lon="6.22817">
        <ele>1567.4949951172</ele>
        <time>2017-02-25T09:39:14Z</time>
      </trkpt>
      <trkpt lat="45.32438" lon="6.22811">
        <ele>1568.4949951172</ele>
        <time>2017-02-25T09:39:22Z</time>
      </trkpt>
      <trkpt lat="45.32439" lon="6.22803">
        <ele>1570.4949951172</ele>
        <time>2017-02-25T09:39:26Z</time>
      </trkpt>
      <trkpt lat="45.3244" lon="6.22795">
        <ele>1569.4949951172</ele>
        <time>2017-02-25T09:39:31Z</time>
      </trkpt>
      <trkpt lat="45.32442" lon="6.22788">
        <ele>1570.4949951172</ele>
        <time>2017-02-25T09:39:35Z</time>
      </trkpt>
      <trkpt lat="45.32439" lon="6.22781">
        <ele>1570.4949951172</ele>
        <time>2017-02-25T09:39:43Z</time>
      </trkpt>
      <trkpt lat="45.32438" lon="6.22774">
        <ele>1569.4949951172</ele>
        <time>2017-02-25T09:39:48Z</time>
      </trkpt>
      <trkpt lat="45.32437" lon="6.22768">
        <ele>1573.4949951172</ele>
        <time>2017-02-25T09:39:58Z</time>
      </trkpt>
      <trkpt lat="45.32434" lon="6.22762">
        <ele>1573.4949951172</ele>
        <time>2017-02-25T09:40:01Z</time>
      </trkpt>
      <trkpt lat="45.32429" lon="6.22761">
        <ele>1572.4949951172</ele>
        <time>2017-02-25T09:40:11Z</time>
      </trkpt>
      <trkpt lat="45.32423" lon="6.22758">
        <ele>1572.4949951172</ele>
        <time>2017-02-25T09:40:15Z</time>
      </trkpt>
      <trkpt lat="45.32419" lon="6.22763">
        <ele>1577.4949951172</ele>
        <time>2017-02-25T09:40:24Z</time>
      </trkpt>
      <trkpt lat="45.32416" lon="6.22769">
        <ele>1579.4949951172</ele>
        <time>2017-02-25T09:40:35Z</time>
      </trkpt>
      <trkpt lat="45.32413" lon="6.22775">
        <ele>1582.4949951172</ele>
        <time>2017-02-25T09:40:46Z</time>
      </trkpt>
      <trkpt lat="45.3241" lon="6.22779">
        <ele>1584.4949951172</ele>
        <time>2017-02-25T09:40:53Z</time>
      </trkpt>
      <trkpt lat="45.32408" lon="6.22786">
        <ele>1582.4949951172</ele>
        <time>2017-02-25T09:40:58Z</time>
      </trkpt>
      <trkpt lat="45.32408" lon="6.22793">
        <ele>1582.4949951172</ele>
        <time>2017-02-25T09:41:04Z</time>
      </trkpt>
      <trkpt lat="45.32405" lon="6.22799">
        <ele>1583.4949951172</ele>
        <time>2017-02-25T09:41:07Z</time>
      </trkpt>
      <trkpt lat="45.32402" lon="6.22805">
        <ele>1585.4949951172</ele>
        <time>2017-02-25T09:41:11Z</time>
      </trkpt>
      <trkpt lat="45.32402" lon="6.22812">
        <ele>1588.4949951172</ele>
        <time>2017-02-25T09:41:14Z</time>
      </trkpt>
      <trkpt lat="45.32403" lon="6.22818">
        <ele>1590.4949951172</ele>
        <time>2017-02-25T09:41:19Z</time>
      </trkpt>
      <trkpt lat="45.32403" lon="6.22826">
        <ele>1590.4949951172</ele>
        <time>2017-02-25T09:41:25Z</time>
      </trkpt>
      <trkpt lat="45.32402" lon="6.22834">
        <ele>1592.4949951172</ele>
        <time>2017-02-25T09:41:28Z</time>
      </trkpt>
      <trkpt lat="45.324" lon="6.22839">
        <ele>1589.4949951172</ele>
        <time>2017-02-25T09:41:32Z</time>
      </trkpt>
      <trkpt lat="45.32401" lon="6.22847">
        <ele>1588.4949951172</ele>
        <time>2017-02-25T09:41:37Z</time>
      </trkpt>
      <trkpt lat="45.32398" lon="6.22853">
        <ele>1591.4949951172</ele>
        <time>2017-02-25T09:41:41Z</time>
      </trkpt>
      <trkpt lat="45.32397" lon="6.2286">
        <ele>1592.4949951172</ele>
        <time>2017-02-25T09:41:45Z</time>
      </trkpt>
      <trkpt lat="45.32395" lon="6.22866">
        <ele>1590.4949951172</ele>
        <time>2017-02-25T09:41:49Z</time>
      </trkpt>
      <trkpt lat="45.32396" lon="6.22873">
        <ele>1592.4949951172</ele>
        <time>2017-02-25T09:41:54Z</time>
      </trkpt>
      <trkpt lat="45.32394" lon="6.22879">
        <ele>1593.4949951172</ele>
        <time>2017-02-25T09:41:57Z</time>
      </trkpt>
      <trkpt lat="45.32394" lon="6.22886">
        <ele>1593.4949951172</ele>
        <time>2017-02-25T09:42:05Z</time>
      </trkpt>
      <trkpt lat="45.32392" lon="6.22893">
        <ele>1593.4949951172</ele>
        <time>2017-02-25T09:42:09Z</time>
      </trkpt>
      <trkpt lat="45.32389" lon="6.22899">
        <ele>1592.4949951172</ele>
        <time>2017-02-25T09:42:13Z</time>
      </trkpt>
      <trkpt lat="45.32393" lon="6.22907">
        <ele>1592.4949951172</ele>
        <time>2017-02-25T09:42:19Z</time>
      </trkpt>
      <trkpt lat="45.32389" lon="6.22915">
        <ele>1593.4949951172</ele>
        <time>2017-02-25T09:42:25Z</time>
      </trkpt>
      <trkpt lat="45.32388" lon="6.22922">
        <ele>1594.4949951172</ele>
        <time>2017-02-25T09:42:30Z</time>
      </trkpt>
      <trkpt lat="45.32383" lon="6.22927">
        <ele>1593.4949951172</ele>
        <time>2017-02-25T09:42:34Z</time>
      </trkpt>
      <trkpt lat="45.32386" lon="6.22935">
        <ele>1597.4949951172</ele>
        <time>2017-02-25T09:42:38Z</time>
      </trkpt>
      <trkpt lat="45.32385" lon="6.22942">
        <ele>1600.4949951172</ele>
        <time>2017-02-25T09:42:43Z</time>
      </trkpt>
      <trkpt lat="45.32384" lon="6.22949">
        <ele>1600.4949951172</ele>
        <time>2017-02-25T09:42:47Z</time>
      </trkpt>
      <trkpt lat="45.32379" lon="6.22952">
        <ele>1602.4949951172</ele>
        <time>2017-02-25T09:42:55Z</time>
      </trkpt>
      <trkpt lat="45.32375" lon="6.22947">
        <ele>1603.4949951172</ele>
        <time>2017-02-25T09:43:00Z</time>
      </trkpt>
      <trkpt lat="45.32372" lon="6.2294">
        <ele>1602.4949951172</ele>
        <time>2017-02-25T09:43:05Z</time>
      </trkpt>
      <trkpt lat="45.32373" lon="6.22934">
        <ele>1600.4949951172</ele>
        <time>2017-02-25T09:43:08Z</time>
      </trkpt>
      <trkpt lat="45.32374" lon="6.22927">
        <ele>1601.4949951172</ele>
        <time>2017-02-25T09:43:16Z</time>
      </trkpt>
      <trkpt lat="45.32374" lon="6.22919">
        <ele>1603.4949951172</ele>
        <time>2017-02-25T09:43:23Z</time>
      </trkpt>
      <trkpt lat="45.32377" lon="6.22914">
        <ele>1605.4949951172</ele>
        <time>2017-02-25T09:43:26Z</time>
      </trkpt>
      <trkpt lat="45.32378" lon="6.22906">
        <ele>1605.4949951172</ele>
        <time>2017-02-25T09:43:33Z</time>
      </trkpt>
      <trkpt lat="45.32376" lon="6.229">
        <ele>1606.4949951172</ele>
        <time>2017-02-25T09:43:37Z</time>
      </trkpt>
      <trkpt lat="45.32374" lon="6.22893">
        <ele>1606.4949951172</ele>
        <time>2017-02-25T09:43:41Z</time>
      </trkpt>
      <trkpt lat="45.3237" lon="6.22887">
        <ele>1606.4949951172</ele>
        <time>2017-02-25T09:43:46Z</time>
      </trkpt>
      <trkpt lat="45.32371" lon="6.2288">
        <ele>1609.4949951172</ele>
        <time>2017-02-25T09:43:51Z</time>
      </trkpt>
      <trkpt lat="45.32369" lon="6.22871">
        <ele>1609.4949951172</ele>
        <time>2017-02-25T09:43:56Z</time>
      </trkpt>
      <trkpt lat="45.32368" lon="6.22864">
        <ele>1609.4949951172</ele>
        <time>2017-02-25T09:44:00Z</time>
      </trkpt>
      <trkpt lat="45.32368" lon="6.22857">
        <ele>1612.4949951172</ele>
        <time>2017-02-25T09:44:04Z</time>
      </trkpt>
      <trkpt lat="45.32368" lon="6.2285">
        <ele>1612.4949951172</ele>
        <time>2017-02-25T09:44:08Z</time>
      </trkpt>
      <trkpt lat="45.32365" lon="6.22845">
        <ele>1612.4949951172</ele>
        <time>2017-02-25T09:44:11Z</time>
      </trkpt>
      <trkpt lat="45.32362" lon="6.22838">
        <ele>1613.4949951172</ele>
        <time>2017-02-25T09:44:16Z</time>
      </trkpt>
      <trkpt lat="45.32361" lon="6.2283">
        <ele>1613.4949951172</ele>
        <time>2017-02-25T09:44:20Z</time>
      </trkpt>
      <trkpt lat="45.3236" lon="6.22821">
        <ele>1613.4949951172</ele>
        <time>2017-02-25T09:44:27Z</time>
      </trkpt>
      <trkpt lat="45.32361" lon="6.22814">
        <ele>1613.4949951172</ele>
        <time>2017-02-25T09:44:32Z</time>
      </trkpt>
      <trkpt lat="45.3236" lon="6.22807">
        <ele>1614.4949951172</ele>
        <time>2017-02-25T09:44:36Z</time>
      </trkpt>
      <trkpt lat="45.3236" lon="6.228">
        <ele>1616.4949951172</ele>
        <time>2017-02-25T09:44:41Z</time>
      </trkpt>
      <trkpt lat="45.3236" lon="6.22794">
        <ele>1617.4949951172</ele>
        <time>2017-02-25T09:44:45Z</time>
      </trkpt>
      <trkpt lat="45.32359" lon="6.22787">
        <ele>1616.4949951172</ele>
        <time>2017-02-25T09:44:50Z</time>
      </trkpt>
      <trkpt lat="45.32358" lon="6.22779">
        <ele>1617.4949951172</ele>
        <time>2017-02-25T09:44:56Z</time>
      </trkpt>
      <trkpt lat="45.32357" lon="6.22771">
        <ele>1620.4949951172</ele>
        <time>2017-02-25T09:45:02Z</time>
      </trkpt>
      <trkpt lat="45.32355" lon="6.22766">
        <ele>1619.4949951172</ele>
        <time>2017-02-25T09:45:08Z</time>
      </trkpt>
      <trkpt lat="45.32354" lon="6.2276">
        <ele>1621.4949951172</ele>
        <time>2017-02-25T09:45:12Z</time>
      </trkpt>
      <trkpt lat="45.32353" lon="6.22753">
        <ele>1621.4949951172</ele>
        <time>2017-02-25T09:45:16Z</time>
      </trkpt>
      <trkpt lat="45.3235" lon="6.22748">
        <ele>1618.4949951172</ele>
        <time>2017-02-25T09:45:22Z</time>
      </trkpt>
      <trkpt lat="45.32351" lon="6.2274">
        <ele>1620.4949951172</ele>
        <time>2017-02-25T09:45:26Z</time>
      </trkpt>
      <trkpt lat="45.3235" lon="6.22732">
        <ele>1623.4949951172</ele>
        <time>2017-02-25T09:45:32Z</time>
      </trkpt>
      <trkpt lat="45.32348" lon="6.22724">
        <ele>1624.4949951172</ele>
        <time>2017-02-25T09:45:36Z</time>
      </trkpt>
      <trkpt lat="45.32346" lon="6.22717">
        <ele>1620.4949951172</ele>
        <time>2017-02-25T09:45:41Z</time>
      </trkpt>
      <trkpt lat="45.32346" lon="6.22709">
        <ele>1623.4949951172</ele>
        <time>2017-02-25T09:45:48Z</time>
      </trkpt>
      <trkpt lat="45.32347" lon="6.22702">
        <ele>1625.4949951172</ele>
        <time>2017-02-25T09:45:53Z</time>
      </trkpt>
      <trkpt lat="45.32348" lon="6.22696">
        <ele>1625.4949951172</ele>
        <time>2017-02-25T09:45:56Z</time>
      </trkpt>
      <trkpt lat="45.32348" lon="6.22689">
        <ele>1623.4949951172</ele>
        <time>2017-02-25T09:46:00Z</time>
      </trkpt>
      <trkpt lat="45.32349" lon="6.22681">
        <ele>1622.4949951172</ele>
        <time>2017-02-25T09:46:04Z</time>
      </trkpt>
      <trkpt lat="45.32349" lon="6.22675">
        <ele>1628.4949951172</ele>
        <time>2017-02-25T09:46:10Z</time>
      </trkpt>
      <trkpt lat="45.32353" lon="6.22668">
        <ele>1629.4949951172</ele>
        <time>2017-02-25T09:46:14Z</time>
      </trkpt>
      <trkpt lat="45.32354" lon="6.22661">
        <ele>1630.4949951172</ele>
        <time>2017-02-25T09:46:19Z</time>
      </trkpt>
      <trkpt lat="45.32352" lon="6.22655">
        <ele>1631.4949951172</ele>
        <time>2017-02-25T09:46:22Z</time>
      </trkpt>
      <trkpt lat="45.32355" lon="6.22649">
        <ele>1630.4949951172</ele>
        <time>2017-02-25T09:46:27Z</time>
      </trkpt>
      <trkpt lat="45.32357" lon="6.22643">
        <ele>1631.4949951172</ele>
        <time>2017-02-25T09:46:32Z</time>
      </trkpt>
      <trkpt lat="45.32361" lon="6.22637">
        <ele>1631.4949951172</ele>
        <time>2017-02-25T09:46:38Z</time>
      </trkpt>
      <trkpt lat="45.32365" lon="6.22632">
        <ele>1630.4949951172</ele>
        <time>2017-02-25T09:46:41Z</time>
      </trkpt>
      <trkpt lat="45.32369" lon="6.22627">
        <ele>1633.4949951172</ele>
        <time>2017-02-25T09:46:49Z</time>
      </trkpt>
      <trkpt lat="45.32373" lon="6.22623">
        <ele>1634.4949951172</ele>
        <time>2017-02-25T09:46:53Z</time>
      </trkpt>
      <trkpt lat="45.32377" lon="6.22621">
        <ele>1635.4949951172</ele>
        <time>2017-02-25T09:46:56Z</time>
      </trkpt>
      <trkpt lat="45.32383" lon="6.22619">
        <ele>1636.4949951172</ele>
        <time>2017-02-25T09:47:00Z</time>
      </trkpt>
      <trkpt lat="45.32387" lon="6.22615">
        <ele>1635.4949951172</ele>
        <time>2017-02-25T09:47:06Z</time>
      </trkpt>
      <trkpt lat="45.32391" lon="6.22613">
        <ele>1637.4949951172</ele>
        <time>2017-02-25T09:47:10Z</time>
      </trkpt>
      <trkpt lat="45.32396" lon="6.22608">
        <ele>1634.4949951172</ele>
        <time>2017-02-25T09:47:14Z</time>
      </trkpt>
      <trkpt lat="45.32398" lon="6.22601">
        <ele>1634.4949951172</ele>
        <time>2017-02-25T09:47:18Z</time>
      </trkpt>
      <trkpt lat="45.32401" lon="6.22595">
        <ele>1635.4949951172</ele>
        <time>2017-02-25T09:47:24Z</time>
      </trkpt>
      <trkpt lat="45.32403" lon="6.22588">
        <ele>1635.4949951172</ele>
        <time>2017-02-25T09:47:29Z</time>
      </trkpt>
      <trkpt lat="45.32408" lon="6.22585">
        <ele>1637.4949951172</ele>
        <time>2017-02-25T09:47:33Z</time>
      </trkpt>
      <trkpt lat="45.32413" lon="6.2258">
        <ele>1641.4949951172</ele>
        <time>2017-02-25T09:47:39Z</time>
      </trkpt>
      <trkpt lat="45.32418" lon="6.22578">
        <ele>1644.4949951172</ele>
        <time>2017-02-25T09:47:43Z</time>
      </trkpt>
      <trkpt lat="45.32422" lon="6.22574">
        <ele>1643.4949951172</ele>
        <time>2017-02-25T09:47:49Z</time>
      </trkpt>
      <trkpt lat="45.32426" lon="6.2257">
        <ele>1643.4949951172</ele>
        <time>2017-02-25T09:47:53Z</time>
      </trkpt>
      <trkpt lat="45.32432" lon="6.22565">
        <ele>1646.4949951172</ele>
        <time>2017-02-25T09:47:59Z</time>
      </trkpt>
      <trkpt lat="45.32437" lon="6.22561">
        <ele>1650.4949951172</ele>
        <time>2017-02-25T09:48:06Z</time>
      </trkpt>
      <trkpt lat="45.32441" lon="6.22559">
        <ele>1654.4949951172</ele>
        <time>2017-02-25T09:48:10Z</time>
      </trkpt>
      <trkpt lat="45.32443" lon="6.22553">
        <ele>1651.4949951172</ele>
        <time>2017-02-25T09:48:16Z</time>
      </trkpt>
      <trkpt lat="45.32446" lon="6.22548">
        <ele>1652.4949951172</ele>
        <time>2017-02-25T09:48:21Z</time>
      </trkpt>
      <trkpt lat="45.3245" lon="6.22542">
        <ele>1651.4949951172</ele>
        <time>2017-02-25T09:48:25Z</time>
      </trkpt>
      <trkpt lat="45.32452" lon="6.22536">
        <ele>1648.4949951172</ele>
        <time>2017-02-25T09:48:31Z</time>
      </trkpt>
      <trkpt lat="45.32457" lon="6.22533">
        <ele>1650.4949951172</ele>
        <time>2017-02-25T09:48:37Z</time>
      </trkpt>
      <trkpt lat="45.32463" lon="6.2253">
        <ele>1652.4949951172</ele>
        <time>2017-02-25T09:48:43Z</time>
      </trkpt>
      <trkpt lat="45.32468" lon="6.22529">
        <ele>1652.4949951172</ele>
        <time>2017-02-25T09:48:48Z</time>
      </trkpt>
      <trkpt lat="45.32473" lon="6.22529">
        <ele>1657.4949951172</ele>
        <time>2017-02-25T09:48:54Z</time>
      </trkpt>
      <trkpt lat="45.32473" lon="6.22521">
        <ele>1656.4949951172</ele>
        <time>2017-02-25T09:49:01Z</time>
      </trkpt>
      <trkpt lat="45.3247" lon="6.22515">
        <ele>1656.4949951172</ele>
        <time>2017-02-25T09:49:06Z</time>
      </trkpt>
      <trkpt lat="45.32465" lon="6.22514">
        <ele>1659.4949951172</ele>
        <time>2017-02-25T09:49:16Z</time>
      </trkpt>
      <trkpt lat="45.3246" lon="6.22514">
        <ele>1661.4949951172</ele>
        <time>2017-02-25T09:49:23Z</time>
      </trkpt>
      <trkpt lat="45.32456" lon="6.22511">
        <ele>1662.4949951172</ele>
        <time>2017-02-25T09:49:29Z</time>
      </trkpt>
      <trkpt lat="45.32451" lon="6.22511">
        <ele>1665.4949951172</ele>
        <time>2017-02-25T09:49:35Z</time>
      </trkpt>
      <trkpt lat="45.32446" lon="6.22507">
        <ele>1664.4949951172</ele>
        <time>2017-02-25T09:49:39Z</time>
      </trkpt>
      <trkpt lat="45.32441" lon="6.22504">
        <ele>1666.4949951172</ele>
        <time>2017-02-25T09:49:43Z</time>
      </trkpt>
      <trkpt lat="45.32436" lon="6.22504">
        <ele>1665.4949951172</ele>
        <time>2017-02-25T09:49:46Z</time>
      </trkpt>
      <trkpt lat="45.3243" lon="6.22505">
        <ele>1662.4949951172</ele>
        <time>2017-02-25T09:49:49Z</time>
      </trkpt>
      <trkpt lat="45.32425" lon="6.22508">
        <ele>1662.4949951172</ele>
        <time>2017-02-25T09:49:57Z</time>
      </trkpt>
      <trkpt lat="45.32418" lon="6.22508">
        <ele>1664.4949951172</ele>
        <time>2017-02-25T09:50:03Z</time>
      </trkpt>
      <trkpt lat="45.32413" lon="6.22508">
        <ele>1664.4949951172</ele>
        <time>2017-02-25T09:50:09Z</time>
      </trkpt>
      <trkpt lat="45.32409" lon="6.22511">
        <ele>1663.4949951172</ele>
        <time>2017-02-25T09:50:13Z</time>
      </trkpt>
      <trkpt lat="45.32405" lon="6.22515">
        <ele>1666.4949951172</ele>
        <time>2017-02-25T09:50:18Z</time>
      </trkpt>
      <trkpt lat="45.324" lon="6.22517">
        <ele>1670.4949951172</ele>
        <time>2017-02-25T09:50:24Z</time>
      </trkpt>
      <trkpt lat="45.32396" lon="6.22521">
        <ele>1670.4949951172</ele>
        <time>2017-02-25T09:50:29Z</time>
      </trkpt>
      <trkpt lat="45.32391" lon="6.2252">
        <ele>1668.4949951172</ele>
        <time>2017-02-25T09:50:37Z</time>
      </trkpt>
      <trkpt lat="45.3239" lon="6.22513">
        <ele>1671.4949951172</ele>
        <time>2017-02-25T09:50:43Z</time>
      </trkpt>
      <trkpt lat="45.32386" lon="6.22508">
        <ele>1671.4949951172</ele>
        <time>2017-02-25T09:50:48Z</time>
      </trkpt>
      <trkpt lat="45.32387" lon="6.22501">
        <ele>1673.4949951172</ele>
        <time>2017-02-25T09:50:56Z</time>
      </trkpt>
      <trkpt lat="45.3239" lon="6.22496">
        <ele>1675.4949951172</ele>
        <time>2017-02-25T09:51:03Z</time>
      </trkpt>
      <trkpt lat="45.32394" lon="6.22493">
        <ele>1681.4949951172</ele>
        <time>2017-02-25T09:51:11Z</time>
      </trkpt>
      <trkpt lat="45.32398" lon="6.22487">
        <ele>1680.4949951172</ele>
        <time>2017-02-25T09:51:18Z</time>
      </trkpt>
      <trkpt lat="45.32401" lon="6.22481">
        <ele>1680.4949951172</ele>
        <time>2017-02-25T09:51:23Z</time>
      </trkpt>
      <trkpt lat="45.32402" lon="6.22473">
        <ele>1683.4949951172</ele>
        <time>2017-02-25T09:51:31Z</time>
      </trkpt>
      <trkpt lat="45.324" lon="6.22466">
        <ele>1680.4949951172</ele>
        <time>2017-02-25T09:51:35Z</time>
      </trkpt>
      <trkpt lat="45.32405" lon="6.22463">
        <ele>1680.4949951172</ele>
        <time>2017-02-25T09:51:40Z</time>
      </trkpt>
      <trkpt lat="45.32408" lon="6.22457">
        <ele>1682.4949951172</ele>
        <time>2017-02-25T09:51:48Z</time>
      </trkpt>
      <trkpt lat="45.32408" lon="6.22451">
        <ele>1682.4949951172</ele>
        <time>2017-02-25T09:51:55Z</time>
      </trkpt>
      <trkpt lat="45.32408" lon="6.22443">
        <ele>1682.4949951172</ele>
        <time>2017-02-25T09:52:05Z</time>
      </trkpt>
      <trkpt lat="45.32407" lon="6.22436">
        <ele>1681.4949951172</ele>
        <time>2017-02-25T09:52:09Z</time>
      </trkpt>
      <trkpt lat="45.32411" lon="6.22431">
        <ele>1683.4949951172</ele>
        <time>2017-02-25T09:52:13Z</time>
      </trkpt>
      <trkpt lat="45.32416" lon="6.22426">
        <ele>1686.4949951172</ele>
        <time>2017-02-25T09:52:18Z</time>
      </trkpt>
      <trkpt lat="45.3242" lon="6.22423">
        <ele>1687.4949951172</ele>
        <time>2017-02-25T09:52:23Z</time>
      </trkpt>
      <trkpt lat="45.32425" lon="6.22422">
        <ele>1688.4949951172</ele>
        <time>2017-02-25T09:52:29Z</time>
      </trkpt>
      <trkpt lat="45.3243" lon="6.22419">
        <ele>1688.4949951172</ele>
        <time>2017-02-25T09:52:34Z</time>
      </trkpt>
      <trkpt lat="45.32434" lon="6.22417">
        <ele>1689.4949951172</ele>
        <time>2017-02-25T09:52:38Z</time>
      </trkpt>
      <trkpt lat="45.32439" lon="6.22412">
        <ele>1689.4949951172</ele>
        <time>2017-02-25T09:52:45Z</time>
      </trkpt>
      <trkpt lat="45.32443" lon="6.22409">
        <ele>1688.4949951172</ele>
        <time>2017-02-25T09:52:50Z</time>
      </trkpt>
      <trkpt lat="45.32447" lon="6.22406">
        <ele>1692.4949951172</ele>
        <time>2017-02-25T09:52:56Z</time>
      </trkpt>
      <trkpt lat="45.3245" lon="6.22399">
        <ele>1691.4949951172</ele>
        <time>2017-02-25T09:53:02Z</time>
      </trkpt>
      <trkpt lat="45.32448" lon="6.22394">
        <ele>1695.4949951172</ele>
        <time>2017-02-25T09:53:09Z</time>
      </trkpt>
      <trkpt lat="45.32443" lon="6.22395">
        <ele>1696.4949951172</ele>
        <time>2017-02-25T09:53:14Z</time>
      </trkpt>
      <trkpt lat="45.32438" lon="6.22395">
        <ele>1698.4949951172</ele>
        <time>2017-02-25T09:53:19Z</time>
      </trkpt>
      <trkpt lat="45.32431" lon="6.22395">
        <ele>1699.4949951172</ele>
        <time>2017-02-25T09:53:26Z</time>
      </trkpt>
      <trkpt lat="45.32426" lon="6.22396">
        <ele>1698.4949951172</ele>
        <time>2017-02-25T09:53:29Z</time>
      </trkpt>
      <trkpt lat="45.3242" lon="6.22397">
        <ele>1697.4949951172</ele>
        <time>2017-02-25T09:53:34Z</time>
      </trkpt>
      <trkpt lat="45.32414" lon="6.22397">
        <ele>1697.4949951172</ele>
        <time>2017-02-25T09:53:39Z</time>
      </trkpt>
      <trkpt lat="45.32413" lon="6.2239">
        <ele>1699.4949951172</ele>
        <time>2017-02-25T09:53:49Z</time>
      </trkpt>
      <trkpt lat="45.32416" lon="6.22386">
        <ele>1701.4949951172</ele>
        <time>2017-02-25T09:53:53Z</time>
      </trkpt>
      <trkpt lat="45.3242" lon="6.22383">
        <ele>1701.4949951172</ele>
        <time>2017-02-25T09:54:00Z</time>
      </trkpt>
      <trkpt lat="45.32426" lon="6.2238">
        <ele>1701.4949951172</ele>
        <time>2017-02-25T09:54:04Z</time>
      </trkpt>
      <trkpt lat="45.3243" lon="6.22377">
        <ele>1701.4949951172</ele>
        <time>2017-02-25T09:54:09Z</time>
      </trkpt>
      <trkpt lat="45.32434" lon="6.22374">
        <ele>1703.4949951172</ele>
        <time>2017-02-25T09:54:14Z</time>
      </trkpt>
      <trkpt lat="45.32438" lon="6.22369">
        <ele>1702.4949951172</ele>
        <time>2017-02-25T09:54:19Z</time>
      </trkpt>
      <trkpt lat="45.32442" lon="6.22368">
        <ele>1706.4949951172</ele>
        <time>2017-02-25T09:54:24Z</time>
      </trkpt>
      <trkpt lat="45.32445" lon="6.22362">
        <ele>1707.4949951172</ele>
        <time>2017-02-25T09:54:28Z</time>
      </trkpt>
      <trkpt lat="45.32449" lon="6.22358">
        <ele>1709.4949951172</ele>
        <time>2017-02-25T09:54:32Z</time>
      </trkpt>
      <trkpt lat="45.32451" lon="6.22352">
        <ele>1709.4949951172</ele>
        <time>2017-02-25T09:54:37Z</time>
      </trkpt>
      <trkpt lat="45.32455" lon="6.22347">
        <ele>1710.4949951172</ele>
        <time>2017-02-25T09:54:42Z</time>
      </trkpt>
      <trkpt lat="45.32457" lon="6.22341">
        <ele>1708.4949951172</ele>
        <time>2017-02-25T09:54:48Z</time>
      </trkpt>
      <trkpt lat="45.32461" lon="6.22337">
        <ele>1709.4949951172</ele>
        <time>2017-02-25T09:54:53Z</time>
      </trkpt>
      <trkpt lat="45.32466" lon="6.22334">
        <ele>1708.4949951172</ele>
        <time>2017-02-25T09:54:57Z</time>
      </trkpt>
      <trkpt lat="45.32471" lon="6.22332">
        <ele>1709.4949951172</ele>
        <time>2017-02-25T09:55:03Z</time>
      </trkpt>
      <trkpt lat="45.32476" lon="6.2233">
        <ele>1710.4949951172</ele>
        <time>2017-02-25T09:55:07Z</time>
      </trkpt>
      <trkpt lat="45.3248" lon="6.22327">
        <ele>1710.4949951172</ele>
        <time>2017-02-25T09:55:12Z</time>
      </trkpt>
      <trkpt lat="45.32484" lon="6.22323">
        <ele>1713.4949951172</ele>
        <time>2017-02-25T09:55:18Z</time>
      </trkpt>
      <trkpt lat="45.32484" lon="6.22316">
        <ele>1714.4949951172</ele>
        <time>2017-02-25T09:55:27Z</time>
      </trkpt>
      <trkpt lat="45.32482" lon="6.2231">
        <ele>1716.4949951172</ele>
        <time>2017-02-25T09:55:32Z</time>
      </trkpt>
      <trkpt lat="45.3248" lon="6.22304">
        <ele>1716.4949951172</ele>
        <time>2017-02-25T09:55:39Z</time>
      </trkpt>
      <trkpt lat="45.32478" lon="6.22297">
        <ele>1713.4949951172</ele>
        <time>2017-02-25T09:55:44Z</time>
      </trkpt>
      <trkpt lat="45.32476" lon="6.22291">
        <ele>1711.4949951172</ele>
        <time>2017-02-25T09:55:49Z</time>
      </trkpt>
      <trkpt lat="45.32474" lon="6.22285">
        <ele>1711.4949951172</ele>
        <time>2017-02-25T09:55:55Z</time>
      </trkpt>
      <trkpt lat="45.32477" lon="6.22278">
        <ele>1714.4949951172</ele>
        <time>2017-02-25T09:56:03Z</time>
      </trkpt>
      <trkpt lat="45.32475" lon="6.2227">
        <ele>1714.4949951172</ele>
        <time>2017-02-25T09:56:07Z</time>
      </trkpt>
      <trkpt lat="45.32478" lon="6.22265">
        <ele>1714.4949951172</ele>
        <time>2017-02-25T09:56:12Z</time>
      </trkpt>
      <trkpt lat="45.32482" lon="6.22259">
        <ele>1716.4949951172</ele>
        <time>2017-02-25T09:56:16Z</time>
      </trkpt>
      <trkpt lat="45.32485" lon="6.22252">
        <ele>1716.4949951172</ele>
        <time>2017-02-25T09:56:22Z</time>
      </trkpt>
      <trkpt lat="45.32485" lon="6.22245">
        <ele>1717.4949951172</ele>
        <time>2017-02-25T09:56:28Z</time>
      </trkpt>
      <trkpt lat="45.32485" lon="6.22239">
        <ele>1720.4949951172</ele>
        <time>2017-02-25T09:56:34Z</time>
      </trkpt>
      <trkpt lat="45.32486" lon="6.2223">
        <ele>1721.4949951172</ele>
        <time>2017-02-25T09:56:40Z</time>
      </trkpt>
      <trkpt lat="45.32488" lon="6.22224">
        <ele>1721.4949951172</ele>
        <time>2017-02-25T09:56:45Z</time>
      </trkpt>
      <trkpt lat="45.32489" lon="6.22217">
        <ele>1723.4949951172</ele>
        <time>2017-02-25T09:56:51Z</time>
      </trkpt>
      <trkpt lat="45.32492" lon="6.22211">
        <ele>1723.4949951172</ele>
        <time>2017-02-25T09:56:58Z</time>
      </trkpt>
      <trkpt lat="45.32493" lon="6.22204">
        <ele>1724.4949951172</ele>
        <time>2017-02-25T09:57:02Z</time>
      </trkpt>
      <trkpt lat="45.32496" lon="6.22199">
        <ele>1726.4949951172</ele>
        <time>2017-02-25T09:57:07Z</time>
      </trkpt>
      <trkpt lat="45.32498" lon="6.22193">
        <ele>1728.4949951172</ele>
        <time>2017-02-25T09:57:13Z</time>
      </trkpt>
      <trkpt lat="45.32497" lon="6.22186">
        <ele>1729.4949951172</ele>
        <time>2017-02-25T09:57:19Z</time>
      </trkpt>
      <trkpt lat="45.32496" lon="6.2218">
        <ele>1732.4949951172</ele>
        <time>2017-02-25T09:57:25Z</time>
      </trkpt>
      <trkpt lat="45.32497" lon="6.22173">
        <ele>1733.4949951172</ele>
        <time>2017-02-25T09:57:31Z</time>
      </trkpt>
      <trkpt lat="45.32499" lon="6.22167">
        <ele>1734.4949951172</ele>
        <time>2017-02-25T09:57:37Z</time>
      </trkpt>
      <trkpt lat="45.32498" lon="6.22161">
        <ele>1733.4949951172</ele>
        <time>2017-02-25T09:57:42Z</time>
      </trkpt>
      <trkpt lat="45.32499" lon="6.22154">
        <ele>1734.4949951172</ele>
        <time>2017-02-25T09:57:48Z</time>
      </trkpt>
      <trkpt lat="45.325" lon="6.22147">
        <ele>1736.4949951172</ele>
        <time>2017-02-25T09:57:55Z</time>
      </trkpt>
      <trkpt lat="45.325" lon="6.22139">
        <ele>1735.4949951172</ele>
        <time>2017-02-25T09:58:03Z</time>
      </trkpt>
      <trkpt lat="45.32502" lon="6.22133">
        <ele>1734.4949951172</ele>
        <time>2017-02-25T09:58:09Z</time>
      </trkpt>
      <trkpt lat="45.32503" lon="6.22126">
        <ele>1734.4949951172</ele>
        <time>2017-02-25T09:58:17Z</time>
      </trkpt>
      <trkpt lat="45.32501" lon="6.22119">
        <ele>1736.4949951172</ele>
        <time>2017-02-25T09:58:23Z</time>
      </trkpt>
      <trkpt lat="45.32505" lon="6.22111">
        <ele>1734.4949951172</ele>
        <time>2017-02-25T09:58:31Z</time>
      </trkpt>
      <trkpt lat="45.32505" lon="6.22105">
        <ele>1737.4949951172</ele>
        <time>2017-02-25T09:58:40Z</time>
      </trkpt>
      <trkpt lat="45.32508" lon="6.22099">
        <ele>1737.4949951172</ele>
        <time>2017-02-25T09:58:47Z</time>
      </trkpt>
      <trkpt lat="45.32507" lon="6.22093">
        <ele>1741.4949951172</ele>
        <time>2017-02-25T09:58:51Z</time>
      </trkpt>
      <trkpt lat="45.32509" lon="6.22087">
        <ele>1739.4949951172</ele>
        <time>2017-02-25T09:58:58Z</time>
      </trkpt>
      <trkpt lat="45.32513" lon="6.22082">
        <ele>1737.4949951172</ele>
        <time>2017-02-25T09:59:07Z</time>
      </trkpt>
      <trkpt lat="45.32515" lon="6.22075">
        <ele>1737.4949951172</ele>
        <time>2017-02-25T09:59:12Z</time>
      </trkpt>
      <trkpt lat="45.3251" lon="6.22075">
        <ele>1743.4949951172</ele>
        <time>2017-02-25T09:59:22Z</time>
      </trkpt>
      <trkpt lat="45.32514" lon="6.22072">
        <ele>1745.4949951172</ele>
        <time>2017-02-25T09:59:54Z</time>
      </trkpt>
      <trkpt lat="45.3251" lon="6.22073">
        <ele>1753.4949951172</ele>
        <time>2017-02-25T10:00:43Z</time>
      </trkpt>
      <trkpt lat="45.32511" lon="6.22067">
        <ele>1747.4949951172</ele>
        <time>2017-02-25T10:03:08Z</time>
      </trkpt>
      <trkpt lat="45.32514" lon="6.22062">
        <ele>1746.4949951172</ele>
        <time>2017-02-25T10:03:12Z</time>
      </trkpt>
      <trkpt lat="45.32516" lon="6.22055">
        <ele>1744.4949951172</ele>
        <time>2017-02-25T10:03:16Z</time>
      </trkpt>
      <trkpt lat="45.32518" lon="6.22049">
        <ele>1743.4949951172</ele>
        <time>2017-02-25T10:03:20Z</time>
      </trkpt>
      <trkpt lat="45.32517" lon="6.22041">
        <ele>1744.4949951172</ele>
        <time>2017-02-25T10:03:24Z</time>
      </trkpt>
      <trkpt lat="45.32517" lon="6.22033">
        <ele>1742.4949951172</ele>
        <time>2017-02-25T10:03:28Z</time>
      </trkpt>
      <trkpt lat="45.3252" lon="6.22028">
        <ele>1742.4949951172</ele>
        <time>2017-02-25T10:03:31Z</time>
      </trkpt>
      <trkpt lat="45.32521" lon="6.2202">
        <ele>1743.4940185547</ele>
        <time>2017-02-25T10:03:35Z</time>
      </trkpt>
      <trkpt lat="45.32523" lon="6.22014">
        <ele>1742.4940185547</ele>
        <time>2017-02-25T10:03:39Z</time>
      </trkpt>
      <trkpt lat="45.3252" lon="6.22008">
        <ele>1740.4940185547</ele>
        <time>2017-02-25T10:03:43Z</time>
      </trkpt>
      <trkpt lat="45.32519" lon="6.22001">
        <ele>1744.4940185547</ele>
        <time>2017-02-25T10:03:48Z</time>
      </trkpt>
      <trkpt lat="45.32522" lon="6.21995">
        <ele>1742.4940185547</ele>
        <time>2017-02-25T10:03:51Z</time>
      </trkpt>
      <trkpt lat="45.32521" lon="6.21987">
        <ele>1741.4940185547</ele>
        <time>2017-02-25T10:03:56Z</time>
      </trkpt>
      <trkpt lat="45.32521" lon="6.2198">
        <ele>1742.4940185547</ele>
        <time>2017-02-25T10:04:00Z</time>
      </trkpt>
      <trkpt lat="45.32519" lon="6.21972">
        <ele>1742.4940185547</ele>
        <time>2017-02-25T10:04:05Z</time>
      </trkpt>
      <trkpt lat="45.3252" lon="6.21964">
        <ele>1744.4940185547</ele>
        <time>2017-02-25T10:04:08Z</time>
      </trkpt>
      <trkpt lat="45.3252" lon="6.21958">
        <ele>1746.4940185547</ele>
        <time>2017-02-25T10:04:11Z</time>
      </trkpt>
      <trkpt lat="45.32524" lon="6.21952">
        <ele>1746.4940185547</ele>
        <time>2017-02-25T10:04:14Z</time>
      </trkpt>
      <trkpt lat="45.32524" lon="6.21944">
        <ele>1746.4940185547</ele>
        <time>2017-02-25T10:04:17Z</time>
      </trkpt>
      <trkpt lat="45.32526" lon="6.21938">
        <ele>1748.4940185547</ele>
        <time>2017-02-25T10:04:21Z</time>
      </trkpt>
      <trkpt lat="45.32528" lon="6.21932">
        <ele>1746.4940185547</ele>
        <time>2017-02-25T10:04:25Z</time>
      </trkpt>
      <trkpt lat="45.32531" lon="6.21924">
        <ele>1748.4940185547</ele>
        <time>2017-02-25T10:04:28Z</time>
      </trkpt>
      <trkpt lat="45.32531" lon="6.21917">
        <ele>1749.4940185547</ele>
        <time>2017-02-25T10:04:32Z</time>
      </trkpt>
      <trkpt lat="45.32529" lon="6.21909">
        <ele>1747.4940185547</ele>
        <time>2017-02-25T10:04:37Z</time>
      </trkpt>
      <trkpt lat="45.32529" lon="6.21902">
        <ele>1747.4940185547</ele>
        <time>2017-02-25T10:04:41Z</time>
      </trkpt>
      <trkpt lat="45.3253" lon="6.21894">
        <ele>1745.4940185547</ele>
        <time>2017-02-25T10:04:46Z</time>
      </trkpt>
      <trkpt lat="45.32533" lon="6.21887">
        <ele>1745.4940185547</ele>
        <time>2017-02-25T10:04:50Z</time>
      </trkpt>
      <trkpt lat="45.32535" lon="6.21881">
        <ele>1746.4940185547</ele>
        <time>2017-02-25T10:04:55Z</time>
      </trkpt>
      <trkpt lat="45.32536" lon="6.21873">
        <ele>1743.4940185547</ele>
        <time>2017-02-25T10:04:58Z</time>
      </trkpt>
      <trkpt lat="45.32536" lon="6.21867">
        <ele>1741.4940185547</ele>
        <time>2017-02-25T10:05:04Z</time>
      </trkpt>
      <trkpt lat="45.32533" lon="6.21862">
        <ele>1743.4940185547</ele>
        <time>2017-02-25T10:05:10Z</time>
      </trkpt>
      <trkpt lat="45.32533" lon="6.21855">
        <ele>1741.4940185547</ele>
        <time>2017-02-25T10:05:15Z</time>
      </trkpt>
      <trkpt lat="45.32534" lon="6.21849">
        <ele>1746.4940185547</ele>
        <time>2017-02-25T10:05:21Z</time>
      </trkpt>
      <trkpt lat="45.32535" lon="6.2184">
        <ele>1746.4940185547</ele>
        <time>2017-02-25T10:05:30Z</time>
      </trkpt>
      <trkpt lat="45.32537" lon="6.21833">
        <ele>1746.4940185547</ele>
        <time>2017-02-25T10:05:34Z</time>
      </trkpt>
      <trkpt lat="45.3254" lon="6.21827">
        <ele>1745.4940185547</ele>
        <time>2017-02-25T10:05:39Z</time>
      </trkpt>
      <trkpt lat="45.32541" lon="6.2182">
        <ele>1745.4940185547</ele>
        <time>2017-02-25T10:05:44Z</time>
      </trkpt>
      <trkpt lat="45.32543" lon="6.21814">
        <ele>1742.4940185547</ele>
        <time>2017-02-25T10:05:50Z</time>
      </trkpt>
      <trkpt lat="45.32545" lon="6.21808">
        <ele>1742.4940185547</ele>
        <time>2017-02-25T10:05:54Z</time>
      </trkpt>
      <trkpt lat="45.32547" lon="6.21802">
        <ele>1744.4940185547</ele>
        <time>2017-02-25T10:05:59Z</time>
      </trkpt>
      <trkpt lat="45.32544" lon="6.21796">
        <ele>1747.4940185547</ele>
        <time>2017-02-25T10:06:03Z</time>
      </trkpt>
      <trkpt lat="45.32544" lon="6.2179">
        <ele>1748.4940185547</ele>
        <time>2017-02-25T10:06:08Z</time>
      </trkpt>
      <trkpt lat="45.32546" lon="6.21782">
        <ele>1750.4940185547</ele>
        <time>2017-02-25T10:06:13Z</time>
      </trkpt>
      <trkpt lat="45.32547" lon="6.21776">
        <ele>1755.4940185547</ele>
        <time>2017-02-25T10:06:17Z</time>
      </trkpt>
      <trkpt lat="45.32551" lon="6.21769">
        <ele>1757.4940185547</ele>
        <time>2017-02-25T10:06:22Z</time>
      </trkpt>
      <trkpt lat="45.32553" lon="6.21763">
        <ele>1758.4940185547</ele>
        <time>2017-02-25T10:06:26Z</time>
      </trkpt>
      <trkpt lat="45.32554" lon="6.21756">
        <ele>1759.4940185547</ele>
        <time>2017-02-25T10:06:31Z</time>
      </trkpt>
      <trkpt lat="45.32555" lon="6.2175">
        <ele>1758.4940185547</ele>
        <time>2017-02-25T10:06:37Z</time>
      </trkpt>
      <trkpt lat="45.32557" lon="6.21743">
        <ele>1758.4940185547</ele>
        <time>2017-02-25T10:06:42Z</time>
      </trkpt>
      <trkpt lat="45.32561" lon="6.21738">
        <ele>1760.4940185547</ele>
        <time>2017-02-25T10:06:46Z</time>
      </trkpt>
      <trkpt lat="45.32563" lon="6.21732">
        <ele>1762.4940185547</ele>
        <time>2017-02-25T10:06:54Z</time>
      </trkpt>
      <trkpt lat="45.32566" lon="6.21726">
        <ele>1767.4940185547</ele>
        <time>2017-02-25T10:07:01Z</time>
      </trkpt>
      <trkpt lat="45.32568" lon="6.21719">
        <ele>1769.4940185547</ele>
        <time>2017-02-25T10:07:08Z</time>
      </trkpt>
      <trkpt lat="45.32567" lon="6.21712">
        <ele>1770.4940185547</ele>
        <time>2017-02-25T10:07:15Z</time>
      </trkpt>
      <trkpt lat="45.3257" lon="6.21706">
        <ele>1769.4940185547</ele>
        <time>2017-02-25T10:07:20Z</time>
      </trkpt>
      <trkpt lat="45.32571" lon="6.21699">
        <ele>1769.4940185547</ele>
        <time>2017-02-25T10:07:25Z</time>
      </trkpt>
      <trkpt lat="45.32571" lon="6.21692">
        <ele>1769.4940185547</ele>
        <time>2017-02-25T10:07:30Z</time>
      </trkpt>
      <trkpt lat="45.3257" lon="6.21684">
        <ele>1771.4940185547</ele>
        <time>2017-02-25T10:07:38Z</time>
      </trkpt>
      <trkpt lat="45.32571" lon="6.21677">
        <ele>1770.4940185547</ele>
        <time>2017-02-25T10:07:42Z</time>
      </trkpt>
      <trkpt lat="45.3257" lon="6.2167">
        <ele>1770.4940185547</ele>
        <time>2017-02-25T10:07:47Z</time>
      </trkpt>
      <trkpt lat="45.32568" lon="6.21664">
        <ele>1772.4940185547</ele>
        <time>2017-02-25T10:07:53Z</time>
      </trkpt>
      <trkpt lat="45.32569" lon="6.21658">
        <ele>1771.4940185547</ele>
        <time>2017-02-25T10:07:57Z</time>
      </trkpt>
      <trkpt lat="45.32573" lon="6.2165">
        <ele>1772.4940185547</ele>
        <time>2017-02-25T10:08:00Z</time>
      </trkpt>
      <trkpt lat="45.32571" lon="6.21643">
        <ele>1770.4940185547</ele>
        <time>2017-02-25T10:08:06Z</time>
      </trkpt>
      <trkpt lat="45.32571" lon="6.21636">
        <ele>1771.4940185547</ele>
        <time>2017-02-25T10:08:09Z</time>
      </trkpt>
      <trkpt lat="45.3257" lon="6.21629">
        <ele>1772.4940185547</ele>
        <time>2017-02-25T10:08:14Z</time>
      </trkpt>
      <trkpt lat="45.32571" lon="6.21622">
        <ele>1773.4940185547</ele>
        <time>2017-02-25T10:08:17Z</time>
      </trkpt>
      <trkpt lat="45.32573" lon="6.21616">
        <ele>1773.4940185547</ele>
        <time>2017-02-25T10:08:20Z</time>
      </trkpt>
      <trkpt lat="45.32574" lon="6.21609">
        <ele>1772.4940185547</ele>
        <time>2017-02-25T10:08:23Z</time>
      </trkpt>
      <trkpt lat="45.32574" lon="6.21601">
        <ele>1774.4940185547</ele>
        <time>2017-02-25T10:08:27Z</time>
      </trkpt>
      <trkpt lat="45.32574" lon="6.21594">
        <ele>1772.4940185547</ele>
        <time>2017-02-25T10:08:30Z</time>
      </trkpt>
      <trkpt lat="45.32572" lon="6.21586">
        <ele>1775.4940185547</ele>
        <time>2017-02-25T10:08:35Z</time>
      </trkpt>
      <trkpt lat="45.32571" lon="6.2158">
        <ele>1775.4940185547</ele>
        <time>2017-02-25T10:08:39Z</time>
      </trkpt>
      <trkpt lat="45.32572" lon="6.21572">
        <ele>1774.4940185547</ele>
        <time>2017-02-25T10:08:42Z</time>
      </trkpt>
      <trkpt lat="45.32568" lon="6.21566">
        <ele>1775.4940185547</ele>
        <time>2017-02-25T10:08:46Z</time>
      </trkpt>
      <trkpt lat="45.32567" lon="6.21559">
        <ele>1773.4940185547</ele>
        <time>2017-02-25T10:08:52Z</time>
      </trkpt>
      <trkpt lat="45.32569" lon="6.21553">
        <ele>1772.4940185547</ele>
        <time>2017-02-25T10:08:58Z</time>
      </trkpt>
      <trkpt lat="45.32571" lon="6.21545">
        <ele>1769.4940185547</ele>
        <time>2017-02-25T10:09:02Z</time>
      </trkpt>
      <trkpt lat="45.32572" lon="6.21539">
        <ele>1770.4940185547</ele>
        <time>2017-02-25T10:09:07Z</time>
      </trkpt>
      <trkpt lat="45.32573" lon="6.21532">
        <ele>1768.4940185547</ele>
        <time>2017-02-25T10:09:11Z</time>
      </trkpt>
      <trkpt lat="45.32571" lon="6.21525">
        <ele>1774.4940185547</ele>
        <time>2017-02-25T10:09:17Z</time>
      </trkpt>
      <trkpt lat="45.3257" lon="6.21519">
        <ele>1774.4940185547</ele>
        <time>2017-02-25T10:09:21Z</time>
      </trkpt>
      <trkpt lat="45.32572" lon="6.21513">
        <ele>1776.4940185547</ele>
        <time>2017-02-25T10:09:25Z</time>
      </trkpt>
      <trkpt lat="45.32576" lon="6.21506">
        <ele>1776.4940185547</ele>
        <time>2017-02-25T10:09:30Z</time>
      </trkpt>
      <trkpt lat="45.32579" lon="6.215">
        <ele>1776.4940185547</ele>
        <time>2017-02-25T10:09:34Z</time>
      </trkpt>
      <trkpt lat="45.32581" lon="6.21494">
        <ele>1776.4940185547</ele>
        <time>2017-02-25T10:09:39Z</time>
      </trkpt>
      <trkpt lat="45.32581" lon="6.21487">
        <ele>1777.4940185547</ele>
        <time>2017-02-25T10:09:44Z</time>
      </trkpt>
      <trkpt lat="45.32583" lon="6.21481">
        <ele>1779.4940185547</ele>
        <time>2017-02-25T10:09:49Z</time>
      </trkpt>
      <trkpt lat="45.32585" lon="6.21474">
        <ele>1782.4940185547</ele>
        <time>2017-02-25T10:09:54Z</time>
      </trkpt>
      <trkpt lat="45.32586" lon="6.21467">
        <ele>1784.4940185547</ele>
        <time>2017-02-25T10:10:05Z</time>
      </trkpt>
      <trkpt lat="45.32588" lon="6.2146">
        <ele>1785.4940185547</ele>
        <time>2017-02-25T10:10:09Z</time>
      </trkpt>
      <trkpt lat="45.3259" lon="6.21454">
        <ele>1786.4940185547</ele>
        <time>2017-02-25T10:10:14Z</time>
      </trkpt>
      <trkpt lat="45.32591" lon="6.21447">
        <ele>1789.4940185547</ele>
        <time>2017-02-25T10:10:24Z</time>
      </trkpt>
      <trkpt lat="45.32594" lon="6.21442">
        <ele>1788.4940185547</ele>
        <time>2017-02-25T10:10:28Z</time>
      </trkpt>
      <trkpt lat="45.32596" lon="6.21436">
        <ele>1789.4940185547</ele>
        <time>2017-02-25T10:10:35Z</time>
      </trkpt>
      <trkpt lat="45.32599" lon="6.2143">
        <ele>1788.4940185547</ele>
        <time>2017-02-25T10:10:41Z</time>
      </trkpt>
      <trkpt lat="45.32602" lon="6.21424">
        <ele>1791.4940185547</ele>
        <time>2017-02-25T10:10:50Z</time>
      </trkpt>
      <trkpt lat="45.32606" lon="6.2142">
        <ele>1790.4940185547</ele>
        <time>2017-02-25T10:10:58Z</time>
      </trkpt>
      <trkpt lat="45.32608" lon="6.21414">
        <ele>1795.4940185547</ele>
        <time>2017-02-25T10:11:05Z</time>
      </trkpt>
      <trkpt lat="45.32612" lon="6.21409">
        <ele>1794.4940185547</ele>
        <time>2017-02-25T10:11:09Z</time>
      </trkpt>
      <trkpt lat="45.32616" lon="6.21404">
        <ele>1794.4940185547</ele>
        <time>2017-02-25T10:11:13Z</time>
      </trkpt>
      <trkpt lat="45.32618" lon="6.21399">
        <ele>1795.4940185547</ele>
        <time>2017-02-25T10:11:19Z</time>
      </trkpt>
      <trkpt lat="45.32621" lon="6.21393">
        <ele>1793.4940185547</ele>
        <time>2017-02-25T10:11:38Z</time>
      </trkpt>
      <trkpt lat="45.32625" lon="6.21389">
        <ele>1793.4940185547</ele>
        <time>2017-02-25T10:11:46Z</time>
      </trkpt>
      <trkpt lat="45.32627" lon="6.21383">
        <ele>1794.4940185547</ele>
        <time>2017-02-25T10:11:51Z</time>
      </trkpt>
      <trkpt lat="45.32629" lon="6.21377">
        <ele>1796.4940185547</ele>
        <time>2017-02-25T10:11:55Z</time>
      </trkpt>
      <trkpt lat="45.32633" lon="6.21371">
        <ele>1800.4940185547</ele>
        <time>2017-02-25T10:11:59Z</time>
      </trkpt>
      <trkpt lat="45.32636" lon="6.21366">
        <ele>1800.4940185547</ele>
        <time>2017-02-25T10:12:04Z</time>
      </trkpt>
      <trkpt lat="45.32639" lon="6.21361">
        <ele>1805.4940185547</ele>
        <time>2017-02-25T10:12:11Z</time>
      </trkpt>
      <trkpt lat="45.32644" lon="6.21357">
        <ele>1803.4940185547</ele>
        <time>2017-02-25T10:12:15Z</time>
      </trkpt>
      <trkpt lat="45.3265" lon="6.21355">
        <ele>1804.4940185547</ele>
        <time>2017-02-25T10:12:19Z</time>
      </trkpt>
      <trkpt lat="45.32655" lon="6.21351">
        <ele>1809.4940185547</ele>
        <time>2017-02-25T10:12:24Z</time>
      </trkpt>
      <trkpt lat="45.32656" lon="6.21344">
        <ele>1807.4940185547</ele>
        <time>2017-02-25T10:12:32Z</time>
      </trkpt>
      <trkpt lat="45.32656" lon="6.21337">
        <ele>1803.4940185547</ele>
        <time>2017-02-25T10:12:41Z</time>
      </trkpt>
      <trkpt lat="45.32652" lon="6.21334">
        <ele>1806.4940185547</ele>
        <time>2017-02-25T10:12:47Z</time>
      </trkpt>
      <trkpt lat="45.32651" lon="6.21328">
        <ele>1809.4940185547</ele>
        <time>2017-02-25T10:12:52Z</time>
      </trkpt>
      <trkpt lat="45.32652" lon="6.21321">
        <ele>1810.4940185547</ele>
        <time>2017-02-25T10:12:58Z</time>
      </trkpt>
      <trkpt lat="45.32649" lon="6.21316">
        <ele>1811.4940185547</ele>
        <time>2017-02-25T10:13:06Z</time>
      </trkpt>
      <trkpt lat="45.32651" lon="6.21309">
        <ele>1808.4940185547</ele>
        <time>2017-02-25T10:13:12Z</time>
      </trkpt>
      <trkpt lat="45.32649" lon="6.21302">
        <ele>1811.4940185547</ele>
        <time>2017-02-25T10:13:19Z</time>
      </trkpt>
      <trkpt lat="45.32645" lon="6.21299">
        <ele>1813.4940185547</ele>
        <time>2017-02-25T10:13:21Z</time>
      </trkpt>
      <trkpt lat="45.32646" lon="6.21292">
        <ele>1820.4940185547</ele>
        <time>2017-02-25T10:13:32Z</time>
      </trkpt>
      <trkpt lat="45.32647" lon="6.21285">
        <ele>1821.4940185547</ele>
        <time>2017-02-25T10:13:39Z</time>
      </trkpt>
      <trkpt lat="45.32647" lon="6.21278">
        <ele>1823.4940185547</ele>
        <time>2017-02-25T10:13:44Z</time>
      </trkpt>
      <trkpt lat="45.32651" lon="6.21272">
        <ele>1826.4940185547</ele>
        <time>2017-02-25T10:13:56Z</time>
      </trkpt>
      <trkpt lat="45.32649" lon="6.21265">
        <ele>1826.4940185547</ele>
        <time>2017-02-25T10:14:09Z</time>
      </trkpt>
      <trkpt lat="45.32646" lon="6.21261">
        <ele>1825.4940185547</ele>
        <time>2017-02-25T10:14:16Z</time>
      </trkpt>
      <trkpt lat="45.32648" lon="6.21255">
        <ele>1828.4940185547</ele>
        <time>2017-02-25T10:14:26Z</time>
      </trkpt>
      <trkpt lat="45.3265" lon="6.21249">
        <ele>1825.4940185547</ele>
        <time>2017-02-25T10:14:31Z</time>
      </trkpt>
      <trkpt lat="45.32649" lon="6.21242">
        <ele>1827.4940185547</ele>
        <time>2017-02-25T10:14:38Z</time>
      </trkpt>
      <trkpt lat="45.3265" lon="6.21236">
        <ele>1827.4940185547</ele>
        <time>2017-02-25T10:14:43Z</time>
      </trkpt>
      <trkpt lat="45.3265" lon="6.21229">
        <ele>1829.4940185547</ele>
        <time>2017-02-25T10:14:49Z</time>
      </trkpt>
      <trkpt lat="45.32647" lon="6.21222">
        <ele>1834.4940185547</ele>
        <time>2017-02-25T10:14:59Z</time>
      </trkpt>
      <trkpt lat="45.32648" lon="6.21214">
        <ele>1835.4940185547</ele>
        <time>2017-02-25T10:15:05Z</time>
      </trkpt>
      <trkpt lat="45.3265" lon="6.21207">
        <ele>1839.4940185547</ele>
        <time>2017-02-25T10:15:09Z</time>
      </trkpt>
      <trkpt lat="45.3265" lon="6.21199">
        <ele>1841.4940185547</ele>
        <time>2017-02-25T10:15:15Z</time>
      </trkpt>
      <trkpt lat="45.32653" lon="6.21193">
        <ele>1843.4940185547</ele>
        <time>2017-02-25T10:15:21Z</time>
      </trkpt>
      <trkpt lat="45.32651" lon="6.21186">
        <ele>1842.4940185547</ele>
        <time>2017-02-25T10:15:27Z</time>
      </trkpt>
      <trkpt lat="45.32649" lon="6.21179">
        <ele>1842.4940185547</ele>
        <time>2017-02-25T10:15:33Z</time>
      </trkpt>
      <trkpt lat="45.32648" lon="6.21173">
        <ele>1840.4940185547</ele>
        <time>2017-02-25T10:15:37Z</time>
      </trkpt>
      <trkpt lat="45.32646" lon="6.21165">
        <ele>1842.4940185547</ele>
        <time>2017-02-25T10:15:44Z</time>
      </trkpt>
      <trkpt lat="45.32649" lon="6.21159">
        <ele>1844.4940185547</ele>
        <time>2017-02-25T10:15:48Z</time>
      </trkpt>
      <trkpt lat="45.32651" lon="6.21153">
        <ele>1843.4940185547</ele>
        <time>2017-02-25T10:15:51Z</time>
      </trkpt>
      <trkpt lat="45.32651" lon="6.21145">
        <ele>1844.4940185547</ele>
        <time>2017-02-25T10:15:56Z</time>
      </trkpt>
      <trkpt lat="45.32653" lon="6.21138">
        <ele>1843.4940185547</ele>
        <time>2017-02-25T10:16:02Z</time>
      </trkpt>
      <trkpt lat="45.32653" lon="6.2113">
        <ele>1844.4940185547</ele>
        <time>2017-02-25T10:16:08Z</time>
      </trkpt>
      <trkpt lat="45.32654" lon="6.21124">
        <ele>1843.4940185547</ele>
        <time>2017-02-25T10:16:15Z</time>
      </trkpt>
      <trkpt lat="45.32655" lon="6.21117">
        <ele>1843.4940185547</ele>
        <time>2017-02-25T10:16:20Z</time>
      </trkpt>
      <trkpt lat="45.32657" lon="6.21111">
        <ele>1843.4940185547</ele>
        <time>2017-02-25T10:16:24Z</time>
      </trkpt>
      <trkpt lat="45.32654" lon="6.21106">
        <ele>1843.4940185547</ele>
        <time>2017-02-25T10:16:29Z</time>
      </trkpt>
      <trkpt lat="45.32654" lon="6.21099">
        <ele>1842.4940185547</ele>
        <time>2017-02-25T10:16:48Z</time>
      </trkpt>
      <trkpt lat="45.32656" lon="6.21093">
        <ele>1844.4940185547</ele>
        <time>2017-02-25T10:16:53Z</time>
      </trkpt>
      <trkpt lat="45.32659" lon="6.21087">
        <ele>1846.4940185547</ele>
        <time>2017-02-25T10:17:00Z</time>
      </trkpt>
      <trkpt lat="45.32664" lon="6.21084">
        <ele>1848.4940185547</ele>
        <time>2017-02-25T10:17:03Z</time>
      </trkpt>
      <trkpt lat="45.32668" lon="6.21079">
        <ele>1851.4940185547</ele>
        <time>2017-02-25T10:17:10Z</time>
      </trkpt>
      <trkpt lat="45.32672" lon="6.21074">
        <ele>1852.4940185547</ele>
        <time>2017-02-25T10:17:17Z</time>
      </trkpt>
      <trkpt lat="45.32675" lon="6.21069">
        <ele>1851.4940185547</ele>
        <time>2017-02-25T10:17:25Z</time>
      </trkpt>
      <trkpt lat="45.3268" lon="6.21065">
        <ele>1856.4940185547</ele>
        <time>2017-02-25T10:17:45Z</time>
      </trkpt>
      <trkpt lat="45.32672" lon="6.21065">
        <ele>1858.4940185547</ele>
        <time>2017-02-25T10:17:48Z</time>
      </trkpt>
      <trkpt lat="45.32677" lon="6.21066">
        <ele>1854.4940185547</ele>
        <time>2017-02-25T10:18:09Z</time>
      </trkpt>
      <trkpt lat="45.32672" lon="6.21065">
        <ele>1865.4940185547</ele>
        <time>2017-02-25T10:23:49Z</time>
      </trkpt>
      <trkpt lat="45.32665" lon="6.21065">
        <ele>1862.4930419922</ele>
        <time>2017-02-25T10:24:39Z</time>
      </trkpt>
      <trkpt lat="45.32664" lon="6.21072">
        <ele>1859.4930419922</ele>
        <time>2017-02-25T10:24:41Z</time>
      </trkpt>
      <trkpt lat="45.32661" lon="6.21079">
        <ele>1857.4930419922</ele>
        <time>2017-02-25T10:24:49Z</time>
      </trkpt>
      <trkpt lat="45.32655" lon="6.21093">
        <ele>1854.4940185547</ele>
        <time>2017-02-25T10:24:51Z</time>
      </trkpt>
      <trkpt lat="45.32654" lon="6.21101">
        <ele>1855.4940185547</ele>
        <time>2017-02-25T10:24:52Z</time>
      </trkpt>
      <trkpt lat="45.32652" lon="6.21118">
        <ele>1854.4940185547</ele>
        <time>2017-02-25T10:24:54Z</time>
      </trkpt>
      <trkpt lat="45.3265" lon="6.21136">
        <ele>1852.4940185547</ele>
        <time>2017-02-25T10:24:56Z</time>
      </trkpt>
      <trkpt lat="45.32645" lon="6.21154">
        <ele>1849.4940185547</ele>
        <time>2017-02-25T10:24:58Z</time>
      </trkpt>
      <trkpt lat="45.32639" lon="6.21172">
        <ele>1845.4940185547</ele>
        <time>2017-02-25T10:25:00Z</time>
      </trkpt>
      <trkpt lat="45.32631" lon="6.21189">
        <ele>1841.4940185547</ele>
        <time>2017-02-25T10:25:02Z</time>
      </trkpt>
      <trkpt lat="45.32625" lon="6.21208">
        <ele>1839.4940185547</ele>
        <time>2017-02-25T10:25:04Z</time>
      </trkpt>
      <trkpt lat="45.32617" lon="6.2123">
        <ele>1837.4940185547</ele>
        <time>2017-02-25T10:25:06Z</time>
      </trkpt>
      <trkpt lat="45.32604" lon="6.21241">
        <ele>1832.4940185547</ele>
        <time>2017-02-25T10:25:08Z</time>
      </trkpt>
      <trkpt lat="45.32592" lon="6.21248">
        <ele>1829.4940185547</ele>
        <time>2017-02-25T10:25:10Z</time>
      </trkpt>
      <trkpt lat="45.32581" lon="6.21256">
        <ele>1826.4940185547</ele>
        <time>2017-02-25T10:25:12Z</time>
      </trkpt>
      <trkpt lat="45.32569" lon="6.21267">
        <ele>1824.4940185547</ele>
        <time>2017-02-25T10:25:14Z</time>
      </trkpt>
      <trkpt lat="45.32559" lon="6.21289">
        <ele>1823.4940185547</ele>
        <time>2017-02-25T10:25:16Z</time>
      </trkpt>
      <trkpt lat="45.32553" lon="6.21306">
        <ele>1820.4940185547</ele>
        <time>2017-02-25T10:25:18Z</time>
      </trkpt>
      <trkpt lat="45.3255" lon="6.21331">
        <ele>1819.4940185547</ele>
        <time>2017-02-25T10:25:20Z</time>
      </trkpt>
      <trkpt lat="45.32545" lon="6.21338">
        <ele>1818.4940185547</ele>
        <time>2017-02-25T10:25:21Z</time>
      </trkpt>
      <trkpt lat="45.32537" lon="6.21356">
        <ele>1816.4940185547</ele>
        <time>2017-02-25T10:25:23Z</time>
      </trkpt>
      <trkpt lat="45.32524" lon="6.21366">
        <ele>1814.4940185547</ele>
        <time>2017-02-25T10:25:25Z</time>
      </trkpt>
      <trkpt lat="45.32513" lon="6.21378">
        <ele>1811.4940185547</ele>
        <time>2017-02-25T10:25:27Z</time>
      </trkpt>
      <trkpt lat="45.32505" lon="6.21398">
        <ele>1809.4940185547</ele>
        <time>2017-02-25T10:25:29Z</time>
      </trkpt>
      <trkpt lat="45.32501" lon="6.21426">
        <ele>1808.4940185547</ele>
        <time>2017-02-25T10:25:31Z</time>
      </trkpt>
      <trkpt lat="45.32491" lon="6.21437">
        <ele>1797.4940185547</ele>
        <time>2017-02-25T10:25:33Z</time>
      </trkpt>
      <trkpt lat="45.32484" lon="6.21452">
        <ele>1793.4940185547</ele>
        <time>2017-02-25T10:25:35Z</time>
      </trkpt>
      <trkpt lat="45.32483" lon="6.2147">
        <ele>1791.4940185547</ele>
        <time>2017-02-25T10:25:37Z</time>
      </trkpt>
      <trkpt lat="45.32482" lon="6.21491">
        <ele>1791.4940185547</ele>
        <time>2017-02-25T10:25:39Z</time>
      </trkpt>
      <trkpt lat="45.32481" lon="6.21507">
        <ele>1787.4940185547</ele>
        <time>2017-02-25T10:25:41Z</time>
      </trkpt>
      <trkpt lat="45.3248" lon="6.21523">
        <ele>1786.4940185547</ele>
        <time>2017-02-25T10:25:43Z</time>
      </trkpt>
      <trkpt lat="45.32483" lon="6.21541">
        <ele>1786.4940185547</ele>
        <time>2017-02-25T10:25:46Z</time>
      </trkpt>
      <trkpt lat="45.32483" lon="6.21549">
        <ele>1784.4940185547</ele>
        <time>2017-02-25T10:25:48Z</time>
      </trkpt>
      <trkpt lat="45.32481" lon="6.21555">
        <ele>1780.4940185547</ele>
        <time>2017-02-25T10:25:51Z</time>
      </trkpt>
      <trkpt lat="45.32486" lon="6.21555">
        <ele>1788.4940185547</ele>
        <time>2017-02-25T10:27:18Z</time>
      </trkpt>
      <trkpt lat="45.32483" lon="6.21563">
        <ele>1784.4940185547</ele>
        <time>2017-02-25T10:27:22Z</time>
      </trkpt>
      <trkpt lat="45.32481" lon="6.21571">
        <ele>1782.4940185547</ele>
        <time>2017-02-25T10:27:24Z</time>
      </trkpt>
      <trkpt lat="45.32477" lon="6.21587">
        <ele>1780.4940185547</ele>
        <time>2017-02-25T10:27:26Z</time>
      </trkpt>
      <trkpt lat="45.32474" lon="6.21601">
        <ele>1778.4940185547</ele>
        <time>2017-02-25T10:27:28Z</time>
      </trkpt>
      <trkpt lat="45.3247" lon="6.21613">
        <ele>1777.4940185547</ele>
        <time>2017-02-25T10:27:30Z</time>
      </trkpt>
      <trkpt lat="45.32466" lon="6.21623">
        <ele>1775.4940185547</ele>
        <time>2017-02-25T10:27:32Z</time>
      </trkpt>
      <trkpt lat="45.32461" lon="6.21631">
        <ele>1775.4940185547</ele>
        <time>2017-02-25T10:27:34Z</time>
      </trkpt>
      <trkpt lat="45.32458" lon="6.21643">
        <ele>1772.4940185547</ele>
        <time>2017-02-25T10:27:36Z</time>
      </trkpt>
      <trkpt lat="45.32456" lon="6.2166">
        <ele>1769.4940185547</ele>
        <time>2017-02-25T10:27:39Z</time>
      </trkpt>
      <trkpt lat="45.32454" lon="6.21671">
        <ele>1768.4940185547</ele>
        <time>2017-02-25T10:27:41Z</time>
      </trkpt>
      <trkpt lat="45.32444" lon="6.2168">
        <ele>1766.4940185547</ele>
        <time>2017-02-25T10:27:43Z</time>
      </trkpt>
      <trkpt lat="45.32438" lon="6.21693">
        <ele>1764.4940185547</ele>
        <time>2017-02-25T10:27:45Z</time>
      </trkpt>
      <trkpt lat="45.32428" lon="6.21705">
        <ele>1762.4940185547</ele>
        <time>2017-02-25T10:27:47Z</time>
      </trkpt>
      <trkpt lat="45.32419" lon="6.21715">
        <ele>1761.4940185547</ele>
        <time>2017-02-25T10:27:49Z</time>
      </trkpt>
      <trkpt lat="45.32415" lon="6.21725">
        <ele>1760.4940185547</ele>
        <time>2017-02-25T10:27:51Z</time>
      </trkpt>
      <trkpt lat="45.32415" lon="6.21735">
        <ele>1760.4940185547</ele>
        <time>2017-02-25T10:27:53Z</time>
      </trkpt>
      <trkpt lat="45.32413" lon="6.21747">
        <ele>1759.4940185547</ele>
        <time>2017-02-25T10:27:55Z</time>
      </trkpt>
      <trkpt lat="45.3241" lon="6.21761">
        <ele>1757.4940185547</ele>
        <time>2017-02-25T10:27:57Z</time>
      </trkpt>
      <trkpt lat="45.32406" lon="6.2178">
        <ele>1756.4940185547</ele>
        <time>2017-02-25T10:27:59Z</time>
      </trkpt>
      <trkpt lat="45.324" lon="6.21796">
        <ele>1755.4940185547</ele>
        <time>2017-02-25T10:28:01Z</time>
      </trkpt>
      <trkpt lat="45.32396" lon="6.21811">
        <ele>1754.4940185547</ele>
        <time>2017-02-25T10:28:03Z</time>
      </trkpt>
      <trkpt lat="45.324" lon="6.2183">
        <ele>1753.4940185547</ele>
        <time>2017-02-25T10:28:05Z</time>
      </trkpt>
      <trkpt lat="45.32406" lon="6.21848">
        <ele>1752.4940185547</ele>
        <time>2017-02-25T10:28:07Z</time>
      </trkpt>
      <trkpt lat="45.32409" lon="6.21861">
        <ele>1752.4940185547</ele>
        <time>2017-02-25T10:28:10Z</time>
      </trkpt>
      <trkpt lat="45.32412" lon="6.21867">
        <ele>1752.4940185547</ele>
        <time>2017-02-25T10:28:14Z</time>
      </trkpt>
      <trkpt lat="45.32413" lon="6.21877">
        <ele>1751.4940185547</ele>
        <time>2017-02-25T10:28:16Z</time>
      </trkpt>
      <trkpt lat="45.32418" lon="6.21891">
        <ele>1752.4940185547</ele>
        <time>2017-02-25T10:28:18Z</time>
      </trkpt>
      <trkpt lat="45.32419" lon="6.21905">
        <ele>1753.4940185547</ele>
        <time>2017-02-25T10:28:20Z</time>
      </trkpt>
      <trkpt lat="45.32421" lon="6.2192">
        <ele>1754.4940185547</ele>
        <time>2017-02-25T10:28:22Z</time>
      </trkpt>
      <trkpt lat="45.32425" lon="6.21929">
        <ele>1753.4940185547</ele>
        <time>2017-02-25T10:28:24Z</time>
      </trkpt>
      <trkpt lat="45.32428" lon="6.21938">
        <ele>1751.4940185547</ele>
        <time>2017-02-25T10:28:26Z</time>
      </trkpt>
      <trkpt lat="45.32424" lon="6.21948">
        <ele>1751.4940185547</ele>
        <time>2017-02-25T10:28:28Z</time>
      </trkpt>
      <trkpt lat="45.32422" lon="6.21957">
        <ele>1751.4940185547</ele>
        <time>2017-02-25T10:28:31Z</time>
      </trkpt>
      <trkpt lat="45.32419" lon="6.21965">
        <ele>1747.4940185547</ele>
        <time>2017-02-25T10:28:35Z</time>
      </trkpt>
      <trkpt lat="45.32419" lon="6.21974">
        <ele>1747.4940185547</ele>
        <time>2017-02-25T10:28:37Z</time>
      </trkpt>
      <trkpt lat="45.3242" lon="6.21985">
        <ele>1746.4940185547</ele>
        <time>2017-02-25T10:28:39Z</time>
      </trkpt>
      <trkpt lat="45.3242" lon="6.21993">
        <ele>1746.4940185547</ele>
        <time>2017-02-25T10:28:41Z</time>
      </trkpt>
      <trkpt lat="45.32421" lon="6.22002">
        <ele>1746.4940185547</ele>
        <time>2017-02-25T10:28:43Z</time>
      </trkpt>
      <trkpt lat="45.32422" lon="6.22009">
        <ele>1745.4940185547</ele>
        <time>2017-02-25T10:28:45Z</time>
      </trkpt>
      <trkpt lat="45.32423" lon="6.22016">
        <ele>1745.4940185547</ele>
        <time>2017-02-25T10:28:47Z</time>
      </trkpt>
      <trkpt lat="45.32424" lon="6.22023">
        <ele>1745.4940185547</ele>
        <time>2017-02-25T10:28:49Z</time>
      </trkpt>
      <trkpt lat="45.32423" lon="6.22031">
        <ele>1745.4940185547</ele>
        <time>2017-02-25T10:28:51Z</time>
      </trkpt>
      <trkpt lat="45.32422" lon="6.22049">
        <ele>1744.4940185547</ele>
        <time>2017-02-25T10:28:55Z</time>
      </trkpt>
      <trkpt lat="45.32421" lon="6.22059">
        <ele>1744.4940185547</ele>
        <time>2017-02-25T10:28:57Z</time>
      </trkpt>
      <trkpt lat="45.32419" lon="6.22068">
        <ele>1744.4940185547</ele>
        <time>2017-02-25T10:28:59Z</time>
      </trkpt>
      <trkpt lat="45.32414" lon="6.22082">
        <ele>1740.4940185547</ele>
        <time>2017-02-25T10:29:02Z</time>
      </trkpt>
      <trkpt lat="45.32406" lon="6.22093">
        <ele>1739.4940185547</ele>
        <time>2017-02-25T10:29:05Z</time>
      </trkpt>
      <trkpt lat="45.32402" lon="6.22098">
        <ele>1738.4940185547</ele>
        <time>2017-02-25T10:29:07Z</time>
      </trkpt>
      <trkpt lat="45.32398" lon="6.22102">
        <ele>1738.4940185547</ele>
        <time>2017-02-25T10:29:10Z</time>
      </trkpt>
      <trkpt lat="45.32393" lon="6.22105">
        <ele>1735.4940185547</ele>
        <time>2017-02-25T10:29:22Z</time>
      </trkpt>
      <trkpt lat="45.32387" lon="6.22108">
        <ele>1734.4940185547</ele>
        <time>2017-02-25T10:29:26Z</time>
      </trkpt>
      <trkpt lat="45.32389" lon="6.22116">
        <ele>1733.4940185547</ele>
        <time>2017-02-25T10:29:29Z</time>
      </trkpt>
      <trkpt lat="45.32399" lon="6.22118">
        <ele>1732.4940185547</ele>
        <time>2017-02-25T10:29:30Z</time>
      </trkpt>
      <trkpt lat="45.32411" lon="6.22125">
        <ele>1732.4940185547</ele>
        <time>2017-02-25T10:29:32Z</time>
      </trkpt>
      <trkpt lat="45.32415" lon="6.22138">
        <ele>1731.4940185547</ele>
        <time>2017-02-25T10:29:34Z</time>
      </trkpt>
      <trkpt lat="45.32416" lon="6.22156">
        <ele>1730.4940185547</ele>
        <time>2017-02-25T10:29:36Z</time>
      </trkpt>
      <trkpt lat="45.32414" lon="6.22173">
        <ele>1728.4940185547</ele>
        <time>2017-02-25T10:29:38Z</time>
      </trkpt>
      <trkpt lat="45.32418" lon="6.2219">
        <ele>1728.4949951172</ele>
        <time>2017-02-25T10:29:40Z</time>
      </trkpt>
      <trkpt lat="45.32425" lon="6.22208">
        <ele>1727.4949951172</ele>
        <time>2017-02-25T10:29:42Z</time>
      </trkpt>
      <trkpt lat="45.32436" lon="6.22217">
        <ele>1725.4949951172</ele>
        <time>2017-02-25T10:29:44Z</time>
      </trkpt>
      <trkpt lat="45.32447" lon="6.22228">
        <ele>1722.4949951172</ele>
        <time>2017-02-25T10:29:46Z</time>
      </trkpt>
      <trkpt lat="45.32456" lon="6.22241">
        <ele>1722.4949951172</ele>
        <time>2017-02-25T10:29:48Z</time>
      </trkpt>
      <trkpt lat="45.32462" lon="6.2226">
        <ele>1721.4949951172</ele>
        <time>2017-02-25T10:29:50Z</time>
      </trkpt>
      <trkpt lat="45.32473" lon="6.22275">
        <ele>1720.4949951172</ele>
        <time>2017-02-25T10:29:52Z</time>
      </trkpt>
      <trkpt lat="45.32474" lon="6.22295">
        <ele>1718.4949951172</ele>
        <time>2017-02-25T10:29:54Z</time>
      </trkpt>
      <trkpt lat="45.32478" lon="6.223">
        <ele>1716.4949951172</ele>
        <time>2017-02-25T10:29:55Z</time>
      </trkpt>
      <trkpt lat="45.32488" lon="6.22314">
        <ele>1715.4949951172</ele>
        <time>2017-02-25T10:29:57Z</time>
      </trkpt>
      <trkpt lat="45.32492" lon="6.22334">
        <ele>1713.4949951172</ele>
        <time>2017-02-25T10:29:59Z</time>
      </trkpt>
      <trkpt lat="45.32487" lon="6.22332">
        <ele>1707.4949951172</ele>
        <time>2017-02-25T10:30:05Z</time>
      </trkpt>
      <trkpt lat="45.32482" lon="6.22333">
        <ele>1707.4949951172</ele>
        <time>2017-02-25T10:30:07Z</time>
      </trkpt>
      <trkpt lat="45.32476" lon="6.22333">
        <ele>1706.4949951172</ele>
        <time>2017-02-25T10:30:09Z</time>
      </trkpt>
      <trkpt lat="45.32467" lon="6.22334">
        <ele>1705.4949951172</ele>
        <time>2017-02-25T10:30:11Z</time>
      </trkpt>
      <trkpt lat="45.32459" lon="6.22337">
        <ele>1704.4949951172</ele>
        <time>2017-02-25T10:30:13Z</time>
      </trkpt>
      <trkpt lat="45.32452" lon="6.22343">
        <ele>1703.4949951172</ele>
        <time>2017-02-25T10:30:15Z</time>
      </trkpt>
      <trkpt lat="45.32446" lon="6.22355">
        <ele>1702.4949951172</ele>
        <time>2017-02-25T10:30:17Z</time>
      </trkpt>
      <trkpt lat="45.3244" lon="6.22368">
        <ele>1701.4949951172</ele>
        <time>2017-02-25T10:30:19Z</time>
      </trkpt>
      <trkpt lat="45.32431" lon="6.22381">
        <ele>1699.4949951172</ele>
        <time>2017-02-25T10:30:21Z</time>
      </trkpt>
      <trkpt lat="45.32419" lon="6.22387">
        <ele>1699.4949951172</ele>
        <time>2017-02-25T10:30:23Z</time>
      </trkpt>
      <trkpt lat="45.3241" lon="6.22395">
        <ele>1698.4949951172</ele>
        <time>2017-02-25T10:30:25Z</time>
      </trkpt>
      <trkpt lat="45.3241" lon="6.22403">
        <ele>1697.4949951172</ele>
        <time>2017-02-25T10:30:27Z</time>
      </trkpt>
      <trkpt lat="45.32413" lon="6.22408">
        <ele>1698.4949951172</ele>
        <time>2017-02-25T10:30:32Z</time>
      </trkpt>
      <trkpt lat="45.32409" lon="6.22413">
        <ele>1696.4949951172</ele>
        <time>2017-02-25T10:30:37Z</time>
      </trkpt>
      <trkpt lat="45.32414" lon="6.22417">
        <ele>1694.4949951172</ele>
        <time>2017-02-25T10:30:41Z</time>
      </trkpt>
      <trkpt lat="45.32425" lon="6.22422">
        <ele>1695.4949951172</ele>
        <time>2017-02-25T10:30:43Z</time>
      </trkpt>
      <trkpt lat="45.32433" lon="6.22422">
        <ele>1695.4949951172</ele>
        <time>2017-02-25T10:30:45Z</time>
      </trkpt>
      <trkpt lat="45.32431" lon="6.22432">
        <ele>1696.4949951172</ele>
        <time>2017-02-25T10:30:48Z</time>
      </trkpt>
      <trkpt lat="45.32416" lon="6.2244">
        <ele>1693.4949951172</ele>
        <time>2017-02-25T10:30:49Z</time>
      </trkpt>
      <trkpt lat="45.32408" lon="6.22448">
        <ele>1692.4949951172</ele>
        <time>2017-02-25T10:30:51Z</time>
      </trkpt>
      <trkpt lat="45.32403" lon="6.22463">
        <ele>1690.4949951172</ele>
        <time>2017-02-25T10:30:53Z</time>
      </trkpt>
      <trkpt lat="45.32397" lon="6.22476">
        <ele>1689.4949951172</ele>
        <time>2017-02-25T10:30:55Z</time>
      </trkpt>
      <trkpt lat="45.32394" lon="6.22497">
        <ele>1686.4949951172</ele>
        <time>2017-02-25T10:30:58Z</time>
      </trkpt>
      <trkpt lat="45.324" lon="6.22489">
        <ele>1684.4949951172</ele>
        <time>2017-02-25T10:31:00Z</time>
      </trkpt>
      <trkpt lat="45.32398" lon="6.22497">
        <ele>1682.4949951172</ele>
        <time>2017-02-25T10:31:03Z</time>
      </trkpt>
      <trkpt lat="45.32394" lon="6.22507">
        <ele>1680.4949951172</ele>
        <time>2017-02-25T10:31:05Z</time>
      </trkpt>
      <trkpt lat="45.32385" lon="6.2252">
        <ele>1677.4949951172</ele>
        <time>2017-02-25T10:31:08Z</time>
      </trkpt>
      <trkpt lat="45.32388" lon="6.22531">
        <ele>1676.4949951172</ele>
        <time>2017-02-25T10:31:10Z</time>
      </trkpt>
      <trkpt lat="45.32395" lon="6.22525">
        <ele>1671.4949951172</ele>
        <time>2017-02-25T10:31:12Z</time>
      </trkpt>
      <trkpt lat="45.32401" lon="6.22516">
        <ele>1671.4949951172</ele>
        <time>2017-02-25T10:31:14Z</time>
      </trkpt>
      <trkpt lat="45.32409" lon="6.22509">
        <ele>1670.4949951172</ele>
        <time>2017-02-25T10:31:16Z</time>
      </trkpt>
      <trkpt lat="45.32416" lon="6.22507">
        <ele>1668.4949951172</ele>
        <time>2017-02-25T10:31:17Z</time>
      </trkpt>
      <trkpt lat="45.32428" lon="6.22504">
        <ele>1670.4949951172</ele>
        <time>2017-02-25T10:31:20Z</time>
      </trkpt>
      <trkpt lat="45.32436" lon="6.22509">
        <ele>1669.4949951172</ele>
        <time>2017-02-25T10:31:22Z</time>
      </trkpt>
      <trkpt lat="45.32448" lon="6.2251">
        <ele>1666.4949951172</ele>
        <time>2017-02-25T10:31:24Z</time>
      </trkpt>
      <trkpt lat="45.3246" lon="6.22511">
        <ele>1665.4949951172</ele>
        <time>2017-02-25T10:31:26Z</time>
      </trkpt>
      <trkpt lat="45.32472" lon="6.2251">
        <ele>1662.4949951172</ele>
        <time>2017-02-25T10:31:28Z</time>
      </trkpt>
      <trkpt lat="45.3248" lon="6.22522">
        <ele>1658.4949951172</ele>
        <time>2017-02-25T10:31:31Z</time>
      </trkpt>
      <trkpt lat="45.3246" lon="6.22528">
        <ele>1656.4949951172</ele>
        <time>2017-02-25T10:31:33Z</time>
      </trkpt>
      <trkpt lat="45.32449" lon="6.2254">
        <ele>1654.4949951172</ele>
        <time>2017-02-25T10:31:35Z</time>
      </trkpt>
      <trkpt lat="45.32438" lon="6.2255">
        <ele>1653.4949951172</ele>
        <time>2017-02-25T10:31:37Z</time>
      </trkpt>
      <trkpt lat="45.32435" lon="6.22559">
        <ele>1652.4949951172</ele>
        <time>2017-02-25T10:31:38Z</time>
      </trkpt>
      <trkpt lat="45.32424" lon="6.22567">
        <ele>1648.4949951172</ele>
        <time>2017-02-25T10:31:40Z</time>
      </trkpt>
      <trkpt lat="45.32412" lon="6.22579">
        <ele>1646.4949951172</ele>
        <time>2017-02-25T10:31:42Z</time>
      </trkpt>
      <trkpt lat="45.32402" lon="6.22593">
        <ele>1644.4949951172</ele>
        <time>2017-02-25T10:31:45Z</time>
      </trkpt>
      <trkpt lat="45.32395" lon="6.22604">
        <ele>1644.4949951172</ele>
        <time>2017-02-25T10:31:47Z</time>
      </trkpt>
      <trkpt lat="45.32387" lon="6.22618">
        <ele>1642.4949951172</ele>
        <time>2017-02-25T10:31:49Z</time>
      </trkpt>
      <trkpt lat="45.32376" lon="6.22626">
        <ele>1640.4949951172</ele>
        <time>2017-02-25T10:31:51Z</time>
      </trkpt>
      <trkpt lat="45.32363" lon="6.22635">
        <ele>1638.4949951172</ele>
        <time>2017-02-25T10:31:53Z</time>
      </trkpt>
      <trkpt lat="45.32354" lon="6.22652">
        <ele>1634.4949951172</ele>
        <time>2017-02-25T10:31:55Z</time>
      </trkpt>
      <trkpt lat="45.32345" lon="6.22672">
        <ele>1633.4949951172</ele>
        <time>2017-02-25T10:31:57Z</time>
      </trkpt>
      <trkpt lat="45.32342" lon="6.22691">
        <ele>1633.4949951172</ele>
        <time>2017-02-25T10:31:59Z</time>
      </trkpt>
      <trkpt lat="45.32341" lon="6.22709">
        <ele>1630.4949951172</ele>
        <time>2017-02-25T10:32:01Z</time>
      </trkpt>
      <trkpt lat="45.3234" lon="6.22727">
        <ele>1630.4949951172</ele>
        <time>2017-02-25T10:32:03Z</time>
      </trkpt>
      <trkpt lat="45.32338" lon="6.22741">
        <ele>1625.4949951172</ele>
        <time>2017-02-25T10:32:12Z</time>
      </trkpt>
      <trkpt lat="45.32343" lon="6.22738">
        <ele>1624.4949951172</ele>
        <time>2017-02-25T10:32:42Z</time>
      </trkpt>
      <trkpt lat="45.32344" lon="6.22746">
        <ele>1623.4949951172</ele>
        <time>2017-02-25T10:32:46Z</time>
      </trkpt>
      <trkpt lat="45.32345" lon="6.22758">
        <ele>1623.4949951172</ele>
        <time>2017-02-25T10:32:48Z</time>
      </trkpt>
      <trkpt lat="45.32347" lon="6.22774">
        <ele>1623.4949951172</ele>
        <time>2017-02-25T10:32:50Z</time>
      </trkpt>
      <trkpt lat="45.32348" lon="6.22782">
        <ele>1623.4949951172</ele>
        <time>2017-02-25T10:32:51Z</time>
      </trkpt>
      <trkpt lat="45.32352" lon="6.22799">
        <ele>1623.4949951172</ele>
        <time>2017-02-25T10:32:53Z</time>
      </trkpt>
      <trkpt lat="45.32352" lon="6.22825">
        <ele>1622.4949951172</ele>
        <time>2017-02-25T10:32:55Z</time>
      </trkpt>
      <trkpt lat="45.32354" lon="6.22831">
        <ele>1611.4949951172</ele>
        <time>2017-02-25T10:32:57Z</time>
      </trkpt>
      <trkpt lat="45.32359" lon="6.22845">
        <ele>1608.4949951172</ele>
        <time>2017-02-25T10:32:59Z</time>
      </trkpt>
      <trkpt lat="45.32361" lon="6.22865">
        <ele>1607.4949951172</ele>
        <time>2017-02-25T10:33:01Z</time>
      </trkpt>
      <trkpt lat="45.32364" lon="6.22886">
        <ele>1607.4949951172</ele>
        <time>2017-02-25T10:33:03Z</time>
      </trkpt>
      <trkpt lat="45.32368" lon="6.22906">
        <ele>1605.4949951172</ele>
        <time>2017-02-25T10:33:05Z</time>
      </trkpt>
      <trkpt lat="45.32369" lon="6.22917">
        <ele>1604.4949951172</ele>
        <time>2017-02-25T10:33:06Z</time>
      </trkpt>
      <trkpt lat="45.32367" lon="6.22943">
        <ele>1603.4949951172</ele>
        <time>2017-02-25T10:33:08Z</time>
      </trkpt>
      <trkpt lat="45.32368" lon="6.22965">
        <ele>1602.4949951172</ele>
        <time>2017-02-25T10:33:10Z</time>
      </trkpt>
      <trkpt lat="45.32371" lon="6.22959">
        <ele>1594.4949951172</ele>
        <time>2017-02-25T10:33:12Z</time>
      </trkpt>
      <trkpt lat="45.32375" lon="6.22948">
        <ele>1594.4949951172</ele>
        <time>2017-02-25T10:33:13Z</time>
      </trkpt>
      <trkpt lat="45.3238" lon="6.22944">
        <ele>1598.4949951172</ele>
        <time>2017-02-25T10:33:24Z</time>
      </trkpt>
      <trkpt lat="45.32379" lon="6.22938">
        <ele>1597.4949951172</ele>
        <time>2017-02-25T10:33:26Z</time>
      </trkpt>
      <trkpt lat="45.32379" lon="6.22926">
        <ele>1595.4949951172</ele>
        <time>2017-02-25T10:33:28Z</time>
      </trkpt>
      <trkpt lat="45.32383" lon="6.2291">
        <ele>1595.4949951172</ele>
        <time>2017-02-25T10:33:30Z</time>
      </trkpt>
      <trkpt lat="45.32385" lon="6.22901">
        <ele>1595.4949951172</ele>
        <time>2017-02-25T10:33:31Z</time>
      </trkpt>
      <trkpt lat="45.32386" lon="6.22882">
        <ele>1595.4949951172</ele>
        <time>2017-02-25T10:33:33Z</time>
      </trkpt>
      <trkpt lat="45.3239" lon="6.22861">
        <ele>1594.4949951172</ele>
        <time>2017-02-25T10:33:35Z</time>
      </trkpt>
      <trkpt lat="45.32394" lon="6.22839">
        <ele>1591.4949951172</ele>
        <time>2017-02-25T10:33:37Z</time>
      </trkpt>
      <trkpt lat="45.32395" lon="6.22828">
        <ele>1591.4949951172</ele>
        <time>2017-02-25T10:33:38Z</time>
      </trkpt>
      <trkpt lat="45.32397" lon="6.22808">
        <ele>1590.4949951172</ele>
        <time>2017-02-25T10:33:40Z</time>
      </trkpt>
      <trkpt lat="45.32399" lon="6.22786">
        <ele>1588.4949951172</ele>
        <time>2017-02-25T10:33:42Z</time>
      </trkpt>
      <trkpt lat="45.32405" lon="6.22764">
        <ele>1586.4949951172</ele>
        <time>2017-02-25T10:33:44Z</time>
      </trkpt>
      <trkpt lat="45.32419" lon="6.22748">
        <ele>1583.4949951172</ele>
        <time>2017-02-25T10:33:46Z</time>
      </trkpt>
      <trkpt lat="45.3243" lon="6.22729">
        <ele>1582.4949951172</ele>
        <time>2017-02-25T10:33:48Z</time>
      </trkpt>
      <trkpt lat="45.3244" lon="6.22712">
        <ele>1581.4949951172</ele>
        <time>2017-02-25T10:33:50Z</time>
      </trkpt>
      <trkpt lat="45.32454" lon="6.22715">
        <ele>1579.4949951172</ele>
        <time>2017-02-25T10:33:53Z</time>
      </trkpt>
      <trkpt lat="45.32442" lon="6.22753">
        <ele>1577.4949951172</ele>
        <time>2017-02-25T10:33:55Z</time>
      </trkpt>
      <trkpt lat="45.32441" lon="6.22762">
        <ele>1575.4949951172</ele>
        <time>2017-02-25T10:33:56Z</time>
      </trkpt>
      <trkpt lat="45.32436" lon="6.22785">
        <ele>1572.4949951172</ele>
        <time>2017-02-25T10:33:58Z</time>
      </trkpt>
      <trkpt lat="45.32434" lon="6.22807">
        <ele>1570.4949951172</ele>
        <time>2017-02-25T10:34:00Z</time>
      </trkpt>
      <trkpt lat="45.32438" lon="6.2283">
        <ele>1569.4949951172</ele>
        <time>2017-02-25T10:34:02Z</time>
      </trkpt>
      <trkpt lat="45.32444" lon="6.22852">
        <ele>1568.4949951172</ele>
        <time>2017-02-25T10:34:04Z</time>
      </trkpt>
      <trkpt lat="45.32445" lon="6.22874">
        <ele>1568.4949951172</ele>
        <time>2017-02-25T10:34:06Z</time>
      </trkpt>
      <trkpt lat="45.32446" lon="6.22896">
        <ele>1566.4959716797</ele>
        <time>2017-02-25T10:34:08Z</time>
      </trkpt>
      <trkpt lat="45.32444" lon="6.22908">
        <ele>1566.4959716797</ele>
        <time>2017-02-25T10:34:09Z</time>
      </trkpt>
      <trkpt lat="45.32447" lon="6.22934">
        <ele>1564.4959716797</ele>
        <time>2017-02-25T10:34:11Z</time>
      </trkpt>
      <trkpt lat="45.32451" lon="6.2296">
        <ele>1564.4959716797</ele>
        <time>2017-02-25T10:34:13Z</time>
      </trkpt>
      <trkpt lat="45.32454" lon="6.22983">
        <ele>1562.4959716797</ele>
        <time>2017-02-25T10:34:15Z</time>
      </trkpt>
      <trkpt lat="45.32459" lon="6.23008">
        <ele>1556.4959716797</ele>
        <time>2017-02-25T10:34:18Z</time>
      </trkpt>
      <trkpt lat="45.32461" lon="6.2303">
        <ele>1554.4959716797</ele>
        <time>2017-02-25T10:34:20Z</time>
      </trkpt>
      <trkpt lat="45.32464" lon="6.2305">
        <ele>1554.4959716797</ele>
        <time>2017-02-25T10:34:22Z</time>
      </trkpt>
      <trkpt lat="45.32468" lon="6.23055">
        <ele>1546.4959716797</ele>
        <time>2017-02-25T10:34:24Z</time>
      </trkpt>
      <trkpt lat="45.3247" lon="6.23032">
        <ele>1548.4959716797</ele>
        <time>2017-02-25T10:34:26Z</time>
      </trkpt>
      <trkpt lat="45.32475" lon="6.23016">
        <ele>1549.4959716797</ele>
        <time>2017-02-25T10:34:28Z</time>
      </trkpt>
      <trkpt lat="45.3248" lon="6.2301">
        <ele>1547.4959716797</ele>
        <time>2017-02-25T10:34:29Z</time>
      </trkpt>
      <trkpt lat="45.32492" lon="6.23014">
        <ele>1546.4959716797</ele>
        <time>2017-02-25T10:34:32Z</time>
      </trkpt>
      <trkpt lat="45.32499" lon="6.23024">
        <ele>1545.4959716797</ele>
        <time>2017-02-25T10:34:34Z</time>
      </trkpt>
      <trkpt lat="45.32507" lon="6.23037">
        <ele>1544.4959716797</ele>
        <time>2017-02-25T10:34:36Z</time>
      </trkpt>
      <trkpt lat="45.32516" lon="6.23052">
        <ele>1543.4959716797</ele>
        <time>2017-02-25T10:34:38Z</time>
      </trkpt>
      <trkpt lat="45.3252" lon="6.23069">
        <ele>1541.4959716797</ele>
        <time>2017-02-25T10:34:40Z</time>
      </trkpt>
      <trkpt lat="45.32523" lon="6.23074">
        <ele>1531.4959716797</ele>
        <time>2017-02-25T10:35:19Z</time>
      </trkpt>
      <trkpt lat="45.32525" lon="6.23085">
        <ele>1530.4959716797</ele>
        <time>2017-02-25T10:35:21Z</time>
      </trkpt>
      <trkpt lat="45.32529" lon="6.23099">
        <ele>1529.4959716797</ele>
        <time>2017-02-25T10:35:23Z</time>
      </trkpt>
      <trkpt lat="45.32533" lon="6.23107">
        <ele>1527.4959716797</ele>
        <time>2017-02-25T10:35:24Z</time>
      </trkpt>
      <trkpt lat="45.32538" lon="6.23123">
        <ele>1527.4959716797</ele>
        <time>2017-02-25T10:35:26Z</time>
      </trkpt>
      <trkpt lat="45.32542" lon="6.23139">
        <ele>1527.4959716797</ele>
        <time>2017-02-25T10:35:28Z</time>
      </trkpt>
      <trkpt lat="45.32549" lon="6.23154">
        <ele>1524.4959716797</ele>
        <time>2017-02-25T10:35:30Z</time>
      </trkpt>
      <trkpt lat="45.32546" lon="6.23161">
        <ele>1521.4959716797</ele>
        <time>2017-02-25T10:35:32Z</time>
      </trkpt>
      <trkpt lat="45.32541" lon="6.23158">
        <ele>1519.4959716797</ele>
        <time>2017-02-25T10:35:34Z</time>
      </trkpt>
      <trkpt lat="45.32535" lon="6.23152">
        <ele>1517.4959716797</ele>
        <time>2017-02-25T10:35:35Z</time>
      </trkpt>
      <trkpt lat="45.32527" lon="6.23155">
        <ele>1516.4959716797</ele>
        <time>2017-02-25T10:35:37Z</time>
      </trkpt>
      <trkpt lat="45.32534" lon="6.2317">
        <ele>1516.4959716797</ele>
        <time>2017-02-25T10:35:39Z</time>
      </trkpt>
      <trkpt lat="45.3254" lon="6.23181">
        <ele>1514.4959716797</ele>
        <time>2017-02-25T10:35:41Z</time>
      </trkpt>
      <trkpt lat="45.32547" lon="6.23191">
        <ele>1512.4959716797</ele>
        <time>2017-02-25T10:35:43Z</time>
      </trkpt>
      <trkpt lat="45.32552" lon="6.23197">
        <ele>1510.4959716797</ele>
        <time>2017-02-25T10:35:45Z</time>
      </trkpt>
      <trkpt lat="45.32553" lon="6.23205">
        <ele>1507.4959716797</ele>
        <time>2017-02-25T10:35:57Z</time>
      </trkpt>
      <trkpt lat="45.32556" lon="6.23212">
        <ele>1506.4959716797</ele>
        <time>2017-02-25T10:35:59Z</time>
      </trkpt>
      <trkpt lat="45.32561" lon="6.23217">
        <ele>1504.4959716797</ele>
        <time>2017-02-25T10:36:01Z</time>
      </trkpt>
      <trkpt lat="45.32565" lon="6.2323">
        <ele>1502.4959716797</ele>
        <time>2017-02-25T10:36:03Z</time>
      </trkpt>
      <trkpt lat="45.3257" lon="6.23246">
        <ele>1501.4959716797</ele>
        <time>2017-02-25T10:36:05Z</time>
      </trkpt>
      <trkpt lat="45.32573" lon="6.23259">
        <ele>1501.4959716797</ele>
        <time>2017-02-25T10:36:07Z</time>
      </trkpt>
      <trkpt lat="45.32571" lon="6.23267">
        <ele>1501.4959716797</ele>
        <time>2017-02-25T10:36:09Z</time>
      </trkpt>
      <trkpt lat="45.32569" lon="6.23275">
        <ele>1501.4959716797</ele>
        <time>2017-02-25T10:36:11Z</time>
      </trkpt>
      <trkpt lat="45.32568" lon="6.23283">
        <ele>1500.4959716797</ele>
        <time>2017-02-25T10:36:13Z</time>
      </trkpt>
      <trkpt lat="45.32566" lon="6.23293">
        <ele>1499.4959716797</ele>
        <time>2017-02-25T10:36:15Z</time>
      </trkpt>
      <trkpt lat="45.32564" lon="6.23299">
        <ele>1498.4959716797</ele>
        <time>2017-02-25T10:36:17Z</time>
      </trkpt>
      <trkpt lat="45.32563" lon="6.23306">
        <ele>1495.4959716797</ele>
        <time>2017-02-25T10:36:33Z</time>
      </trkpt>
      <trkpt lat="45.3256" lon="6.23312">
        <ele>1496.4959716797</ele>
        <time>2017-02-25T10:36:36Z</time>
      </trkpt>
      <trkpt lat="45.32559" lon="6.23321">
        <ele>1495.4959716797</ele>
        <time>2017-02-25T10:36:41Z</time>
      </trkpt>
      <trkpt lat="45.32556" lon="6.23327">
        <ele>1493.4959716797</ele>
        <time>2017-02-25T10:36:45Z</time>
      </trkpt>
      <trkpt lat="45.32552" lon="6.23328">
        <ele>1495.4959716797</ele>
        <time>2017-02-25T10:36:49Z</time>
      </trkpt>
      <trkpt lat="45.32551" lon="6.23335">
        <ele>1494.4959716797</ele>
        <time>2017-02-25T10:36:54Z</time>
      </trkpt>
      <trkpt lat="45.32548" lon="6.23342">
        <ele>1492.4959716797</ele>
        <time>2017-02-25T10:36:58Z</time>
      </trkpt>
      <trkpt lat="45.32547" lon="6.2335">
        <ele>1490.4959716797</ele>
        <time>2017-02-25T10:37:03Z</time>
      </trkpt>
      <trkpt lat="45.32546" lon="6.23357">
        <ele>1487.4959716797</ele>
        <time>2017-02-25T10:37:06Z</time>
      </trkpt>
      <trkpt lat="45.32546" lon="6.23363">
        <ele>1483.4959716797</ele>
        <time>2017-02-25T10:37:46Z</time>
      </trkpt>
      <trkpt lat="45.32546" lon="6.2337">
        <ele>1480.4959716797</ele>
        <time>2017-02-25T10:37:49Z</time>
      </trkpt>
      <trkpt lat="45.32546" lon="6.23377">
        <ele>1480.4959716797</ele>
        <time>2017-02-25T10:37:52Z</time>
      </trkpt>
      <trkpt lat="45.32548" lon="6.23385">
        <ele>1477.4959716797</ele>
        <time>2017-02-25T10:37:56Z</time>
      </trkpt>
      <trkpt lat="45.3255" lon="6.23393">
        <ele>1478.4959716797</ele>
        <time>2017-02-25T10:37:59Z</time>
      </trkpt>
      <trkpt lat="45.3255" lon="6.234">
        <ele>1477.4959716797</ele>
        <time>2017-02-25T10:38:02Z</time>
      </trkpt>
      <trkpt lat="45.32548" lon="6.23408">
        <ele>1476.4959716797</ele>
        <time>2017-02-25T10:38:07Z</time>
      </trkpt>
      <trkpt lat="45.32547" lon="6.23414">
        <ele>1477.4959716797</ele>
        <time>2017-02-25T10:38:11Z</time>
      </trkpt>
      <trkpt lat="45.32545" lon="6.2342">
        <ele>1475.4959716797</ele>
        <time>2017-02-25T10:38:16Z</time>
      </trkpt>
      <trkpt lat="45.32545" lon="6.23427">
        <ele>1471.4959716797</ele>
        <time>2017-02-25T10:38:30Z</time>
      </trkpt>
      <trkpt lat="45.32547" lon="6.23434">
        <ele>1474.4959716797</ele>
        <time>2017-02-25T10:38:45Z</time>
      </trkpt>
      <trkpt lat="45.32548" lon="6.23442">
        <ele>1473.4959716797</ele>
        <time>2017-02-25T10:39:05Z</time>
      </trkpt>
      <trkpt lat="45.32549" lon="6.23452">
        <ele>1471.4959716797</ele>
        <time>2017-02-25T10:39:09Z</time>
      </trkpt>
      <trkpt lat="45.32549" lon="6.23459">
        <ele>1470.4959716797</ele>
        <time>2017-02-25T10:39:11Z</time>
      </trkpt>
      <trkpt lat="45.32548" lon="6.23465">
        <ele>1468.4959716797</ele>
        <time>2017-02-25T10:39:30Z</time>
      </trkpt>
      <trkpt lat="45.32548" lon="6.23472">
        <ele>1466.4959716797</ele>
        <time>2017-02-25T10:39:35Z</time>
      </trkpt>
      <trkpt lat="45.32543" lon="6.23474">
        <ele>1461.4959716797</ele>
        <time>2017-02-25T10:39:41Z</time>
      </trkpt>
      <trkpt lat="45.32541" lon="6.23469">
        <ele>1460.4959716797</ele>
        <time>2017-02-25T10:39:46Z</time>
      </trkpt>
      <trkpt lat="45.32537" lon="6.23465">
        <ele>1458.4959716797</ele>
        <time>2017-02-25T10:39:50Z</time>
      </trkpt>
      <trkpt lat="45.32533" lon="6.23462">
        <ele>1457.4959716797</ele>
        <time>2017-02-25T10:39:54Z</time>
      </trkpt>
      <trkpt lat="45.3253" lon="6.23457">
        <ele>1454.4959716797</ele>
        <time>2017-02-25T10:40:23Z</time>
      </trkpt>
      <trkpt lat="45.3253" lon="6.23463">
        <ele>1451.4959716797</ele>
        <time>2017-02-25T10:41:31Z</time>
      </trkpt>
      <trkpt lat="45.32526" lon="6.23467">
        <ele>1448.4959716797</ele>
        <time>2017-02-25T10:44:06Z</time>
      </trkpt>
      <trkpt lat="45.32527" lon="6.23475">
        <ele>1447.4959716797</ele>
        <time>2017-02-25T10:44:10Z</time>
      </trkpt>
      <trkpt lat="45.32523" lon="6.23479">
        <ele>1446.4959716797</ele>
        <time>2017-02-25T10:44:12Z</time>
      </trkpt>
      <trkpt lat="45.32525" lon="6.23485">
        <ele>1446.4959716797</ele>
        <time>2017-02-25T10:44:14Z</time>
      </trkpt>
      <trkpt lat="45.32524" lon="6.23493">
        <ele>1444.4959716797</ele>
        <time>2017-02-25T10:44:16Z</time>
      </trkpt>
      <trkpt lat="45.32524" lon="6.23499">
        <ele>1443.4959716797</ele>
        <time>2017-02-25T10:44:18Z</time>
      </trkpt>
      <trkpt lat="45.32524" lon="6.23507">
        <ele>1444.4959716797</ele>
        <time>2017-02-25T10:44:31Z</time>
      </trkpt>
      <trkpt lat="45.32524" lon="6.23515">
        <ele>1443.4959716797</ele>
        <time>2017-02-25T10:44:33Z</time>
      </trkpt>
      <trkpt lat="45.32522" lon="6.23521">
        <ele>1444.4969482422</ele>
        <time>2017-02-25T10:44:36Z</time>
      </trkpt>
      <trkpt lat="45.3252" lon="6.23529">
        <ele>1443.4969482422</ele>
        <time>2017-02-25T10:44:56Z</time>
      </trkpt>
      <trkpt lat="45.32519" lon="6.23536">
        <ele>1439.4969482422</ele>
        <time>2017-02-25T10:45:02Z</time>
      </trkpt>
      <trkpt lat="45.32517" lon="6.23544">
        <ele>1438.4969482422</ele>
        <time>2017-02-25T10:45:10Z</time>
      </trkpt>
      <trkpt lat="45.32514" lon="6.23549">
        <ele>1438.4969482422</ele>
        <time>2017-02-25T10:45:14Z</time>
      </trkpt>
      <trkpt lat="45.32514" lon="6.23556">
        <ele>1435.4969482422</ele>
        <time>2017-02-25T10:45:18Z</time>
      </trkpt>
      <trkpt lat="45.3251" lon="6.23562">
        <ele>1433.4969482422</ele>
        <time>2017-02-25T10:45:38Z</time>
      </trkpt>
      <trkpt lat="45.32508" lon="6.23569">
        <ele>1429.4969482422</ele>
        <time>2017-02-25T10:45:40Z</time>
      </trkpt>
      <trkpt lat="45.32502" lon="6.23583">
        <ele>1426.4969482422</ele>
        <time>2017-02-25T10:45:45Z</time>
      </trkpt>
      <trkpt lat="45.32497" lon="6.23596">
        <ele>1427.4969482422</ele>
        <time>2017-02-25T10:45:47Z</time>
      </trkpt>
      <trkpt lat="45.32494" lon="6.23605">
        <ele>1427.4969482422</ele>
        <time>2017-02-25T10:45:48Z</time>
      </trkpt>
      <trkpt lat="45.32491" lon="6.2362">
        <ele>1425.4969482422</ele>
        <time>2017-02-25T10:45:50Z</time>
      </trkpt>
      <trkpt lat="45.32491" lon="6.23627">
        <ele>1425.4969482422</ele>
        <time>2017-02-25T10:45:52Z</time>
      </trkpt>
      <trkpt lat="45.32489" lon="6.23635">
        <ele>1424.4969482422</ele>
        <time>2017-02-25T10:46:10Z</time>
      </trkpt>
      <trkpt lat="45.32485" lon="6.23638">
        <ele>1423.4969482422</ele>
        <time>2017-02-25T10:46:14Z</time>
      </trkpt>
      <trkpt lat="45.32484" lon="6.23646">
        <ele>1420.4969482422</ele>
        <time>2017-02-25T10:46:18Z</time>
      </trkpt>
      <trkpt lat="45.32481" lon="6.23653">
        <ele>1418.4969482422</ele>
        <time>2017-02-25T10:46:22Z</time>
      </trkpt>
      <trkpt lat="45.32478" lon="6.23659">
        <ele>1416.4969482422</ele>
        <time>2017-02-25T10:46:29Z</time>
      </trkpt>
      <trkpt lat="45.32475" lon="6.23664">
        <ele>1414.4969482422</ele>
        <time>2017-02-25T10:46:35Z</time>
      </trkpt>
      <trkpt lat="45.32474" lon="6.23671">
        <ele>1410.4969482422</ele>
        <time>2017-02-25T10:46:41Z</time>
      </trkpt>
      <trkpt lat="45.32469" lon="6.23675">
        <ele>1406.4969482422</ele>
        <time>2017-02-25T10:46:46Z</time>
      </trkpt>
      <trkpt lat="45.32464" lon="6.23678">
        <ele>1407.4969482422</ele>
        <time>2017-02-25T10:46:50Z</time>
      </trkpt>
      <trkpt lat="45.32459" lon="6.2368">
        <ele>1405.4969482422</ele>
        <time>2017-02-25T10:46:55Z</time>
      </trkpt>
      <trkpt lat="45.32456" lon="6.23673">
        <ele>1401.4969482422</ele>
        <time>2017-02-25T10:47:00Z</time>
      </trkpt>
      <trkpt lat="45.32455" lon="6.23667">
        <ele>1398.4969482422</ele>
        <time>2017-02-25T10:47:04Z</time>
      </trkpt>
      <trkpt lat="45.32454" lon="6.2366">
        <ele>1396.4969482422</ele>
        <time>2017-02-25T10:47:09Z</time>
      </trkpt>
      <trkpt lat="45.32453" lon="6.23653">
        <ele>1396.4969482422</ele>
        <time>2017-02-25T10:47:12Z</time>
      </trkpt>
      <trkpt lat="45.32451" lon="6.23647">
        <ele>1398.4969482422</ele>
        <time>2017-02-25T10:47:21Z</time>
      </trkpt>
      <trkpt lat="45.32449" lon="6.2364">
        <ele>1398.4969482422</ele>
        <time>2017-02-25T10:47:24Z</time>
      </trkpt>
      <trkpt lat="45.32447" lon="6.23634">
        <ele>1399.4969482422</ele>
        <time>2017-02-25T10:47:28Z</time>
      </trkpt>
      <trkpt lat="45.32441" lon="6.23635">
        <ele>1397.4969482422</ele>
        <time>2017-02-25T10:47:51Z</time>
      </trkpt>
      <trkpt lat="45.32441" lon="6.23642">
        <ele>1396.4969482422</ele>
        <time>2017-02-25T10:47:57Z</time>
      </trkpt>
      <trkpt lat="45.32438" lon="6.23648">
        <ele>1395.4969482422</ele>
        <time>2017-02-25T10:48:01Z</time>
      </trkpt>
      <trkpt lat="45.32437" lon="6.23654">
        <ele>1393.4969482422</ele>
        <time>2017-02-25T10:48:06Z</time>
      </trkpt>
      <trkpt lat="45.32432" lon="6.23658">
        <ele>1391.4969482422</ele>
        <time>2017-02-25T10:48:11Z</time>
      </trkpt>
      <trkpt lat="45.32431" lon="6.23664">
        <ele>1391.4969482422</ele>
        <time>2017-02-25T10:48:16Z</time>
      </trkpt>
      <trkpt lat="45.32428" lon="6.2367">
        <ele>1388.4969482422</ele>
        <time>2017-02-25T10:48:23Z</time>
      </trkpt>
      <trkpt lat="45.32424" lon="6.23675">
        <ele>1385.4969482422</ele>
        <time>2017-02-25T10:48:27Z</time>
      </trkpt>
      <trkpt lat="45.32419" lon="6.23681">
        <ele>1385.4969482422</ele>
        <time>2017-02-25T10:48:35Z</time>
      </trkpt>
      <trkpt lat="45.32417" lon="6.23688">
        <ele>1385.4969482422</ele>
        <time>2017-02-25T10:48:41Z</time>
      </trkpt>
      <trkpt lat="45.32413" lon="6.23692">
        <ele>1384.4969482422</ele>
        <time>2017-02-25T10:48:45Z</time>
      </trkpt>
      <trkpt lat="45.32412" lon="6.23699">
        <ele>1383.4969482422</ele>
        <time>2017-02-25T10:48:51Z</time>
      </trkpt>
      <trkpt lat="45.32409" lon="6.23705">
        <ele>1385.4969482422</ele>
        <time>2017-02-25T10:48:54Z</time>
      </trkpt>
      <trkpt lat="45.32406" lon="6.23709">
        <ele>1384.4969482422</ele>
        <time>2017-02-25T10:48:59Z</time>
      </trkpt>
      <trkpt lat="45.32404" lon="6.23715">
        <ele>1383.4969482422</ele>
        <time>2017-02-25T10:49:03Z</time>
      </trkpt>
      <trkpt lat="45.324" lon="6.23719">
        <ele>1381.4969482422</ele>
        <time>2017-02-25T10:49:11Z</time>
      </trkpt>
      <trkpt lat="45.32395" lon="6.23723">
        <ele>1381.4969482422</ele>
        <time>2017-02-25T10:49:16Z</time>
      </trkpt>
      <trkpt lat="45.32392" lon="6.23729">
        <ele>1374.4969482422</ele>
        <time>2017-02-25T10:49:21Z</time>
      </trkpt>
      <trkpt lat="45.32388" lon="6.23734">
        <ele>1371.4969482422</ele>
        <time>2017-02-25T10:49:27Z</time>
      </trkpt>
      <trkpt lat="45.32386" lon="6.23741">
        <ele>1368.4969482422</ele>
        <time>2017-02-25T10:49:31Z</time>
      </trkpt>
      <trkpt lat="45.32382" lon="6.23745">
        <ele>1368.4969482422</ele>
        <time>2017-02-25T10:49:35Z</time>
      </trkpt>
      <trkpt lat="45.32379" lon="6.2375">
        <ele>1366.4969482422</ele>
        <time>2017-02-25T10:49:39Z</time>
      </trkpt>
      <trkpt lat="45.32375" lon="6.23754">
        <ele>1365.4969482422</ele>
        <time>2017-02-25T10:49:44Z</time>
      </trkpt>
      <trkpt lat="45.32371" lon="6.2375">
        <ele>1364.4969482422</ele>
        <time>2017-02-25T10:49:50Z</time>
      </trkpt>
      <trkpt lat="45.32367" lon="6.23747">
        <ele>1365.4969482422</ele>
        <time>2017-02-25T10:49:53Z</time>
      </trkpt>
      <trkpt lat="45.32364" lon="6.23742">
        <ele>1365.4969482422</ele>
        <time>2017-02-25T10:49:58Z</time>
      </trkpt>
      <trkpt lat="45.32364" lon="6.23735">
        <ele>1364.4959716797</ele>
        <time>2017-02-25T10:50:16Z</time>
      </trkpt>
      <trkpt lat="45.32363" lon="6.23727">
        <ele>1364.4959716797</ele>
        <time>2017-02-25T10:50:20Z</time>
      </trkpt>
      <trkpt lat="45.32361" lon="6.23721">
        <ele>1365.4959716797</ele>
        <time>2017-02-25T10:50:26Z</time>
      </trkpt>
      <trkpt lat="45.3236" lon="6.23715">
        <ele>1360.4959716797</ele>
        <time>2017-02-25T10:50:32Z</time>
      </trkpt>
      <trkpt lat="45.32354" lon="6.23714">
        <ele>1359.4959716797</ele>
        <time>2017-02-25T10:50:36Z</time>
      </trkpt>
      <trkpt lat="45.3235" lon="6.23716">
        <ele>1359.4959716797</ele>
        <time>2017-02-25T10:50:45Z</time>
      </trkpt>
      <trkpt lat="45.32346" lon="6.23711">
        <ele>1352.4959716797</ele>
        <time>2017-02-25T10:50:49Z</time>
      </trkpt>
      <trkpt lat="45.32341" lon="6.23712">
        <ele>1355.4959716797</ele>
        <time>2017-02-25T10:50:53Z</time>
      </trkpt>
      <trkpt lat="45.32337" lon="6.23716">
        <ele>1358.4959716797</ele>
        <time>2017-02-25T10:50:58Z</time>
      </trkpt>
      <trkpt lat="45.32334" lon="6.23723">
        <ele>1359.4959716797</ele>
        <time>2017-02-25T10:51:04Z</time>
      </trkpt>
      <trkpt lat="45.32329" lon="6.23727">
        <ele>1356.4959716797</ele>
        <time>2017-02-25T10:51:08Z</time>
      </trkpt>
      <trkpt lat="45.32325" lon="6.23732">
        <ele>1353.4959716797</ele>
        <time>2017-02-25T10:51:19Z</time>
      </trkpt>
      <trkpt lat="45.32325" lon="6.23738">
        <ele>1353.4959716797</ele>
        <time>2017-02-25T10:51:25Z</time>
      </trkpt>
      <trkpt lat="45.32329" lon="6.23739">
        <ele>1351.4959716797</ele>
        <time>2017-02-25T10:51:30Z</time>
      </trkpt>
      <trkpt lat="45.32333" lon="6.23744">
        <ele>1351.4959716797</ele>
        <time>2017-02-25T10:51:35Z</time>
      </trkpt>
      <trkpt lat="45.32331" lon="6.2375">
        <ele>1353.4959716797</ele>
        <time>2017-02-25T10:51:38Z</time>
      </trkpt>
      <trkpt lat="45.32327" lon="6.23758">
        <ele>1354.4959716797</ele>
        <time>2017-02-25T10:51:43Z</time>
      </trkpt>
      <trkpt lat="45.32325" lon="6.23766">
        <ele>1358.4959716797</ele>
        <time>2017-02-25T10:51:46Z</time>
      </trkpt>
      <trkpt lat="45.32322" lon="6.23771">
        <ele>1354.4959716797</ele>
        <time>2017-02-25T10:51:53Z</time>
      </trkpt>
      <trkpt lat="45.3232" lon="6.23778">
        <ele>1354.4959716797</ele>
        <time>2017-02-25T10:51:57Z</time>
      </trkpt>
      <trkpt lat="45.32315" lon="6.23782">
        <ele>1353.4959716797</ele>
        <time>2017-02-25T10:52:02Z</time>
      </trkpt>
      <trkpt lat="45.32311" lon="6.23786">
        <ele>1352.4959716797</ele>
        <time>2017-02-25T10:52:07Z</time>
      </trkpt>
      <trkpt lat="45.32307" lon="6.2379">
        <ele>1349.4959716797</ele>
        <time>2017-02-25T10:52:17Z</time>
      </trkpt>
      <trkpt lat="45.32301" lon="6.23791">
        <ele>1346.4959716797</ele>
        <time>2017-02-25T10:52:22Z</time>
      </trkpt>
      <trkpt lat="45.32297" lon="6.23793">
        <ele>1346.4959716797</ele>
        <time>2017-02-25T10:52:25Z</time>
      </trkpt>
      <trkpt lat="45.32292" lon="6.23795">
        <ele>1344.4959716797</ele>
        <time>2017-02-25T10:52:29Z</time>
      </trkpt>
      <trkpt lat="45.32286" lon="6.23794">
        <ele>1341.4959716797</ele>
        <time>2017-02-25T10:52:33Z</time>
      </trkpt>
      <trkpt lat="45.32281" lon="6.23793">
        <ele>1338.4959716797</ele>
        <time>2017-02-25T10:52:39Z</time>
      </trkpt>
      <trkpt lat="45.32276" lon="6.23792">
        <ele>1340.4959716797</ele>
        <time>2017-02-25T10:52:43Z</time>
      </trkpt>
      <trkpt lat="45.32271" lon="6.23791">
        <ele>1338.4959716797</ele>
        <time>2017-02-25T10:52:50Z</time>
      </trkpt>
      <trkpt lat="45.32268" lon="6.23795">
        <ele>1336.4959716797</ele>
        <time>2017-02-25T10:52:55Z</time>
      </trkpt>
      <trkpt lat="45.32263" lon="6.23795">
        <ele>1334.4959716797</ele>
        <time>2017-02-25T10:53:06Z</time>
      </trkpt>
      <trkpt lat="45.3226" lon="6.23802">
        <ele>1337.4959716797</ele>
        <time>2017-02-25T10:53:10Z</time>
      </trkpt>
      <trkpt lat="45.32256" lon="6.23805">
        <ele>1334.4959716797</ele>
        <time>2017-02-25T10:53:14Z</time>
      </trkpt>
      <trkpt lat="45.32252" lon="6.23808">
        <ele>1333.4959716797</ele>
        <time>2017-02-25T10:53:18Z</time>
      </trkpt>
      <trkpt lat="45.32248" lon="6.23812">
        <ele>1334.4959716797</ele>
        <time>2017-02-25T10:53:21Z</time>
      </trkpt>
      <trkpt lat="45.32244" lon="6.23818">
        <ele>1335.4959716797</ele>
        <time>2017-02-25T10:53:27Z</time>
      </trkpt>
      <trkpt lat="45.3224" lon="6.23821">
        <ele>1334.4959716797</ele>
        <time>2017-02-25T10:53:31Z</time>
      </trkpt>
      <trkpt lat="45.32236" lon="6.23825">
        <ele>1332.4959716797</ele>
        <time>2017-02-25T10:53:36Z</time>
      </trkpt>
      <trkpt lat="45.32232" lon="6.23829">
        <ele>1330.4959716797</ele>
        <time>2017-02-25T10:53:46Z</time>
      </trkpt>
      <trkpt lat="45.32225" lon="6.23829">
        <ele>1329.4959716797</ele>
        <time>2017-02-25T10:53:52Z</time>
      </trkpt>
      <trkpt lat="45.32221" lon="6.23832">
        <ele>1330.4959716797</ele>
        <time>2017-02-25T10:53:57Z</time>
      </trkpt>
      <trkpt lat="45.32216" lon="6.23835">
        <ele>1329.4959716797</ele>
        <time>2017-02-25T10:54:03Z</time>
      </trkpt>
      <trkpt lat="45.32212" lon="6.23838">
        <ele>1329.4959716797</ele>
        <time>2017-02-25T10:54:07Z</time>
      </trkpt>
      <trkpt lat="45.32207" lon="6.23839">
        <ele>1326.4959716797</ele>
        <time>2017-02-25T10:54:13Z</time>
      </trkpt>
      <trkpt lat="45.32202" lon="6.23842">
        <ele>1326.4959716797</ele>
        <time>2017-02-25T10:54:18Z</time>
      </trkpt>
      <trkpt lat="45.32197" lon="6.23846">
        <ele>1326.4959716797</ele>
        <time>2017-02-25T10:54:23Z</time>
      </trkpt>
      <trkpt lat="45.32192" lon="6.2385">
        <ele>1324.4959716797</ele>
        <time>2017-02-25T10:54:29Z</time>
      </trkpt>
      <trkpt lat="45.32187" lon="6.23851">
        <ele>1323.4959716797</ele>
        <time>2017-02-25T10:54:33Z</time>
      </trkpt>
      <trkpt lat="45.32184" lon="6.23857">
        <ele>1321.4959716797</ele>
        <time>2017-02-25T10:54:42Z</time>
      </trkpt>
      <trkpt lat="45.3218" lon="6.23863">
        <ele>1321.4959716797</ele>
        <time>2017-02-25T10:54:48Z</time>
      </trkpt>
      <trkpt lat="45.32177" lon="6.23867">
        <ele>1318.4959716797</ele>
        <time>2017-02-25T10:54:55Z</time>
      </trkpt>
      <trkpt lat="45.32175" lon="6.23874">
        <ele>1309.4959716797</ele>
        <time>2017-02-25T10:55:12Z</time>
      </trkpt>
      <trkpt lat="45.32172" lon="6.23881">
        <ele>1308.4959716797</ele>
        <time>2017-02-25T10:55:17Z</time>
      </trkpt>
      <trkpt lat="45.32177" lon="6.23882">
        <ele>1305.4959716797</ele>
        <time>2017-02-25T10:55:23Z</time>
      </trkpt>
      <trkpt lat="45.3218" lon="6.23888">
        <ele>1305.4959716797</ele>
        <time>2017-02-25T10:55:29Z</time>
      </trkpt>
      <trkpt lat="45.3218" lon="6.23896">
        <ele>1305.4959716797</ele>
        <time>2017-02-25T10:55:36Z</time>
      </trkpt>
      <trkpt lat="45.3218" lon="6.23903">
        <ele>1305.4959716797</ele>
        <time>2017-02-25T10:55:42Z</time>
      </trkpt>
      <trkpt lat="45.32178" lon="6.23911">
        <ele>1305.4959716797</ele>
        <time>2017-02-25T10:55:45Z</time>
      </trkpt>
      <trkpt lat="45.32173" lon="6.23914">
        <ele>1299.4959716797</ele>
        <time>2017-02-25T10:55:52Z</time>
      </trkpt>
      <trkpt lat="45.32171" lon="6.23919">
        <ele>1299.4959716797</ele>
        <time>2017-02-25T10:55:56Z</time>
      </trkpt>
      <trkpt lat="45.32166" lon="6.23922">
        <ele>1297.4959716797</ele>
        <time>2017-02-25T10:56:03Z</time>
      </trkpt>
      <trkpt lat="45.32162" lon="6.23926">
        <ele>1297.4959716797</ele>
        <time>2017-02-25T10:56:07Z</time>
      </trkpt>
      <trkpt lat="45.32158" lon="6.2393">
        <ele>1291.4959716797</ele>
        <time>2017-02-25T10:56:14Z</time>
      </trkpt>
      <trkpt lat="45.32156" lon="6.23937">
        <ele>1291.4959716797</ele>
        <time>2017-02-25T10:56:20Z</time>
      </trkpt>
      <trkpt lat="45.32154" lon="6.23943">
        <ele>1288.4959716797</ele>
        <time>2017-02-25T10:56:25Z</time>
      </trkpt>
      <trkpt lat="45.32149" lon="6.23944">
        <ele>1285.4959716797</ele>
        <time>2017-02-25T10:56:30Z</time>
      </trkpt>
      <trkpt lat="45.32147" lon="6.23952">
        <ele>1283.4959716797</ele>
        <time>2017-02-25T10:56:39Z</time>
      </trkpt>
      <trkpt lat="45.32144" lon="6.23956">
        <ele>1284.4959716797</ele>
        <time>2017-02-25T10:56:43Z</time>
      </trkpt>
      <trkpt lat="45.3214" lon="6.23961">
        <ele>1283.4959716797</ele>
        <time>2017-02-25T10:56:49Z</time>
      </trkpt>
      <trkpt lat="45.32136" lon="6.23963">
        <ele>1280.4959716797</ele>
        <time>2017-02-25T10:56:54Z</time>
      </trkpt>
      <trkpt lat="45.32132" lon="6.23969">
        <ele>1278.4959716797</ele>
        <time>2017-02-25T10:56:59Z</time>
      </trkpt>
      <trkpt lat="45.32129" lon="6.23974">
        <ele>1279.4959716797</ele>
        <time>2017-02-25T10:57:02Z</time>
      </trkpt>
      <trkpt lat="45.32126" lon="6.23979">
        <ele>1278.4959716797</ele>
        <time>2017-02-25T10:57:06Z</time>
      </trkpt>
      <trkpt lat="45.32122" lon="6.23983">
        <ele>1277.4959716797</ele>
        <time>2017-02-25T10:57:11Z</time>
      </trkpt>
      <trkpt lat="45.32117" lon="6.23985">
        <ele>1275.4959716797</ele>
        <time>2017-02-25T10:57:17Z</time>
      </trkpt>
      <trkpt lat="45.32113" lon="6.23989">
        <ele>1276.4959716797</ele>
        <time>2017-02-25T10:57:21Z</time>
      </trkpt>
      <trkpt lat="45.32109" lon="6.23993">
        <ele>1277.4959716797</ele>
        <time>2017-02-25T10:57:26Z</time>
      </trkpt>
      <trkpt lat="45.32104" lon="6.23996">
        <ele>1277.4959716797</ele>
        <time>2017-02-25T10:57:30Z</time>
      </trkpt>
      <trkpt lat="45.32103" lon="6.24002">
        <ele>1278.4959716797</ele>
        <time>2017-02-25T10:57:35Z</time>
      </trkpt>
      <trkpt lat="45.32101" lon="6.24008">
        <ele>1278.4959716797</ele>
        <time>2017-02-25T10:57:39Z</time>
      </trkpt>
      <trkpt lat="45.32099" lon="6.24015">
        <ele>1277.4959716797</ele>
        <time>2017-02-25T10:57:43Z</time>
      </trkpt>
      <trkpt lat="45.32095" lon="6.2402">
        <ele>1276.4959716797</ele>
        <time>2017-02-25T10:57:48Z</time>
      </trkpt>
      <trkpt lat="45.3209" lon="6.2402">
        <ele>1271.4959716797</ele>
        <time>2017-02-25T10:57:58Z</time>
      </trkpt>
      <trkpt lat="45.32084" lon="6.24021">
        <ele>1271.4959716797</ele>
        <time>2017-02-25T10:58:03Z</time>
      </trkpt>
      <trkpt lat="45.3208" lon="6.24022">
        <ele>1271.4959716797</ele>
        <time>2017-02-25T10:58:10Z</time>
      </trkpt>
      <trkpt lat="45.32076" lon="6.24028">
        <ele>1274.4959716797</ele>
        <time>2017-02-25T10:58:14Z</time>
      </trkpt>
      <trkpt lat="45.32072" lon="6.24032">
        <ele>1269.4959716797</ele>
        <time>2017-02-25T10:58:20Z</time>
      </trkpt>
      <trkpt lat="45.32067" lon="6.24036">
        <ele>1269.4959716797</ele>
        <time>2017-02-25T10:58:24Z</time>
      </trkpt>
      <trkpt lat="45.32062" lon="6.24039">
        <ele>1268.4959716797</ele>
        <time>2017-02-25T10:58:29Z</time>
      </trkpt>
      <trkpt lat="45.32059" lon="6.24044">
        <ele>1270.4959716797</ele>
        <time>2017-02-25T10:58:33Z</time>
      </trkpt>
      <trkpt lat="45.32054" lon="6.24048">
        <ele>1269.4959716797</ele>
        <time>2017-02-25T10:58:38Z</time>
      </trkpt>
      <trkpt lat="45.32049" lon="6.24049">
        <ele>1270.4959716797</ele>
        <time>2017-02-25T10:58:42Z</time>
      </trkpt>
      <trkpt lat="45.32045" lon="6.24051">
        <ele>1270.4959716797</ele>
        <time>2017-02-25T10:58:45Z</time>
      </trkpt>
      <trkpt lat="45.32041" lon="6.24056">
        <ele>1271.4959716797</ele>
        <time>2017-02-25T10:58:49Z</time>
      </trkpt>
      <trkpt lat="45.32036" lon="6.24057">
        <ele>1266.4959716797</ele>
        <time>2017-02-25T10:58:56Z</time>
      </trkpt>
      <trkpt lat="45.32032" lon="6.24059">
        <ele>1266.4959716797</ele>
        <time>2017-02-25T10:58:59Z</time>
      </trkpt>
      <trkpt lat="45.32026" lon="6.24062">
        <ele>1262.4959716797</ele>
        <time>2017-02-25T10:59:06Z</time>
      </trkpt>
      <trkpt lat="45.32022" lon="6.24063">
        <ele>1263.4959716797</ele>
        <time>2017-02-25T10:59:09Z</time>
      </trkpt>
      <trkpt lat="45.32018" lon="6.24066">
        <ele>1257.4959716797</ele>
        <time>2017-02-25T10:59:16Z</time>
      </trkpt>
      <trkpt lat="45.32014" lon="6.2407">
        <ele>1260.4959716797</ele>
        <time>2017-02-25T10:59:19Z</time>
      </trkpt>
      <trkpt lat="45.3201" lon="6.24074">
        <ele>1259.4959716797</ele>
        <time>2017-02-25T10:59:23Z</time>
      </trkpt>
      <trkpt lat="45.32006" lon="6.24078">
        <ele>1259.4959716797</ele>
        <time>2017-02-25T10:59:27Z</time>
      </trkpt>
      <trkpt lat="45.32" lon="6.24083">
        <ele>1260.4959716797</ele>
        <time>2017-02-25T10:59:31Z</time>
      </trkpt>
      <trkpt lat="45.31998" lon="6.24088">
        <ele>1257.4959716797</ele>
        <time>2017-02-25T10:59:37Z</time>
      </trkpt>
      <trkpt lat="45.31995" lon="6.24094">
        <ele>1252.4959716797</ele>
        <time>2017-02-25T10:59:46Z</time>
      </trkpt>
      <trkpt lat="45.31992" lon="6.241">
        <ele>1250.4959716797</ele>
        <time>2017-02-25T10:59:50Z</time>
      </trkpt>
      <trkpt lat="45.31989" lon="6.24107">
        <ele>1251.4959716797</ele>
        <time>2017-02-25T10:59:55Z</time>
      </trkpt>
      <trkpt lat="45.31985" lon="6.2411">
        <ele>1251.4959716797</ele>
        <time>2017-02-25T10:59:59Z</time>
      </trkpt>
      <trkpt lat="45.31981" lon="6.24114">
        <ele>1246.4959716797</ele>
        <time>2017-02-25T11:00:06Z</time>
      </trkpt>
      <trkpt lat="45.31977" lon="6.24116">
        <ele>1241.4959716797</ele>
        <time>2017-02-25T11:00:11Z</time>
      </trkpt>
      <trkpt lat="45.31975" lon="6.24124">
        <ele>1241.4959716797</ele>
        <time>2017-02-25T11:00:15Z</time>
      </trkpt>
      <trkpt lat="45.31974" lon="6.24131">
        <ele>1241.4959716797</ele>
        <time>2017-02-25T11:00:20Z</time>
      </trkpt>
      <trkpt lat="45.31971" lon="6.24139">
        <ele>1240.4959716797</ele>
        <time>2017-02-25T11:00:24Z</time>
      </trkpt>
      <trkpt lat="45.31969" lon="6.24144">
        <ele>1240.4959716797</ele>
        <time>2017-02-25T11:00:30Z</time>
      </trkpt>
      <trkpt lat="45.31965" lon="6.24149">
        <ele>1239.4959716797</ele>
        <time>2017-02-25T11:00:37Z</time>
      </trkpt>
      <trkpt lat="45.31963" lon="6.24157">
        <ele>1237.4959716797</ele>
        <time>2017-02-25T11:00:40Z</time>
      </trkpt>
      <trkpt lat="45.3196" lon="6.24162">
        <ele>1235.4959716797</ele>
        <time>2017-02-25T11:00:45Z</time>
      </trkpt>
      <trkpt lat="45.31962" lon="6.2417">
        <ele>1234.4959716797</ele>
        <time>2017-02-25T11:00:49Z</time>
      </trkpt>
      <trkpt lat="45.31959" lon="6.24177">
        <ele>1235.4959716797</ele>
        <time>2017-02-25T11:00:54Z</time>
      </trkpt>
      <trkpt lat="45.31956" lon="6.24184">
        <ele>1233.4959716797</ele>
        <time>2017-02-25T11:00:58Z</time>
      </trkpt>
      <trkpt lat="45.31953" lon="6.24189">
        <ele>1235.4959716797</ele>
        <time>2017-02-25T11:01:02Z</time>
      </trkpt>
      <trkpt lat="45.31949" lon="6.24195">
        <ele>1232.4959716797</ele>
        <time>2017-02-25T11:01:06Z</time>
      </trkpt>
      <trkpt lat="45.31946" lon="6.242">
        <ele>1229.4959716797</ele>
        <time>2017-02-25T11:01:09Z</time>
      </trkpt>
      <trkpt lat="45.31947" lon="6.24207">
        <ele>1231.4959716797</ele>
        <time>2017-02-25T11:01:12Z</time>
      </trkpt>
      <trkpt lat="45.31946" lon="6.24215">
        <ele>1226.4959716797</ele>
        <time>2017-02-25T11:01:19Z</time>
      </trkpt>
      <trkpt lat="45.31942" lon="6.24219">
        <ele>1224.4959716797</ele>
        <time>2017-02-25T11:01:23Z</time>
      </trkpt>
      <trkpt lat="45.31937" lon="6.24222">
        <ele>1227.4959716797</ele>
        <time>2017-02-25T11:01:27Z</time>
      </trkpt>
      <trkpt lat="45.31934" lon="6.24226">
        <ele>1223.4959716797</ele>
        <time>2017-02-25T11:01:31Z</time>
      </trkpt>
      <trkpt lat="45.31932" lon="6.24233">
        <ele>1218.4959716797</ele>
        <time>2017-02-25T11:01:34Z</time>
      </trkpt>
      <trkpt lat="45.31927" lon="6.24237">
        <ele>1216.4959716797</ele>
        <time>2017-02-25T11:01:41Z</time>
      </trkpt>
      <trkpt lat="45.31925" lon="6.24243">
        <ele>1215.4959716797</ele>
        <time>2017-02-25T11:01:45Z</time>
      </trkpt>
      <trkpt lat="45.31921" lon="6.24248">
        <ele>1215.4959716797</ele>
        <time>2017-02-25T11:01:50Z</time>
      </trkpt>
      <trkpt lat="45.31918" lon="6.24255">
        <ele>1216.4959716797</ele>
        <time>2017-02-25T11:01:53Z</time>
      </trkpt>
      <trkpt lat="45.31915" lon="6.24259">
        <ele>1215.4959716797</ele>
        <time>2017-02-25T11:01:57Z</time>
      </trkpt>
      <trkpt lat="45.31913" lon="6.24268">
        <ele>1213.4959716797</ele>
        <time>2017-02-25T11:02:01Z</time>
      </trkpt>
      <trkpt lat="45.31909" lon="6.24272">
        <ele>1217.4959716797</ele>
        <time>2017-02-25T11:02:04Z</time>
      </trkpt>
      <trkpt lat="45.31905" lon="6.24276">
        <ele>1217.4959716797</ele>
        <time>2017-02-25T11:02:07Z</time>
      </trkpt>
      <trkpt lat="45.31902" lon="6.24282">
        <ele>1215.4959716797</ele>
        <time>2017-02-25T11:02:12Z</time>
      </trkpt>
      <trkpt lat="45.31898" lon="6.24284">
        <ele>1217.4959716797</ele>
        <time>2017-02-25T11:02:16Z</time>
      </trkpt>
      <trkpt lat="45.31889" lon="6.24282">
        <ele>1212.4959716797</ele>
        <time>2017-02-25T11:02:20Z</time>
      </trkpt>
      <trkpt lat="45.31884" lon="6.24285">
        <ele>1212.4959716797</ele>
        <time>2017-02-25T11:02:23Z</time>
      </trkpt>
      <trkpt lat="45.31878" lon="6.24285">
        <ele>1212.4959716797</ele>
        <time>2017-02-25T11:02:30Z</time>
      </trkpt>
      <trkpt lat="45.31873" lon="6.24288">
        <ele>1211.4959716797</ele>
        <time>2017-02-25T11:02:33Z</time>
      </trkpt>
      <trkpt lat="45.31868" lon="6.2429">
        <ele>1206.4959716797</ele>
        <time>2017-02-25T11:02:38Z</time>
      </trkpt>
      <trkpt lat="45.31863" lon="6.24289">
        <ele>1204.4959716797</ele>
        <time>2017-02-25T11:02:42Z</time>
      </trkpt>
      <trkpt lat="45.31858" lon="6.24289">
        <ele>1199.4959716797</ele>
        <time>2017-02-25T11:02:48Z</time>
      </trkpt>
      <trkpt lat="45.3185" lon="6.24288">
        <ele>1202.4959716797</ele>
        <time>2017-02-25T11:02:52Z</time>
      </trkpt>
      <trkpt lat="45.31845" lon="6.2429">
        <ele>1202.4959716797</ele>
        <time>2017-02-25T11:02:57Z</time>
      </trkpt>
      <trkpt lat="45.31838" lon="6.2429">
        <ele>1202.4959716797</ele>
        <time>2017-02-25T11:03:02Z</time>
      </trkpt>
      <trkpt lat="45.31833" lon="6.24287">
        <ele>1201.4959716797</ele>
        <time>2017-02-25T11:03:12Z</time>
      </trkpt>
      <trkpt lat="45.31827" lon="6.24288">
        <ele>1200.4959716797</ele>
        <time>2017-02-25T11:03:16Z</time>
      </trkpt>
      <trkpt lat="45.31823" lon="6.24286">
        <ele>1201.4959716797</ele>
        <time>2017-02-25T11:03:19Z</time>
      </trkpt>
      <trkpt lat="45.31818" lon="6.24285">
        <ele>1199.4959716797</ele>
        <time>2017-02-25T11:03:24Z</time>
      </trkpt>
      <trkpt lat="45.31812" lon="6.24286">
        <ele>1203.4959716797</ele>
        <time>2017-02-25T11:03:28Z</time>
      </trkpt>
      <trkpt lat="45.31806" lon="6.24282">
        <ele>1202.4959716797</ele>
        <time>2017-02-25T11:03:37Z</time>
      </trkpt>
      <trkpt lat="45.31801" lon="6.24282">
        <ele>1203.4959716797</ele>
        <time>2017-02-25T11:03:39Z</time>
      </trkpt>
      <trkpt lat="45.31796" lon="6.24278">
        <ele>1202.4959716797</ele>
        <time>2017-02-25T11:03:44Z</time>
      </trkpt>
      <trkpt lat="45.31791" lon="6.24274">
        <ele>1198.4959716797</ele>
        <time>2017-02-25T11:03:46Z</time>
      </trkpt>
      <trkpt lat="45.31786" lon="6.24274">
        <ele>1197.4959716797</ele>
        <time>2017-02-25T11:03:53Z</time>
      </trkpt>
      <trkpt lat="45.31781" lon="6.24271">
        <ele>1194.4959716797</ele>
        <time>2017-02-25T11:03:57Z</time>
      </trkpt>
      <trkpt lat="45.31776" lon="6.24269">
        <ele>1194.4959716797</ele>
        <time>2017-02-25T11:03:59Z</time>
      </trkpt>
      <trkpt lat="45.31771" lon="6.24267">
        <ele>1194.4959716797</ele>
        <time>2017-02-25T11:04:02Z</time>
      </trkpt>
      <trkpt lat="45.31766" lon="6.24265">
        <ele>1192.4959716797</ele>
        <time>2017-02-25T11:04:06Z</time>
      </trkpt>
      <trkpt lat="45.31761" lon="6.24264">
        <ele>1193.4959716797</ele>
        <time>2017-02-25T11:04:09Z</time>
      </trkpt>
      <trkpt lat="45.3175" lon="6.24265">
        <ele>1198.4959716797</ele>
        <time>2017-02-25T11:04:14Z</time>
      </trkpt>
      <trkpt lat="45.31745" lon="6.24269">
        <ele>1196.4959716797</ele>
        <time>2017-02-25T11:04:17Z</time>
      </trkpt>
      <trkpt lat="45.31742" lon="6.24276">
        <ele>1193.4959716797</ele>
        <time>2017-02-25T11:04:26Z</time>
      </trkpt>
      <trkpt lat="45.31738" lon="6.24278">
        <ele>1190.4959716797</ele>
        <time>2017-02-25T11:04:35Z</time>
      </trkpt>
      <trkpt lat="45.31732" lon="6.24281">
        <ele>1189.4959716797</ele>
        <time>2017-02-25T11:04:40Z</time>
      </trkpt>
      <trkpt lat="45.31728" lon="6.24283">
        <ele>1189.4959716797</ele>
        <time>2017-02-25T11:04:44Z</time>
      </trkpt>
      <trkpt lat="45.31724" lon="6.24289">
        <ele>1188.4959716797</ele>
        <time>2017-02-25T11:04:49Z</time>
      </trkpt>
      <trkpt lat="45.31722" lon="6.24296">
        <ele>1189.4959716797</ele>
        <time>2017-02-25T11:04:53Z</time>
      </trkpt>
      <trkpt lat="45.31719" lon="6.24301">
        <ele>1188.4959716797</ele>
        <time>2017-02-25T11:04:55Z</time>
      </trkpt>
      <trkpt lat="45.31716" lon="6.24309">
        <ele>1186.4959716797</ele>
        <time>2017-02-25T11:05:00Z</time>
      </trkpt>
      <trkpt lat="45.31713" lon="6.24315">
        <ele>1188.4959716797</ele>
        <time>2017-02-25T11:05:07Z</time>
      </trkpt>
      <trkpt lat="45.31708" lon="6.24318">
        <ele>1187.4959716797</ele>
        <time>2017-02-25T11:05:11Z</time>
      </trkpt>
      <trkpt lat="45.31703" lon="6.24321">
        <ele>1187.4959716797</ele>
        <time>2017-02-25T11:05:17Z</time>
      </trkpt>
      <trkpt lat="45.31702" lon="6.24327">
        <ele>1185.4959716797</ele>
        <time>2017-02-25T11:05:22Z</time>
      </trkpt>
      <trkpt lat="45.31696" lon="6.2433">
        <ele>1187.4959716797</ele>
        <time>2017-02-25T11:05:28Z</time>
      </trkpt>
      <trkpt lat="45.3169" lon="6.24336">
        <ele>1184.4959716797</ele>
        <time>2017-02-25T11:05:32Z</time>
      </trkpt>
      <trkpt lat="45.31686" lon="6.2434">
        <ele>1183.4959716797</ele>
        <time>2017-02-25T11:05:35Z</time>
      </trkpt>
      <trkpt lat="45.31682" lon="6.24342">
        <ele>1184.4959716797</ele>
        <time>2017-02-25T11:05:39Z</time>
      </trkpt>
      <trkpt lat="45.31679" lon="6.24348">
        <ele>1181.4959716797</ele>
        <time>2017-02-25T11:05:42Z</time>
      </trkpt>
      <trkpt lat="45.31675" lon="6.24352">
        <ele>1179.4959716797</ele>
        <time>2017-02-25T11:05:47Z</time>
      </trkpt>
      <trkpt lat="45.31672" lon="6.24358">
        <ele>1177.4959716797</ele>
        <time>2017-02-25T11:05:52Z</time>
      </trkpt>
      <trkpt lat="45.31669" lon="6.24365">
        <ele>1178.4959716797</ele>
        <time>2017-02-25T11:05:55Z</time>
      </trkpt>
      <trkpt lat="45.31667" lon="6.24372">
        <ele>1179.4959716797</ele>
        <time>2017-02-25T11:06:00Z</time>
      </trkpt>
      <trkpt lat="45.31662" lon="6.24375">
        <ele>1180.4959716797</ele>
        <time>2017-02-25T11:06:03Z</time>
      </trkpt>
      <trkpt lat="45.31659" lon="6.24382">
        <ele>1178.4959716797</ele>
        <time>2017-02-25T11:06:07Z</time>
      </trkpt>
      <trkpt lat="45.31655" lon="6.24387">
        <ele>1178.4959716797</ele>
        <time>2017-02-25T11:06:12Z</time>
      </trkpt>
      <trkpt lat="45.31651" lon="6.24392">
        <ele>1179.4959716797</ele>
        <time>2017-02-25T11:06:15Z</time>
      </trkpt>
      <trkpt lat="45.31648" lon="6.24396">
        <ele>1180.4959716797</ele>
        <time>2017-02-25T11:06:18Z</time>
      </trkpt>
      <trkpt lat="45.31644" lon="6.24403">
        <ele>1175.4959716797</ele>
        <time>2017-02-25T11:06:22Z</time>
      </trkpt>
      <trkpt lat="45.3164" lon="6.24407">
        <ele>1175.4959716797</ele>
        <time>2017-02-25T11:06:27Z</time>
      </trkpt>
      <trkpt lat="45.31636" lon="6.24411">
        <ele>1175.4959716797</ele>
        <time>2017-02-25T11:06:31Z</time>
      </trkpt>
      <trkpt lat="45.31633" lon="6.24417">
        <ele>1174.4959716797</ele>
        <time>2017-02-25T11:06:36Z</time>
      </trkpt>
      <trkpt lat="45.3163" lon="6.24424">
        <ele>1176.4959716797</ele>
        <time>2017-02-25T11:06:39Z</time>
      </trkpt>
      <trkpt lat="45.31625" lon="6.24428">
        <ele>1174.4959716797</ele>
        <time>2017-02-25T11:06:46Z</time>
      </trkpt>
      <trkpt lat="45.31621" lon="6.24431">
        <ele>1173.4959716797</ele>
        <time>2017-02-25T11:06:50Z</time>
      </trkpt>
      <trkpt lat="45.31618" lon="6.24437">
        <ele>1173.4959716797</ele>
        <time>2017-02-25T11:06:53Z</time>
      </trkpt>
      <trkpt lat="45.31614" lon="6.2444">
        <ele>1171.4959716797</ele>
        <time>2017-02-25T11:06:58Z</time>
      </trkpt>
      <trkpt lat="45.31611" lon="6.24446">
        <ele>1170.4959716797</ele>
        <time>2017-02-25T11:07:02Z</time>
      </trkpt>
      <trkpt lat="45.31605" lon="6.24447">
        <ele>1172.4959716797</ele>
        <time>2017-02-25T11:07:04Z</time>
      </trkpt>
      <trkpt lat="45.31602" lon="6.24452">
        <ele>1171.4959716797</ele>
        <time>2017-02-25T11:07:08Z</time>
      </trkpt>
      <trkpt lat="45.31599" lon="6.24459">
        <ele>1171.4959716797</ele>
        <time>2017-02-25T11:07:13Z</time>
      </trkpt>
      <trkpt lat="45.31598" lon="6.24465">
        <ele>1169.4959716797</ele>
        <time>2017-02-25T11:07:17Z</time>
      </trkpt>
      <trkpt lat="45.31597" lon="6.24472">
        <ele>1170.4959716797</ele>
        <time>2017-02-25T11:07:23Z</time>
      </trkpt>
      <trkpt lat="45.31595" lon="6.24479">
        <ele>1167.4959716797</ele>
        <time>2017-02-25T11:07:28Z</time>
      </trkpt>
      <trkpt lat="45.31594" lon="6.24487">
        <ele>1171.4959716797</ele>
        <time>2017-02-25T11:07:32Z</time>
      </trkpt>
      <trkpt lat="45.31594" lon="6.24494">
        <ele>1171.4959716797</ele>
        <time>2017-02-25T11:07:36Z</time>
      </trkpt>
      <trkpt lat="45.31591" lon="6.24501">
        <ele>1173.4959716797</ele>
        <time>2017-02-25T11:07:40Z</time>
      </trkpt>
      <trkpt lat="45.31591" lon="6.24509">
        <ele>1173.4959716797</ele>
        <time>2017-02-25T11:07:43Z</time>
      </trkpt>
      <trkpt lat="45.31589" lon="6.24516">
        <ele>1175.4959716797</ele>
        <time>2017-02-25T11:07:46Z</time>
      </trkpt>
      <trkpt lat="45.31585" lon="6.24524">
        <ele>1174.4959716797</ele>
        <time>2017-02-25T11:07:49Z</time>
      </trkpt>
      <trkpt lat="45.31582" lon="6.24529">
        <ele>1174.4959716797</ele>
        <time>2017-02-25T11:07:52Z</time>
      </trkpt>
      <trkpt lat="45.31577" lon="6.24531">
        <ele>1174.4959716797</ele>
        <time>2017-02-25T11:07:55Z</time>
      </trkpt>
      <trkpt lat="45.31573" lon="6.2453">
        <ele>1171.4959716797</ele>
        <time>2017-02-25T11:07:59Z</time>
      </trkpt>
      <trkpt lat="45.31566" lon="6.24528">
        <ele>1172.4959716797</ele>
        <time>2017-02-25T11:08:06Z</time>
      </trkpt>
      <trkpt lat="45.31561" lon="6.24525">
        <ele>1173.4959716797</ele>
        <time>2017-02-25T11:08:08Z</time>
      </trkpt>
      <trkpt lat="45.31557" lon="6.24521">
        <ele>1174.4959716797</ele>
        <time>2017-02-25T11:08:10Z</time>
      </trkpt>
      <trkpt lat="45.31553" lon="6.24514">
        <ele>1172.4959716797</ele>
        <time>2017-02-25T11:08:19Z</time>
      </trkpt>
      <trkpt lat="45.3155" lon="6.24508">
        <ele>1173.4959716797</ele>
        <time>2017-02-25T11:08:24Z</time>
      </trkpt>
      <trkpt lat="45.31548" lon="6.24502">
        <ele>1169.4959716797</ele>
        <time>2017-02-25T11:08:27Z</time>
      </trkpt>
      <trkpt lat="45.31545" lon="6.24497">
        <ele>1170.4959716797</ele>
        <time>2017-02-25T11:08:30Z</time>
      </trkpt>
      <trkpt lat="45.31541" lon="6.24491">
        <ele>1168.4959716797</ele>
        <time>2017-02-25T11:08:34Z</time>
      </trkpt>
      <trkpt lat="45.31536" lon="6.2449">
        <ele>1169.4959716797</ele>
        <time>2017-02-25T11:08:37Z</time>
      </trkpt>
      <trkpt lat="45.31532" lon="6.2449">
        <ele>1170.4959716797</ele>
        <time>2017-02-25T11:08:43Z</time>
      </trkpt>
      <trkpt lat="45.31527" lon="6.24493">
        <ele>1171.4959716797</ele>
        <time>2017-02-25T11:08:47Z</time>
      </trkpt>
      <trkpt lat="45.31522" lon="6.24493">
        <ele>1170.4959716797</ele>
        <time>2017-02-25T11:08:50Z</time>
      </trkpt>
      <trkpt lat="45.31518" lon="6.24497">
        <ele>1170.4959716797</ele>
        <time>2017-02-25T11:08:55Z</time>
      </trkpt>
      <trkpt lat="45.31512" lon="6.245">
        <ele>1173.4959716797</ele>
        <time>2017-02-25T11:09:02Z</time>
      </trkpt>
      <trkpt lat="45.31507" lon="6.24502">
        <ele>1169.4959716797</ele>
        <time>2017-02-25T11:09:06Z</time>
      </trkpt>
      <trkpt lat="45.31502" lon="6.24503">
        <ele>1169.4959716797</ele>
        <time>2017-02-25T11:09:11Z</time>
      </trkpt>
      <trkpt lat="45.31497" lon="6.24505">
        <ele>1169.4959716797</ele>
        <time>2017-02-25T11:09:15Z</time>
      </trkpt>
      <trkpt lat="45.31491" lon="6.24504">
        <ele>1169.4959716797</ele>
        <time>2017-02-25T11:09:21Z</time>
      </trkpt>
      <trkpt lat="45.31485" lon="6.24499">
        <ele>1169.4959716797</ele>
        <time>2017-02-25T11:09:26Z</time>
      </trkpt>
      <trkpt lat="45.31483" lon="6.24493">
        <ele>1169.4959716797</ele>
        <time>2017-02-25T11:09:29Z</time>
      </trkpt>
      <trkpt lat="45.3148" lon="6.24487">
        <ele>1168.4959716797</ele>
        <time>2017-02-25T11:09:34Z</time>
      </trkpt>
      <trkpt lat="45.31477" lon="6.24482">
        <ele>1166.4959716797</ele>
        <time>2017-02-25T11:09:40Z</time>
      </trkpt>
      <trkpt lat="45.31471" lon="6.24484">
        <ele>1169.4959716797</ele>
        <time>2017-02-25T11:09:49Z</time>
      </trkpt>
      <trkpt lat="45.31467" lon="6.24489">
        <ele>1170.4959716797</ele>
        <time>2017-02-25T11:09:52Z</time>
      </trkpt>
      <trkpt lat="45.31463" lon="6.24495">
        <ele>1170.4959716797</ele>
        <time>2017-02-25T11:09:58Z</time>
      </trkpt>
      <trkpt lat="45.31459" lon="6.245">
        <ele>1170.4959716797</ele>
        <time>2017-02-25T11:10:04Z</time>
      </trkpt>
      <trkpt lat="45.31456" lon="6.24506">
        <ele>1166.4959716797</ele>
        <time>2017-02-25T11:10:10Z</time>
      </trkpt>
      <trkpt lat="45.31453" lon="6.24513">
        <ele>1166.4959716797</ele>
        <time>2017-02-25T11:10:14Z</time>
      </trkpt>
      <trkpt lat="45.31451" lon="6.24519">
        <ele>1167.4959716797</ele>
        <time>2017-02-25T11:10:19Z</time>
      </trkpt>
      <trkpt lat="45.31448" lon="6.24527">
        <ele>1165.4959716797</ele>
        <time>2017-02-25T11:10:24Z</time>
      </trkpt>
      <trkpt lat="45.31442" lon="6.2453">
        <ele>1165.4959716797</ele>
        <time>2017-02-25T11:10:32Z</time>
      </trkpt>
      <trkpt lat="45.31437" lon="6.24527">
        <ele>1163.4959716797</ele>
        <time>2017-02-25T11:10:38Z</time>
      </trkpt>
      <trkpt lat="45.31431" lon="6.24529">
        <ele>1165.4959716797</ele>
        <time>2017-02-25T11:10:43Z</time>
      </trkpt>
      <trkpt lat="45.31426" lon="6.2453">
        <ele>1163.4959716797</ele>
        <time>2017-02-25T11:10:49Z</time>
      </trkpt>
      <trkpt lat="45.31421" lon="6.24531">
        <ele>1160.4959716797</ele>
        <time>2017-02-25T11:10:51Z</time>
      </trkpt>
      <trkpt lat="45.31417" lon="6.24536">
        <ele>1163.4959716797</ele>
        <time>2017-02-25T11:10:56Z</time>
      </trkpt>
      <trkpt lat="45.31413" lon="6.24539">
        <ele>1162.4959716797</ele>
        <time>2017-02-25T11:11:01Z</time>
      </trkpt>
      <trkpt lat="45.31411" lon="6.24545">
        <ele>1159.4959716797</ele>
        <time>2017-02-25T11:11:06Z</time>
      </trkpt>
      <trkpt lat="45.31409" lon="6.24552">
        <ele>1157.4959716797</ele>
        <time>2017-02-25T11:11:10Z</time>
      </trkpt>
      <trkpt lat="45.3141" lon="6.24559">
        <ele>1159.4959716797</ele>
        <time>2017-02-25T11:11:14Z</time>
      </trkpt>
      <trkpt lat="45.31405" lon="6.24564">
        <ele>1156.4959716797</ele>
        <time>2017-02-25T11:11:19Z</time>
      </trkpt>
      <trkpt lat="45.31403" lon="6.24569">
        <ele>1156.4959716797</ele>
        <time>2017-02-25T11:11:22Z</time>
      </trkpt>
      <trkpt lat="45.314" lon="6.24576">
        <ele>1155.4959716797</ele>
        <time>2017-02-25T11:11:26Z</time>
      </trkpt>
      <trkpt lat="45.31397" lon="6.24581">
        <ele>1157.4959716797</ele>
        <time>2017-02-25T11:11:30Z</time>
      </trkpt>
      <trkpt lat="45.31396" lon="6.24589">
        <ele>1159.4959716797</ele>
        <time>2017-02-25T11:11:35Z</time>
      </trkpt>
      <trkpt lat="45.31395" lon="6.24596">
        <ele>1157.4959716797</ele>
        <time>2017-02-25T11:11:42Z</time>
      </trkpt>
      <trkpt lat="45.31392" lon="6.24605">
        <ele>1159.4959716797</ele>
        <time>2017-02-25T11:11:52Z</time>
      </trkpt>
      <trkpt lat="45.31391" lon="6.24611">
        <ele>1162.4959716797</ele>
        <time>2017-02-25T11:11:56Z</time>
      </trkpt>
      <trkpt lat="45.3139" lon="6.24617">
        <ele>1165.4959716797</ele>
        <time>2017-02-25T11:12:01Z</time>
      </trkpt>
      <trkpt lat="45.3139" lon="6.24624">
        <ele>1171.4959716797</ele>
        <time>2017-02-25T11:12:08Z</time>
      </trkpt>
      <trkpt lat="45.31387" lon="6.24633">
        <ele>1171.4959716797</ele>
        <time>2017-02-25T11:12:12Z</time>
      </trkpt>
      <trkpt lat="45.31385" lon="6.24641">
        <ele>1173.4959716797</ele>
        <time>2017-02-25T11:12:15Z</time>
      </trkpt>
      <trkpt lat="45.31385" lon="6.24648">
        <ele>1174.4959716797</ele>
        <time>2017-02-25T11:12:19Z</time>
      </trkpt>
      <trkpt lat="45.31386" lon="6.24657">
        <ele>1178.4959716797</ele>
        <time>2017-02-25T11:12:24Z</time>
      </trkpt>
      <trkpt lat="45.31392" lon="6.24662">
        <ele>1180.4959716797</ele>
        <time>2017-02-25T11:12:27Z</time>
      </trkpt>
      <trkpt lat="45.31394" lon="6.24669">
        <ele>1185.4959716797</ele>
        <time>2017-02-25T11:12:32Z</time>
      </trkpt>
      <trkpt lat="45.31393" lon="6.24678">
        <ele>1187.4959716797</ele>
        <time>2017-02-25T11:12:35Z</time>
      </trkpt>
      <trkpt lat="45.31393" lon="6.24686">
        <ele>1187.4959716797</ele>
        <time>2017-02-25T11:12:41Z</time>
      </trkpt>
      <trkpt lat="45.31395" lon="6.24693">
        <ele>1186.4959716797</ele>
        <time>2017-02-25T11:12:46Z</time>
      </trkpt>
      <trkpt lat="45.31398" lon="6.24699">
        <ele>1186.4959716797</ele>
        <time>2017-02-25T11:12:50Z</time>
      </trkpt>
      <trkpt lat="45.31396" lon="6.24706">
        <ele>1182.4959716797</ele>
        <time>2017-02-25T11:12:53Z</time>
      </trkpt>
      <trkpt lat="45.31394" lon="6.24713">
        <ele>1179.4959716797</ele>
        <time>2017-02-25T11:12:56Z</time>
      </trkpt>
      <trkpt lat="45.31391" lon="6.24719">
        <ele>1175.4959716797</ele>
        <time>2017-02-25T11:13:01Z</time>
      </trkpt>
      <trkpt lat="45.31392" lon="6.24726">
        <ele>1174.4959716797</ele>
        <time>2017-02-25T11:13:06Z</time>
      </trkpt>
      <trkpt lat="45.31392" lon="6.24733">
        <ele>1174.4959716797</ele>
        <time>2017-02-25T11:13:11Z</time>
      </trkpt>
      <trkpt lat="45.31393" lon="6.2474">
        <ele>1174.4959716797</ele>
        <time>2017-02-25T11:13:15Z</time>
      </trkpt>
      <trkpt lat="45.31392" lon="6.24746">
        <ele>1172.4959716797</ele>
        <time>2017-02-25T11:13:19Z</time>
      </trkpt>
      <trkpt lat="45.3139" lon="6.24752">
        <ele>1171.4959716797</ele>
        <time>2017-02-25T11:13:23Z</time>
      </trkpt>
      <trkpt lat="45.31389" lon="6.2476">
        <ele>1167.4959716797</ele>
        <time>2017-02-25T11:13:27Z</time>
      </trkpt>
      <trkpt lat="45.31389" lon="6.24769">
        <ele>1168.4959716797</ele>
        <time>2017-02-25T11:13:32Z</time>
      </trkpt>
      <trkpt lat="45.31387" lon="6.24777">
        <ele>1170.4959716797</ele>
        <time>2017-02-25T11:13:36Z</time>
      </trkpt>
      <trkpt lat="45.31383" lon="6.24784">
        <ele>1171.4959716797</ele>
        <time>2017-02-25T11:13:41Z</time>
      </trkpt>
      <trkpt lat="45.31384" lon="6.2479">
        <ele>1170.4959716797</ele>
        <time>2017-02-25T11:13:45Z</time>
      </trkpt>
      <trkpt lat="45.31385" lon="6.24798">
        <ele>1168.4959716797</ele>
        <time>2017-02-25T11:13:51Z</time>
      </trkpt>
      <trkpt lat="45.31386" lon="6.24806">
        <ele>1170.4959716797</ele>
        <time>2017-02-25T11:13:56Z</time>
      </trkpt>
      <trkpt lat="45.31383" lon="6.24811">
        <ele>1165.4959716797</ele>
        <time>2017-02-25T11:14:03Z</time>
      </trkpt>
      <trkpt lat="45.31381" lon="6.24818">
        <ele>1166.4959716797</ele>
        <time>2017-02-25T11:14:11Z</time>
      </trkpt>
      <trkpt lat="45.31377" lon="6.24823">
        <ele>1164.4959716797</ele>
        <time>2017-02-25T11:14:16Z</time>
      </trkpt>
      <trkpt lat="45.31378" lon="6.24829">
        <ele>1162.4959716797</ele>
        <time>2017-02-25T11:14:19Z</time>
      </trkpt>
      <trkpt lat="45.31375" lon="6.24835">
        <ele>1162.4959716797</ele>
        <time>2017-02-25T11:14:24Z</time>
      </trkpt>
      <trkpt lat="45.31377" lon="6.24842">
        <ele>1161.4959716797</ele>
        <time>2017-02-25T11:14:29Z</time>
      </trkpt>
      <trkpt lat="45.31376" lon="6.24851">
        <ele>1162.4959716797</ele>
        <time>2017-02-25T11:14:32Z</time>
      </trkpt>
      <trkpt lat="45.31376" lon="6.24858">
        <ele>1163.4959716797</ele>
        <time>2017-02-25T11:14:38Z</time>
      </trkpt>
      <trkpt lat="45.31372" lon="6.24863">
        <ele>1163.4959716797</ele>
        <time>2017-02-25T11:14:43Z</time>
      </trkpt>
      <trkpt lat="45.31368" lon="6.24861">
        <ele>1164.4959716797</ele>
        <time>2017-02-25T11:14:47Z</time>
      </trkpt>
      <trkpt lat="45.31365" lon="6.24867">
        <ele>1164.4959716797</ele>
        <time>2017-02-25T11:14:50Z</time>
      </trkpt>
      <trkpt lat="45.3136" lon="6.24871">
        <ele>1163.4959716797</ele>
        <time>2017-02-25T11:14:54Z</time>
      </trkpt>
      <trkpt lat="45.31356" lon="6.24876">
        <ele>1162.4959716797</ele>
        <time>2017-02-25T11:15:00Z</time>
      </trkpt>
      <trkpt lat="45.31353" lon="6.24882">
        <ele>1161.4959716797</ele>
        <time>2017-02-25T11:15:04Z</time>
      </trkpt>
      <trkpt lat="45.31348" lon="6.24886">
        <ele>1160.4959716797</ele>
        <time>2017-02-25T11:15:09Z</time>
      </trkpt>
      <trkpt lat="45.31344" lon="6.24889">
        <ele>1158.4959716797</ele>
        <time>2017-02-25T11:15:12Z</time>
      </trkpt>
      <trkpt lat="45.31339" lon="6.2489">
        <ele>1159.4959716797</ele>
        <time>2017-02-25T11:15:17Z</time>
      </trkpt>
      <trkpt lat="45.31334" lon="6.24894">
        <ele>1158.4959716797</ele>
        <time>2017-02-25T11:15:21Z</time>
      </trkpt>
      <trkpt lat="45.3133" lon="6.24896">
        <ele>1155.4959716797</ele>
        <time>2017-02-25T11:15:26Z</time>
      </trkpt>
      <trkpt lat="45.31325" lon="6.24898">
        <ele>1150.4959716797</ele>
        <time>2017-02-25T11:15:29Z</time>
      </trkpt>
      <trkpt lat="45.3132" lon="6.24898">
        <ele>1152.4959716797</ele>
        <time>2017-02-25T11:15:32Z</time>
      </trkpt>
      <trkpt lat="45.31315" lon="6.24897">
        <ele>1154.4959716797</ele>
        <time>2017-02-25T11:15:44Z</time>
      </trkpt>
      <trkpt lat="45.3131" lon="6.24897">
        <ele>1151.4959716797</ele>
        <time>2017-02-25T11:15:58Z</time>
      </trkpt>
      <trkpt lat="45.31305" lon="6.24897">
        <ele>1153.4959716797</ele>
        <time>2017-02-25T11:16:04Z</time>
      </trkpt>
      <trkpt lat="45.313" lon="6.24893">
        <ele>1153.4959716797</ele>
        <time>2017-02-25T11:16:09Z</time>
      </trkpt>
      <trkpt lat="45.31295" lon="6.24894">
        <ele>1157.4959716797</ele>
        <time>2017-02-25T11:16:14Z</time>
      </trkpt>
      <trkpt lat="45.3129" lon="6.24894">
        <ele>1156.4959716797</ele>
        <time>2017-02-25T11:16:18Z</time>
      </trkpt>
      <trkpt lat="45.31286" lon="6.24899">
        <ele>1158.4959716797</ele>
        <time>2017-02-25T11:16:21Z</time>
      </trkpt>
      <trkpt lat="45.31281" lon="6.24899">
        <ele>1157.4959716797</ele>
        <time>2017-02-25T11:16:26Z</time>
      </trkpt>
      <trkpt lat="45.31276" lon="6.24902">
        <ele>1157.4959716797</ele>
        <time>2017-02-25T11:16:30Z</time>
      </trkpt>
      <trkpt lat="45.31272" lon="6.24905">
        <ele>1160.4959716797</ele>
        <time>2017-02-25T11:16:33Z</time>
      </trkpt>
      <trkpt lat="45.31268" lon="6.24908">
        <ele>1159.4959716797</ele>
        <time>2017-02-25T11:16:36Z</time>
      </trkpt>
      <trkpt lat="45.31264" lon="6.2491">
        <ele>1158.4959716797</ele>
        <time>2017-02-25T11:16:41Z</time>
      </trkpt>
      <trkpt lat="45.31258" lon="6.24913">
        <ele>1158.4959716797</ele>
        <time>2017-02-25T11:16:46Z</time>
      </trkpt>
      <trkpt lat="45.31253" lon="6.24913">
        <ele>1154.4959716797</ele>
        <time>2017-02-25T11:16:52Z</time>
      </trkpt>
      <trkpt lat="45.31248" lon="6.24913">
        <ele>1153.4959716797</ele>
        <time>2017-02-25T11:16:56Z</time>
      </trkpt>
      <trkpt lat="45.31243" lon="6.24914">
        <ele>1151.4959716797</ele>
        <time>2017-02-25T11:17:00Z</time>
      </trkpt>
      <trkpt lat="45.31238" lon="6.24916">
        <ele>1150.4959716797</ele>
        <time>2017-02-25T11:17:06Z</time>
      </trkpt>
      <trkpt lat="45.31233" lon="6.24916">
        <ele>1152.4959716797</ele>
        <time>2017-02-25T11:17:09Z</time>
      </trkpt>
      <trkpt lat="45.31228" lon="6.24915">
        <ele>1152.4959716797</ele>
        <time>2017-02-25T11:17:13Z</time>
      </trkpt>
      <trkpt lat="45.31223" lon="6.24913">
        <ele>1150.4959716797</ele>
        <time>2017-02-25T11:17:16Z</time>
      </trkpt>
      <trkpt lat="45.31218" lon="6.2491">
        <ele>1149.4959716797</ele>
        <time>2017-02-25T11:17:19Z</time>
      </trkpt>
      <trkpt lat="45.31213" lon="6.24908">
        <ele>1148.4959716797</ele>
        <time>2017-02-25T11:17:25Z</time>
      </trkpt>
      <trkpt lat="45.31208" lon="6.24904">
        <ele>1147.4959716797</ele>
        <time>2017-02-25T11:17:29Z</time>
      </trkpt>
      <trkpt lat="45.31202" lon="6.249">
        <ele>1147.4959716797</ele>
        <time>2017-02-25T11:17:33Z</time>
      </trkpt>
      <trkpt lat="45.31199" lon="6.24897">
        <ele>1148.4959716797</ele>
        <time>2017-02-25T11:17:36Z</time>
      </trkpt>
      <trkpt lat="45.31194" lon="6.24893">
        <ele>1148.4959716797</ele>
        <time>2017-02-25T11:17:38Z</time>
      </trkpt>
      <trkpt lat="45.3119" lon="6.24891">
        <ele>1148.4959716797</ele>
        <time>2017-02-25T11:17:42Z</time>
      </trkpt>
      <trkpt lat="45.31185" lon="6.24888">
        <ele>1147.4959716797</ele>
        <time>2017-02-25T11:17:46Z</time>
      </trkpt>
      <trkpt lat="45.3118" lon="6.24884">
        <ele>1146.4959716797</ele>
        <time>2017-02-25T11:17:55Z</time>
      </trkpt>
      <trkpt lat="45.31176" lon="6.2488">
        <ele>1146.4959716797</ele>
        <time>2017-02-25T11:18:00Z</time>
      </trkpt>
      <trkpt lat="45.31171" lon="6.24878">
        <ele>1144.4959716797</ele>
        <time>2017-02-25T11:18:03Z</time>
      </trkpt>
      <trkpt lat="45.31167" lon="6.24874">
        <ele>1143.4959716797</ele>
        <time>2017-02-25T11:18:07Z</time>
      </trkpt>
      <trkpt lat="45.31161" lon="6.24873">
        <ele>1146.4959716797</ele>
        <time>2017-02-25T11:18:11Z</time>
      </trkpt>
      <trkpt lat="45.31157" lon="6.24871">
        <ele>1143.4959716797</ele>
        <time>2017-02-25T11:18:15Z</time>
      </trkpt>
      <trkpt lat="45.31153" lon="6.24869">
        <ele>1143.4959716797</ele>
        <time>2017-02-25T11:18:19Z</time>
      </trkpt>
      <trkpt lat="45.31148" lon="6.24868">
        <ele>1143.4959716797</ele>
        <time>2017-02-25T11:18:22Z</time>
      </trkpt>
      <trkpt lat="45.31143" lon="6.24867">
        <ele>1142.4959716797</ele>
        <time>2017-02-25T11:18:25Z</time>
      </trkpt>
      <trkpt lat="45.31137" lon="6.24866">
        <ele>1141.4959716797</ele>
        <time>2017-02-25T11:18:30Z</time>
      </trkpt>
      <trkpt lat="45.31133" lon="6.24865">
        <ele>1140.4959716797</ele>
        <time>2017-02-25T11:18:34Z</time>
      </trkpt>
      <trkpt lat="45.31129" lon="6.24867">
        <ele>1141.4959716797</ele>
        <time>2017-02-25T11:18:38Z</time>
      </trkpt>
      <trkpt lat="45.31126" lon="6.24872">
        <ele>1142.4959716797</ele>
        <time>2017-02-25T11:18:41Z</time>
      </trkpt>
      <trkpt lat="45.31122" lon="6.24877">
        <ele>1143.4959716797</ele>
        <time>2017-02-25T11:18:49Z</time>
      </trkpt>
      <trkpt lat="45.31125" lon="6.24882">
        <ele>1140.4959716797</ele>
        <time>2017-02-25T11:19:24Z</time>
      </trkpt>
      <trkpt lat="45.31122" lon="6.24877">
        <ele>1139.4959716797</ele>
        <time>2017-02-25T11:19:36Z</time>
      </trkpt>
      <trkpt lat="45.31121" lon="6.24871">
        <ele>1139.4959716797</ele>
        <time>2017-02-25T11:19:41Z</time>
      </trkpt>
    </trkseg>
  </trk>
</gpx>